<?xml version="1.0" encoding="UTF-8" standalone="no" ?>
<gpx xmlns="http://www.topografix.com/GPX/1/1" xmlns:xsi="http://www.w3.org/2001/XMLSchema-instance" xsi:schemaLocation="http://www.topografix.com/GPX/1/1 http://www.topografix.com/GPX/1/1/gpx.xsd" version="1.1" creator="VisuGPX - https://www.visugpx.com">
  <metadata>
    <name>Pareloup</name>
  </metadata>
  <trk>
    <name><![CDATA[Salles Curant]]></name>
    <extensions>
      <line xmlns="http://www.topografix.com/GPX/gpx_style/0/2">
        <color>0000FF</color>
        <width>4</width>
      </line>
    </extensions>
    <trkseg>
      <trkpt lat="44.10044" lon="2.69288">
        <ele>725.93</ele>
        <time>2022-07-13T11:37:43Z</time>
      </trkpt>
      <trkpt lat="44.10045" lon="2.69281">
        <ele>727.37</ele>
        <time>2022-07-13T11:37:50Z</time>
      </trkpt>
      <trkpt lat="44.09344" lon="2.6972">
        <ele>719.68</ele>
        <time>2022-07-14T05:17:33Z</time>
      </trkpt>
      <trkpt lat="44.09335" lon="2.69725">
        <ele>719.2</ele>
        <time>2022-07-14T05:17:40Z</time>
      </trkpt>
      <trkpt lat="44.09332" lon="2.69741">
        <ele>721.13</ele>
        <time>2022-07-14T05:17:47Z</time>
      </trkpt>
      <trkpt lat="44.09329" lon="2.69755">
        <ele>723.05</ele>
        <time>2022-07-14T05:17:55Z</time>
      </trkpt>
      <trkpt lat="44.09325" lon="2.69766">
        <ele>724.01</ele>
        <time>2022-07-14T05:18:03Z</time>
      </trkpt>
      <trkpt lat="44.09317" lon="2.69774">
        <ele>724.97</ele>
        <time>2022-07-14T05:18:09Z</time>
      </trkpt>
      <trkpt lat="44.0931" lon="2.69784">
        <ele>726.89</ele>
        <time>2022-07-14T05:18:16Z</time>
      </trkpt>
      <trkpt lat="44.09302" lon="2.69792">
        <ele>726.41</ele>
        <time>2022-07-14T05:18:24Z</time>
      </trkpt>
      <trkpt lat="44.09294" lon="2.698">
        <ele>725.93</ele>
        <time>2022-07-14T05:18:32Z</time>
      </trkpt>
      <trkpt lat="44.09285" lon="2.69809">
        <ele>726.41</ele>
        <time>2022-07-14T05:18:41Z</time>
      </trkpt>
      <trkpt lat="44.09276" lon="2.69818">
        <ele>726.41</ele>
        <time>2022-07-14T05:18:49Z</time>
      </trkpt>
      <trkpt lat="44.09268" lon="2.69827">
        <ele>726.89</ele>
        <time>2022-07-14T05:18:56Z</time>
      </trkpt>
      <trkpt lat="44.09259" lon="2.69838">
        <ele>726.41</ele>
        <time>2022-07-14T05:19:05Z</time>
      </trkpt>
      <trkpt lat="44.0925" lon="2.69847">
        <ele>726.41</ele>
        <time>2022-07-14T05:19:14Z</time>
      </trkpt>
      <trkpt lat="44.0924" lon="2.69858">
        <ele>727.37</ele>
        <time>2022-07-14T05:19:25Z</time>
      </trkpt>
      <trkpt lat="44.09229" lon="2.69869">
        <ele>727.37</ele>
        <time>2022-07-14T05:19:34Z</time>
      </trkpt>
      <trkpt lat="44.0922" lon="2.69878">
        <ele>727.86</ele>
        <time>2022-07-14T05:19:42Z</time>
      </trkpt>
      <trkpt lat="44.09211" lon="2.69886">
        <ele>727.86</ele>
        <time>2022-07-14T05:19:50Z</time>
      </trkpt>
      <trkpt lat="44.09202" lon="2.69897">
        <ele>727.86</ele>
        <time>2022-07-14T05:19:59Z</time>
      </trkpt>
      <trkpt lat="44.09193" lon="2.69907">
        <ele>726.89</ele>
        <time>2022-07-14T05:20:08Z</time>
      </trkpt>
      <trkpt lat="44.09183" lon="2.69916">
        <ele>725.93</ele>
        <time>2022-07-14T05:20:17Z</time>
      </trkpt>
      <trkpt lat="44.09174" lon="2.69925">
        <ele>724.01</ele>
        <time>2022-07-14T05:20:25Z</time>
      </trkpt>
      <trkpt lat="44.09164" lon="2.69935">
        <ele>723.05</ele>
        <time>2022-07-14T05:20:33Z</time>
      </trkpt>
      <trkpt lat="44.09155" lon="2.69945">
        <ele>722.57</ele>
        <time>2022-07-14T05:20:41Z</time>
      </trkpt>
      <trkpt lat="44.09146" lon="2.69953">
        <ele>721.61</ele>
        <time>2022-07-14T05:20:50Z</time>
      </trkpt>
      <trkpt lat="44.09137" lon="2.69961">
        <ele>721.13</ele>
        <time>2022-07-14T05:20:58Z</time>
      </trkpt>
      <trkpt lat="44.09128" lon="2.6997">
        <ele>720.16</ele>
        <time>2022-07-14T05:21:05Z</time>
      </trkpt>
      <trkpt lat="44.09119" lon="2.6998">
        <ele>720.16</ele>
        <time>2022-07-14T05:21:14Z</time>
      </trkpt>
      <trkpt lat="44.0911" lon="2.69991">
        <ele>720.65</ele>
        <time>2022-07-14T05:21:22Z</time>
      </trkpt>
      <trkpt lat="44.09105" lon="2.70003">
        <ele>720.65</ele>
        <time>2022-07-14T05:21:29Z</time>
      </trkpt>
      <trkpt lat="44.09109" lon="2.70018">
        <ele>720.65</ele>
        <time>2022-07-14T05:21:37Z</time>
      </trkpt>
      <trkpt lat="44.09111" lon="2.70034">
        <ele>721.13</ele>
        <time>2022-07-14T05:21:45Z</time>
      </trkpt>
      <trkpt lat="44.09113" lon="2.70049">
        <ele>720.65</ele>
        <time>2022-07-14T05:21:53Z</time>
      </trkpt>
      <trkpt lat="44.09114" lon="2.70065">
        <ele>721.13</ele>
        <time>2022-07-14T05:22:02Z</time>
      </trkpt>
      <trkpt lat="44.09117" lon="2.70079">
        <ele>720.65</ele>
        <time>2022-07-14T05:22:10Z</time>
      </trkpt>
      <trkpt lat="44.09119" lon="2.70094">
        <ele>720.65</ele>
        <time>2022-07-14T05:22:18Z</time>
      </trkpt>
      <trkpt lat="44.09121" lon="2.70108">
        <ele>720.65</ele>
        <time>2022-07-14T05:22:26Z</time>
      </trkpt>
      <trkpt lat="44.09123" lon="2.7012">
        <ele>721.61</ele>
        <time>2022-07-14T05:22:34Z</time>
      </trkpt>
      <trkpt lat="44.09126" lon="2.70134">
        <ele>722.09</ele>
        <time>2022-07-14T05:22:42Z</time>
      </trkpt>
      <trkpt lat="44.09127" lon="2.70147">
        <ele>722.57</ele>
        <time>2022-07-14T05:22:50Z</time>
      </trkpt>
      <trkpt lat="44.09128" lon="2.70161">
        <ele>722.09</ele>
        <time>2022-07-14T05:22:57Z</time>
      </trkpt>
      <trkpt lat="44.0913" lon="2.70175">
        <ele>722.09</ele>
        <time>2022-07-14T05:23:05Z</time>
      </trkpt>
      <trkpt lat="44.09132" lon="2.70189">
        <ele>720.65</ele>
        <time>2022-07-14T05:23:13Z</time>
      </trkpt>
      <trkpt lat="44.09133" lon="2.70203">
        <ele>720.16</ele>
        <time>2022-07-14T05:23:21Z</time>
      </trkpt>
      <trkpt lat="44.09134" lon="2.70218">
        <ele>720.65</ele>
        <time>2022-07-14T05:23:29Z</time>
      </trkpt>
      <trkpt lat="44.09134" lon="2.70233">
        <ele>720.65</ele>
        <time>2022-07-14T05:23:36Z</time>
      </trkpt>
      <trkpt lat="44.09136" lon="2.70247">
        <ele>720.16</ele>
        <time>2022-07-14T05:23:43Z</time>
      </trkpt>
      <trkpt lat="44.09138" lon="2.70262">
        <ele>719.68</ele>
        <time>2022-07-14T05:23:53Z</time>
      </trkpt>
      <trkpt lat="44.0914" lon="2.70276">
        <ele>719.68</ele>
        <time>2022-07-14T05:24:02Z</time>
      </trkpt>
      <trkpt lat="44.09142" lon="2.7029">
        <ele>719.2</ele>
        <time>2022-07-14T05:24:11Z</time>
      </trkpt>
      <trkpt lat="44.09143" lon="2.70304">
        <ele>719.2</ele>
        <time>2022-07-14T05:24:20Z</time>
      </trkpt>
      <trkpt lat="44.09145" lon="2.70319">
        <ele>719.68</ele>
        <time>2022-07-14T05:24:29Z</time>
      </trkpt>
      <trkpt lat="44.09147" lon="2.70334">
        <ele>718.72</ele>
        <time>2022-07-14T05:24:39Z</time>
      </trkpt>
      <trkpt lat="44.09148" lon="2.70348">
        <ele>718.24</ele>
        <time>2022-07-14T05:24:48Z</time>
      </trkpt>
      <trkpt lat="44.0915" lon="2.70363">
        <ele>718.24</ele>
        <time>2022-07-14T05:24:56Z</time>
      </trkpt>
      <trkpt lat="44.09151" lon="2.70377">
        <ele>718.24</ele>
        <time>2022-07-14T05:25:04Z</time>
      </trkpt>
      <trkpt lat="44.09153" lon="2.70392">
        <ele>718.24</ele>
        <time>2022-07-14T05:25:12Z</time>
      </trkpt>
      <trkpt lat="44.09154" lon="2.70407">
        <ele>718.24</ele>
        <time>2022-07-14T05:25:20Z</time>
      </trkpt>
      <trkpt lat="44.09156" lon="2.70421">
        <ele>718.24</ele>
        <time>2022-07-14T05:25:30Z</time>
      </trkpt>
      <trkpt lat="44.09157" lon="2.70435">
        <ele>718.24</ele>
        <time>2022-07-14T05:25:38Z</time>
      </trkpt>
      <trkpt lat="44.09164" lon="2.70452">
        <ele>719.68</ele>
        <time>2022-07-14T05:25:55Z</time>
      </trkpt>
      <trkpt lat="44.09169" lon="2.70463">
        <ele>720.16</ele>
        <time>2022-07-14T05:26:02Z</time>
      </trkpt>
      <trkpt lat="44.09175" lon="2.70474">
        <ele>719.68</ele>
        <time>2022-07-14T05:26:09Z</time>
      </trkpt>
      <trkpt lat="44.09184" lon="2.70484">
        <ele>720.65</ele>
        <time>2022-07-14T05:26:18Z</time>
      </trkpt>
      <trkpt lat="44.09193" lon="2.70493">
        <ele>721.61</ele>
        <time>2022-07-14T05:26:27Z</time>
      </trkpt>
      <trkpt lat="44.09202" lon="2.705">
        <ele>723.53</ele>
        <time>2022-07-14T05:26:35Z</time>
      </trkpt>
      <trkpt lat="44.09211" lon="2.7051">
        <ele>726.89</ele>
        <time>2022-07-14T05:26:43Z</time>
      </trkpt>
      <trkpt lat="44.09216" lon="2.70522">
        <ele>728.34</ele>
        <time>2022-07-14T05:26:51Z</time>
      </trkpt>
      <trkpt lat="44.09218" lon="2.70537">
        <ele>728.82</ele>
        <time>2022-07-14T05:26:59Z</time>
      </trkpt>
      <trkpt lat="44.09221" lon="2.70551">
        <ele>729.3</ele>
        <time>2022-07-14T05:27:07Z</time>
      </trkpt>
      <trkpt lat="44.09224" lon="2.70566">
        <ele>729.3</ele>
        <time>2022-07-14T05:27:15Z</time>
      </trkpt>
      <trkpt lat="44.09228" lon="2.70578">
        <ele>728.82</ele>
        <time>2022-07-14T05:27:22Z</time>
      </trkpt>
      <trkpt lat="44.09231" lon="2.70591">
        <ele>727.86</ele>
        <time>2022-07-14T05:27:29Z</time>
      </trkpt>
      <trkpt lat="44.09231" lon="2.70605">
        <ele>726.89</ele>
        <time>2022-07-14T05:27:37Z</time>
      </trkpt>
      <trkpt lat="44.0923" lon="2.70621">
        <ele>726.89</ele>
        <time>2022-07-14T05:27:45Z</time>
      </trkpt>
      <trkpt lat="44.09239" lon="2.70644">
        <ele>726.89</ele>
        <time>2022-07-14T05:28:09Z</time>
      </trkpt>
      <trkpt lat="44.09248" lon="2.7064">
        <ele>726.41</ele>
        <time>2022-07-14T05:28:18Z</time>
      </trkpt>
      <trkpt lat="44.09263" lon="2.7064">
        <ele>727.37</ele>
        <time>2022-07-14T05:28:37Z</time>
      </trkpt>
      <trkpt lat="44.09268" lon="2.70654">
        <ele>729.78</ele>
        <time>2022-07-14T05:28:47Z</time>
      </trkpt>
      <trkpt lat="44.09283" lon="2.70661">
        <ele>732.18</ele>
        <time>2022-07-14T05:29:07Z</time>
      </trkpt>
      <trkpt lat="44.09291" lon="2.70653">
        <ele>733.62</ele>
        <time>2022-07-14T05:29:17Z</time>
      </trkpt>
      <trkpt lat="44.09299" lon="2.70645">
        <ele>738.43</ele>
        <time>2022-07-14T05:29:37Z</time>
      </trkpt>
      <trkpt lat="44.09306" lon="2.70636">
        <ele>738.43</ele>
        <time>2022-07-14T05:29:46Z</time>
      </trkpt>
      <trkpt lat="44.09312" lon="2.70626">
        <ele>737.95</ele>
        <time>2022-07-14T05:29:55Z</time>
      </trkpt>
      <trkpt lat="44.09319" lon="2.70617">
        <ele>737.95</ele>
        <time>2022-07-14T05:30:03Z</time>
      </trkpt>
      <trkpt lat="44.09326" lon="2.70606">
        <ele>738.43</ele>
        <time>2022-07-14T05:30:11Z</time>
      </trkpt>
      <trkpt lat="44.09332" lon="2.70596">
        <ele>738.91</ele>
        <time>2022-07-14T05:30:18Z</time>
      </trkpt>
      <trkpt lat="44.09338" lon="2.70584">
        <ele>738.91</ele>
        <time>2022-07-14T05:30:26Z</time>
      </trkpt>
      <trkpt lat="44.09336" lon="2.7057">
        <ele>738.91</ele>
        <time>2022-07-14T05:30:37Z</time>
      </trkpt>
      <trkpt lat="44.09351" lon="2.70561">
        <ele>736.03</ele>
        <time>2022-07-14T05:32:05Z</time>
      </trkpt>
      <trkpt lat="44.09347" lon="2.70571">
        <ele>737.47</ele>
        <time>2022-07-14T05:34:17Z</time>
      </trkpt>
      <trkpt lat="44.09351" lon="2.70564">
        <ele>736.51</ele>
        <time>2022-07-14T05:34:37Z</time>
      </trkpt>
      <trkpt lat="44.0936" lon="2.70562">
        <ele>736.51</ele>
        <time>2022-07-14T05:34:44Z</time>
      </trkpt>
      <trkpt lat="44.0937" lon="2.70558">
        <ele>736.03</ele>
        <time>2022-07-14T05:34:51Z</time>
      </trkpt>
      <trkpt lat="44.0938" lon="2.70554">
        <ele>736.03</ele>
        <time>2022-07-14T05:34:59Z</time>
      </trkpt>
      <trkpt lat="44.09391" lon="2.70551">
        <ele>735.07</ele>
        <time>2022-07-14T05:35:06Z</time>
      </trkpt>
      <trkpt lat="44.09402" lon="2.70548">
        <ele>734.58</ele>
        <time>2022-07-14T05:35:15Z</time>
      </trkpt>
      <trkpt lat="44.09413" lon="2.70544">
        <ele>734.58</ele>
        <time>2022-07-14T05:35:23Z</time>
      </trkpt>
      <trkpt lat="44.09427" lon="2.70545">
        <ele>736.03</ele>
        <time>2022-07-14T05:35:30Z</time>
      </trkpt>
      <trkpt lat="44.09433" lon="2.70557">
        <ele>737.95</ele>
        <time>2022-07-14T05:35:37Z</time>
      </trkpt>
      <trkpt lat="44.09439" lon="2.70569">
        <ele>738.91</ele>
        <time>2022-07-14T05:35:45Z</time>
      </trkpt>
      <trkpt lat="44.09446" lon="2.70582">
        <ele>739.39</ele>
        <time>2022-07-14T05:35:54Z</time>
      </trkpt>
      <trkpt lat="44.09457" lon="2.70603">
        <ele>739.39</ele>
        <time>2022-07-14T05:36:10Z</time>
      </trkpt>
      <trkpt lat="44.09462" lon="2.70617">
        <ele>739.39</ele>
        <time>2022-07-14T05:36:20Z</time>
      </trkpt>
      <trkpt lat="44.09468" lon="2.70637">
        <ele>738.91</ele>
        <time>2022-07-14T05:36:32Z</time>
      </trkpt>
      <trkpt lat="44.09476" lon="2.70655">
        <ele>737.47</ele>
        <time>2022-07-14T05:36:42Z</time>
      </trkpt>
      <trkpt lat="44.09461" lon="2.7069">
        <ele>733.14</ele>
        <time>2022-07-14T05:37:13Z</time>
      </trkpt>
      <trkpt lat="44.09445" lon="2.70701">
        <ele>731.22</ele>
        <time>2022-07-14T05:37:26Z</time>
      </trkpt>
      <trkpt lat="44.09435" lon="2.70706">
        <ele>731.7</ele>
        <time>2022-07-14T05:37:35Z</time>
      </trkpt>
      <trkpt lat="44.09419" lon="2.70714">
        <ele>738.43</ele>
        <time>2022-07-14T05:37:43Z</time>
      </trkpt>
      <trkpt lat="44.09409" lon="2.70724">
        <ele>745.16</ele>
        <time>2022-07-14T05:37:51Z</time>
      </trkpt>
      <trkpt lat="44.09403" lon="2.7074">
        <ele>746.6</ele>
        <time>2022-07-14T05:38:03Z</time>
      </trkpt>
      <trkpt lat="44.09409" lon="2.70752">
        <ele>748.04</ele>
        <time>2022-07-14T05:38:11Z</time>
      </trkpt>
      <trkpt lat="44.09417" lon="2.70763">
        <ele>748.52</ele>
        <time>2022-07-14T05:38:19Z</time>
      </trkpt>
      <trkpt lat="44.09424" lon="2.70774">
        <ele>749.49</ele>
        <time>2022-07-14T05:38:27Z</time>
      </trkpt>
      <trkpt lat="44.09432" lon="2.70786">
        <ele>749.97</ele>
        <time>2022-07-14T05:38:36Z</time>
      </trkpt>
      <trkpt lat="44.09439" lon="2.70798">
        <ele>749.97</ele>
        <time>2022-07-14T05:38:44Z</time>
      </trkpt>
      <trkpt lat="44.0946" lon="2.70835">
        <ele>752.85</ele>
        <time>2022-07-14T05:39:10Z</time>
      </trkpt>
      <trkpt lat="44.09496" lon="2.7088">
        <ele>756.69</ele>
        <time>2022-07-14T05:39:41Z</time>
      </trkpt>
      <trkpt lat="44.09508" lon="2.70885">
        <ele>756.21</ele>
        <time>2022-07-14T05:39:50Z</time>
      </trkpt>
      <trkpt lat="44.09519" lon="2.70887">
        <ele>756.69</ele>
        <time>2022-07-14T05:39:58Z</time>
      </trkpt>
      <trkpt lat="44.0953" lon="2.70886">
        <ele>757.66</ele>
        <time>2022-07-14T05:40:07Z</time>
      </trkpt>
      <trkpt lat="44.09544" lon="2.70888">
        <ele>757.18</ele>
        <time>2022-07-14T05:40:19Z</time>
      </trkpt>
      <trkpt lat="44.09561" lon="2.70885">
        <ele>755.73</ele>
        <time>2022-07-14T05:40:29Z</time>
      </trkpt>
      <trkpt lat="44.09574" lon="2.70883">
        <ele>755.25</ele>
        <time>2022-07-14T05:40:38Z</time>
      </trkpt>
      <trkpt lat="44.09591" lon="2.70881">
        <ele>753.81</ele>
        <time>2022-07-14T05:40:48Z</time>
      </trkpt>
      <trkpt lat="44.09603" lon="2.70879">
        <ele>752.85</ele>
        <time>2022-07-14T05:40:56Z</time>
      </trkpt>
      <trkpt lat="44.09615" lon="2.70881">
        <ele>752.85</ele>
        <time>2022-07-14T05:41:05Z</time>
      </trkpt>
      <trkpt lat="44.09644" lon="2.70872">
        <ele>732.66</ele>
        <time>2022-07-14T05:44:11Z</time>
      </trkpt>
      <trkpt lat="44.09667" lon="2.7088">
        <ele>730.74</ele>
        <time>2022-07-14T05:44:27Z</time>
      </trkpt>
      <trkpt lat="44.09685" lon="2.70891">
        <ele>729.78</ele>
        <time>2022-07-14T05:44:37Z</time>
      </trkpt>
      <trkpt lat="44.097" lon="2.70903">
        <ele>731.7</ele>
        <time>2022-07-14T05:44:45Z</time>
      </trkpt>
      <trkpt lat="44.09716" lon="2.7091">
        <ele>734.1</ele>
        <time>2022-07-14T05:44:55Z</time>
      </trkpt>
      <trkpt lat="44.0973" lon="2.70914">
        <ele>734.58</ele>
        <time>2022-07-14T05:45:03Z</time>
      </trkpt>
      <trkpt lat="44.09743" lon="2.70919">
        <ele>735.55</ele>
        <time>2022-07-14T05:45:13Z</time>
      </trkpt>
      <trkpt lat="44.09755" lon="2.70923">
        <ele>735.55</ele>
        <time>2022-07-14T05:45:21Z</time>
      </trkpt>
      <trkpt lat="44.09767" lon="2.7093">
        <ele>735.55</ele>
        <time>2022-07-14T05:45:30Z</time>
      </trkpt>
      <trkpt lat="44.0978" lon="2.70938">
        <ele>736.51</ele>
        <time>2022-07-14T05:45:40Z</time>
      </trkpt>
      <trkpt lat="44.09792" lon="2.70947">
        <ele>737.95</ele>
        <time>2022-07-14T05:45:48Z</time>
      </trkpt>
      <trkpt lat="44.09817" lon="2.70961">
        <ele>739.39</ele>
        <time>2022-07-14T05:46:06Z</time>
      </trkpt>
      <trkpt lat="44.09865" lon="2.70994">
        <ele>738.43</ele>
        <time>2022-07-14T05:46:49Z</time>
      </trkpt>
      <trkpt lat="44.09935" lon="2.71015">
        <ele>740.83</ele>
        <time>2022-07-14T05:47:40Z</time>
      </trkpt>
      <trkpt lat="44.09987" lon="2.71013">
        <ele>745.16</ele>
        <time>2022-07-14T05:48:09Z</time>
      </trkpt>
      <trkpt lat="44.10049" lon="2.71005">
        <ele>742.28</ele>
        <time>2022-07-14T05:48:47Z</time>
      </trkpt>
      <trkpt lat="44.10066" lon="2.71003">
        <ele>741.79</ele>
        <time>2022-07-14T05:48:56Z</time>
      </trkpt>
      <trkpt lat="44.10081" lon="2.71001">
        <ele>741.79</ele>
        <time>2022-07-14T05:49:04Z</time>
      </trkpt>
      <trkpt lat="44.10099" lon="2.71004">
        <ele>744.2</ele>
        <time>2022-07-14T05:49:16Z</time>
      </trkpt>
      <trkpt lat="44.10115" lon="2.71008">
        <ele>746.12</ele>
        <time>2022-07-14T05:49:25Z</time>
      </trkpt>
      <trkpt lat="44.10132" lon="2.71012">
        <ele>747.08</ele>
        <time>2022-07-14T05:49:33Z</time>
      </trkpt>
      <trkpt lat="44.10145" lon="2.71016">
        <ele>749</ele>
        <time>2022-07-14T05:49:40Z</time>
      </trkpt>
      <trkpt lat="44.10159" lon="2.71017">
        <ele>751.41</ele>
        <time>2022-07-14T05:49:49Z</time>
      </trkpt>
      <trkpt lat="44.10171" lon="2.7102">
        <ele>752.37</ele>
        <time>2022-07-14T05:49:58Z</time>
      </trkpt>
      <trkpt lat="44.10184" lon="2.71022">
        <ele>752.85</ele>
        <time>2022-07-14T05:50:06Z</time>
      </trkpt>
      <trkpt lat="44.10197" lon="2.71023">
        <ele>753.81</ele>
        <time>2022-07-14T05:50:15Z</time>
      </trkpt>
      <trkpt lat="44.1021" lon="2.71026">
        <ele>754.77</ele>
        <time>2022-07-14T05:50:23Z</time>
      </trkpt>
      <trkpt lat="44.10223" lon="2.71028">
        <ele>756.21</ele>
        <time>2022-07-14T05:50:31Z</time>
      </trkpt>
      <trkpt lat="44.10236" lon="2.71031">
        <ele>755.73</ele>
        <time>2022-07-14T05:50:39Z</time>
      </trkpt>
      <trkpt lat="44.10249" lon="2.71033">
        <ele>754.29</ele>
        <time>2022-07-14T05:50:48Z</time>
      </trkpt>
      <trkpt lat="44.10262" lon="2.71036">
        <ele>754.29</ele>
        <time>2022-07-14T05:50:56Z</time>
      </trkpt>
      <trkpt lat="44.10274" lon="2.71038">
        <ele>756.21</ele>
        <time>2022-07-14T05:51:03Z</time>
      </trkpt>
      <trkpt lat="44.10289" lon="2.71044">
        <ele>758.14</ele>
        <time>2022-07-14T05:51:15Z</time>
      </trkpt>
      <trkpt lat="44.10307" lon="2.71046">
        <ele>758.62</ele>
        <time>2022-07-14T05:51:29Z</time>
      </trkpt>
      <trkpt lat="44.10326" lon="2.71048">
        <ele>757.18</ele>
        <time>2022-07-14T05:51:42Z</time>
      </trkpt>
      <trkpt lat="44.10337" lon="2.71045">
        <ele>757.66</ele>
        <time>2022-07-14T05:51:50Z</time>
      </trkpt>
      <trkpt lat="44.1035" lon="2.71034">
        <ele>759.1</ele>
        <time>2022-07-14T05:51:59Z</time>
      </trkpt>
      <trkpt lat="44.10363" lon="2.71023">
        <ele>759.1</ele>
        <time>2022-07-14T05:52:07Z</time>
      </trkpt>
      <trkpt lat="44.10374" lon="2.71014">
        <ele>759.58</ele>
        <time>2022-07-14T05:52:15Z</time>
      </trkpt>
      <trkpt lat="44.10385" lon="2.71005">
        <ele>759.1</ele>
        <time>2022-07-14T05:52:22Z</time>
      </trkpt>
      <trkpt lat="44.10395" lon="2.70992">
        <ele>758.62</ele>
        <time>2022-07-14T05:52:31Z</time>
      </trkpt>
      <trkpt lat="44.10417" lon="2.70965">
        <ele>760.54</ele>
        <time>2022-07-14T05:52:55Z</time>
      </trkpt>
      <trkpt lat="44.10426" lon="2.70954">
        <ele>761.5</ele>
        <time>2022-07-14T05:53:04Z</time>
      </trkpt>
      <trkpt lat="44.10446" lon="2.70932">
        <ele>763.9</ele>
        <time>2022-07-14T05:53:21Z</time>
      </trkpt>
      <trkpt lat="44.1049" lon="2.70893">
        <ele>765.83</ele>
        <time>2022-07-14T05:54:23Z</time>
      </trkpt>
      <trkpt lat="44.10507" lon="2.70886">
        <ele>769.67</ele>
        <time>2022-07-14T05:54:33Z</time>
      </trkpt>
      <trkpt lat="44.10518" lon="2.70878">
        <ele>773.52</ele>
        <time>2022-07-14T05:54:41Z</time>
      </trkpt>
      <trkpt lat="44.10526" lon="2.70869">
        <ele>774.96</ele>
        <time>2022-07-14T05:54:48Z</time>
      </trkpt>
      <trkpt lat="44.10536" lon="2.70861">
        <ele>776.4</ele>
        <time>2022-07-14T05:54:55Z</time>
      </trkpt>
      <trkpt lat="44.10546" lon="2.70855">
        <ele>777.36</ele>
        <time>2022-07-14T05:55:03Z</time>
      </trkpt>
      <trkpt lat="44.10556" lon="2.7085">
        <ele>776.88</ele>
        <time>2022-07-14T05:55:10Z</time>
      </trkpt>
      <trkpt lat="44.10565" lon="2.70845">
        <ele>775.92</ele>
        <time>2022-07-14T05:55:17Z</time>
      </trkpt>
      <trkpt lat="44.10573" lon="2.70834">
        <ele>774.48</ele>
        <time>2022-07-14T05:55:25Z</time>
      </trkpt>
      <trkpt lat="44.10583" lon="2.70823">
        <ele>772.56</ele>
        <time>2022-07-14T05:55:32Z</time>
      </trkpt>
      <trkpt lat="44.10589" lon="2.70808">
        <ele>772.08</ele>
        <time>2022-07-14T05:55:40Z</time>
      </trkpt>
      <trkpt lat="44.10597" lon="2.70792">
        <ele>769.67</ele>
        <time>2022-07-14T05:55:52Z</time>
      </trkpt>
      <trkpt lat="44.10601" lon="2.7077">
        <ele>766.31</ele>
        <time>2022-07-14T05:56:06Z</time>
      </trkpt>
      <trkpt lat="44.10603" lon="2.70741">
        <ele>764.87</ele>
        <time>2022-07-14T05:56:16Z</time>
      </trkpt>
      <trkpt lat="44.10653" lon="2.70612">
        <ele>759.58</ele>
        <time>2022-07-14T05:57:28Z</time>
      </trkpt>
      <trkpt lat="44.10675" lon="2.70564">
        <ele>765.83</ele>
        <time>2022-07-14T05:57:49Z</time>
      </trkpt>
      <trkpt lat="44.10687" lon="2.70525">
        <ele>765.83</ele>
        <time>2022-07-14T05:58:12Z</time>
      </trkpt>
      <trkpt lat="44.10692" lon="2.70501">
        <ele>767.75</ele>
        <time>2022-07-14T05:58:21Z</time>
      </trkpt>
      <trkpt lat="44.10699" lon="2.70481">
        <ele>767.27</ele>
        <time>2022-07-14T05:58:29Z</time>
      </trkpt>
      <trkpt lat="44.10703" lon="2.70467">
        <ele>765.83</ele>
        <time>2022-07-14T05:58:36Z</time>
      </trkpt>
      <trkpt lat="44.10706" lon="2.70453">
        <ele>765.35</ele>
        <time>2022-07-14T05:58:42Z</time>
      </trkpt>
      <trkpt lat="44.10711" lon="2.70437">
        <ele>764.39</ele>
        <time>2022-07-14T05:58:49Z</time>
      </trkpt>
      <trkpt lat="44.10714" lon="2.70418">
        <ele>764.87</ele>
        <time>2022-07-14T05:58:56Z</time>
      </trkpt>
      <trkpt lat="44.1072" lon="2.70403">
        <ele>763.9</ele>
        <time>2022-07-14T05:59:05Z</time>
      </trkpt>
      <trkpt lat="44.10724" lon="2.70389">
        <ele>761.98</ele>
        <time>2022-07-14T05:59:13Z</time>
      </trkpt>
      <trkpt lat="44.10728" lon="2.70376">
        <ele>760.54</ele>
        <time>2022-07-14T05:59:21Z</time>
      </trkpt>
      <trkpt lat="44.10733" lon="2.70364">
        <ele>759.58</ele>
        <time>2022-07-14T05:59:27Z</time>
      </trkpt>
      <trkpt lat="44.10738" lon="2.70351">
        <ele>759.1</ele>
        <time>2022-07-14T05:59:33Z</time>
      </trkpt>
      <trkpt lat="44.10743" lon="2.70339">
        <ele>758.62</ele>
        <time>2022-07-14T05:59:39Z</time>
      </trkpt>
      <trkpt lat="44.1075" lon="2.70325">
        <ele>758.62</ele>
        <time>2022-07-14T05:59:46Z</time>
      </trkpt>
      <trkpt lat="44.10755" lon="2.70307">
        <ele>759.58</ele>
        <time>2022-07-14T05:59:53Z</time>
      </trkpt>
      <trkpt lat="44.10761" lon="2.70293">
        <ele>760.06</ele>
        <time>2022-07-14T06:00:00Z</time>
      </trkpt>
      <trkpt lat="44.10767" lon="2.70281">
        <ele>760.06</ele>
        <time>2022-07-14T06:00:06Z</time>
      </trkpt>
      <trkpt lat="44.10773" lon="2.70271">
        <ele>759.58</ele>
        <time>2022-07-14T06:00:12Z</time>
      </trkpt>
      <trkpt lat="44.1078" lon="2.70259">
        <ele>759.1</ele>
        <time>2022-07-14T06:00:19Z</time>
      </trkpt>
      <trkpt lat="44.10786" lon="2.70244">
        <ele>759.1</ele>
        <time>2022-07-14T06:00:26Z</time>
      </trkpt>
      <trkpt lat="44.10792" lon="2.70232">
        <ele>758.62</ele>
        <time>2022-07-14T06:00:32Z</time>
      </trkpt>
      <trkpt lat="44.10796" lon="2.70219">
        <ele>758.14</ele>
        <time>2022-07-14T06:00:38Z</time>
      </trkpt>
      <trkpt lat="44.108" lon="2.70206">
        <ele>757.66</ele>
        <time>2022-07-14T06:00:44Z</time>
      </trkpt>
      <trkpt lat="44.10804" lon="2.70192">
        <ele>757.66</ele>
        <time>2022-07-14T06:00:51Z</time>
      </trkpt>
      <trkpt lat="44.10809" lon="2.70179">
        <ele>756.69</ele>
        <time>2022-07-14T06:00:58Z</time>
      </trkpt>
      <trkpt lat="44.10814" lon="2.70166">
        <ele>756.21</ele>
        <time>2022-07-14T06:01:05Z</time>
      </trkpt>
      <trkpt lat="44.10818" lon="2.70154">
        <ele>756.21</ele>
        <time>2022-07-14T06:01:11Z</time>
      </trkpt>
      <trkpt lat="44.10823" lon="2.70142">
        <ele>755.73</ele>
        <time>2022-07-14T06:01:17Z</time>
      </trkpt>
      <trkpt lat="44.10826" lon="2.70129">
        <ele>755.25</ele>
        <time>2022-07-14T06:01:23Z</time>
      </trkpt>
      <trkpt lat="44.1083" lon="2.70118">
        <ele>754.77</ele>
        <time>2022-07-14T06:01:29Z</time>
      </trkpt>
      <trkpt lat="44.10837" lon="2.70105">
        <ele>753.33</ele>
        <time>2022-07-14T06:01:36Z</time>
      </trkpt>
      <trkpt lat="44.10842" lon="2.70093">
        <ele>752.37</ele>
        <time>2022-07-14T06:01:42Z</time>
      </trkpt>
      <trkpt lat="44.10846" lon="2.70081">
        <ele>750.93</ele>
        <time>2022-07-14T06:01:48Z</time>
      </trkpt>
      <trkpt lat="44.1085" lon="2.7007">
        <ele>749.97</ele>
        <time>2022-07-14T06:01:55Z</time>
      </trkpt>
      <trkpt lat="44.10855" lon="2.70057">
        <ele>748.52</ele>
        <time>2022-07-14T06:02:02Z</time>
      </trkpt>
      <trkpt lat="44.10859" lon="2.70045">
        <ele>747.56</ele>
        <time>2022-07-14T06:02:08Z</time>
      </trkpt>
      <trkpt lat="44.10863" lon="2.70032">
        <ele>746.12</ele>
        <time>2022-07-14T06:02:15Z</time>
      </trkpt>
      <trkpt lat="44.10868" lon="2.70018">
        <ele>744.68</ele>
        <time>2022-07-14T06:02:22Z</time>
      </trkpt>
      <trkpt lat="44.10872" lon="2.70004">
        <ele>743.72</ele>
        <time>2022-07-14T06:02:28Z</time>
      </trkpt>
      <trkpt lat="44.10875" lon="2.69991">
        <ele>742.28</ele>
        <time>2022-07-14T06:02:34Z</time>
      </trkpt>
      <trkpt lat="44.10879" lon="2.69978">
        <ele>740.83</ele>
        <time>2022-07-14T06:02:40Z</time>
      </trkpt>
      <trkpt lat="44.10882" lon="2.69962">
        <ele>738.91</ele>
        <time>2022-07-14T06:02:48Z</time>
      </trkpt>
      <trkpt lat="44.10888" lon="2.6995">
        <ele>736.99</ele>
        <time>2022-07-14T06:02:57Z</time>
      </trkpt>
      <trkpt lat="44.10903" lon="2.69944">
        <ele>734.1</ele>
        <time>2022-07-14T06:03:07Z</time>
      </trkpt>
      <trkpt lat="44.10917" lon="2.69939">
        <ele>732.66</ele>
        <time>2022-07-14T06:03:14Z</time>
      </trkpt>
      <trkpt lat="44.1093" lon="2.6994">
        <ele>732.18</ele>
        <time>2022-07-14T06:03:21Z</time>
      </trkpt>
      <trkpt lat="44.10941" lon="2.69941">
        <ele>731.22</ele>
        <time>2022-07-14T06:03:28Z</time>
      </trkpt>
      <trkpt lat="44.10954" lon="2.69943">
        <ele>731.22</ele>
        <time>2022-07-14T06:03:36Z</time>
      </trkpt>
      <trkpt lat="44.10968" lon="2.69947">
        <ele>731.7</ele>
        <time>2022-07-14T06:03:43Z</time>
      </trkpt>
      <trkpt lat="44.10978" lon="2.6995">
        <ele>730.26</ele>
        <time>2022-07-14T06:03:52Z</time>
      </trkpt>
      <trkpt lat="44.10989" lon="2.69953">
        <ele>729.78</ele>
        <time>2022-07-14T06:03:59Z</time>
      </trkpt>
      <trkpt lat="44.11001" lon="2.69958">
        <ele>729.78</ele>
        <time>2022-07-14T06:04:06Z</time>
      </trkpt>
      <trkpt lat="44.11015" lon="2.69967">
        <ele>729.78</ele>
        <time>2022-07-14T06:04:14Z</time>
      </trkpt>
      <trkpt lat="44.11024" lon="2.69976">
        <ele>728.34</ele>
        <time>2022-07-14T06:04:21Z</time>
      </trkpt>
      <trkpt lat="44.11033" lon="2.69986">
        <ele>727.37</ele>
        <time>2022-07-14T06:04:30Z</time>
      </trkpt>
      <trkpt lat="44.11041" lon="2.70001">
        <ele>727.37</ele>
        <time>2022-07-14T06:04:39Z</time>
      </trkpt>
      <trkpt lat="44.11049" lon="2.70013">
        <ele>726.41</ele>
        <time>2022-07-14T06:04:47Z</time>
      </trkpt>
      <trkpt lat="44.11058" lon="2.70028">
        <ele>726.41</ele>
        <time>2022-07-14T06:04:56Z</time>
      </trkpt>
      <trkpt lat="44.1107" lon="2.70043">
        <ele>726.89</ele>
        <time>2022-07-14T06:05:05Z</time>
      </trkpt>
      <trkpt lat="44.11083" lon="2.70048">
        <ele>726.41</ele>
        <time>2022-07-14T06:05:12Z</time>
      </trkpt>
      <trkpt lat="44.11094" lon="2.7005">
        <ele>725.93</ele>
        <time>2022-07-14T06:05:19Z</time>
      </trkpt>
      <trkpt lat="44.11103" lon="2.70048">
        <ele>725.93</ele>
        <time>2022-07-14T06:05:26Z</time>
      </trkpt>
      <trkpt lat="44.11114" lon="2.70043">
        <ele>725.93</ele>
        <time>2022-07-14T06:05:33Z</time>
      </trkpt>
      <trkpt lat="44.11124" lon="2.70039">
        <ele>728.34</ele>
        <time>2022-07-14T06:05:39Z</time>
      </trkpt>
      <trkpt lat="44.11134" lon="2.70033">
        <ele>729.3</ele>
        <time>2022-07-14T06:05:46Z</time>
      </trkpt>
      <trkpt lat="44.11143" lon="2.70028">
        <ele>729.3</ele>
        <time>2022-07-14T06:05:53Z</time>
      </trkpt>
      <trkpt lat="44.11154" lon="2.70025">
        <ele>728.82</ele>
        <time>2022-07-14T06:06:04Z</time>
      </trkpt>
      <trkpt lat="44.11163" lon="2.70024">
        <ele>727.86</ele>
        <time>2022-07-14T06:06:12Z</time>
      </trkpt>
      <trkpt lat="44.11174" lon="2.70021">
        <ele>727.37</ele>
        <time>2022-07-14T06:06:19Z</time>
      </trkpt>
      <trkpt lat="44.11182" lon="2.70013">
        <ele>728.34</ele>
        <time>2022-07-14T06:06:26Z</time>
      </trkpt>
      <trkpt lat="44.11191" lon="2.70008">
        <ele>728.34</ele>
        <time>2022-07-14T06:06:33Z</time>
      </trkpt>
      <trkpt lat="44.11199" lon="2.70002">
        <ele>728.82</ele>
        <time>2022-07-14T06:06:40Z</time>
      </trkpt>
      <trkpt lat="44.11211" lon="2.7">
        <ele>728.82</ele>
        <time>2022-07-14T06:06:47Z</time>
      </trkpt>
      <trkpt lat="44.11221" lon="2.69998">
        <ele>729.78</ele>
        <time>2022-07-14T06:06:54Z</time>
      </trkpt>
      <trkpt lat="44.11232" lon="2.69995">
        <ele>730.74</ele>
        <time>2022-07-14T06:07:01Z</time>
      </trkpt>
      <trkpt lat="44.11244" lon="2.69991">
        <ele>733.14</ele>
        <time>2022-07-14T06:07:08Z</time>
      </trkpt>
      <trkpt lat="44.11253" lon="2.69991">
        <ele>734.58</ele>
        <time>2022-07-14T06:07:15Z</time>
      </trkpt>
      <trkpt lat="44.11263" lon="2.69994">
        <ele>735.55</ele>
        <time>2022-07-14T06:07:24Z</time>
      </trkpt>
      <trkpt lat="44.11275" lon="2.70004">
        <ele>735.55</ele>
        <time>2022-07-14T06:07:33Z</time>
      </trkpt>
      <trkpt lat="44.11286" lon="2.70008">
        <ele>736.03</ele>
        <time>2022-07-14T06:07:41Z</time>
      </trkpt>
      <trkpt lat="44.113" lon="2.70013">
        <ele>736.03</ele>
        <time>2022-07-14T06:07:50Z</time>
      </trkpt>
      <trkpt lat="44.11309" lon="2.70026">
        <ele>735.55</ele>
        <time>2022-07-14T06:07:58Z</time>
      </trkpt>
      <trkpt lat="44.11316" lon="2.70037">
        <ele>734.58</ele>
        <time>2022-07-14T06:08:05Z</time>
      </trkpt>
      <trkpt lat="44.11323" lon="2.70047">
        <ele>734.1</ele>
        <time>2022-07-14T06:08:11Z</time>
      </trkpt>
      <trkpt lat="44.11331" lon="2.70056">
        <ele>734.1</ele>
        <time>2022-07-14T06:08:17Z</time>
      </trkpt>
      <trkpt lat="44.11339" lon="2.70067">
        <ele>734.1</ele>
        <time>2022-07-14T06:08:24Z</time>
      </trkpt>
      <trkpt lat="44.11347" lon="2.70078">
        <ele>735.07</ele>
        <time>2022-07-14T06:08:32Z</time>
      </trkpt>
      <trkpt lat="44.11358" lon="2.70089">
        <ele>736.03</ele>
        <time>2022-07-14T06:08:41Z</time>
      </trkpt>
      <trkpt lat="44.11369" lon="2.701">
        <ele>736.51</ele>
        <time>2022-07-14T06:08:51Z</time>
      </trkpt>
      <trkpt lat="44.11378" lon="2.7011">
        <ele>736.51</ele>
        <time>2022-07-14T06:09:00Z</time>
      </trkpt>
      <trkpt lat="44.11385" lon="2.70122">
        <ele>736.99</ele>
        <time>2022-07-14T06:09:08Z</time>
      </trkpt>
      <trkpt lat="44.11388" lon="2.70144">
        <ele>738.43</ele>
        <time>2022-07-14T06:09:22Z</time>
      </trkpt>
      <trkpt lat="44.11391" lon="2.70159">
        <ele>739.39</ele>
        <time>2022-07-14T06:09:29Z</time>
      </trkpt>
      <trkpt lat="44.11391" lon="2.70174">
        <ele>740.83</ele>
        <time>2022-07-14T06:09:36Z</time>
      </trkpt>
      <trkpt lat="44.11389" lon="2.70188">
        <ele>741.31</ele>
        <time>2022-07-14T06:09:44Z</time>
      </trkpt>
      <trkpt lat="44.11396" lon="2.70202">
        <ele>740.83</ele>
        <time>2022-07-14T06:09:51Z</time>
      </trkpt>
      <trkpt lat="44.11404" lon="2.70214">
        <ele>740.83</ele>
        <time>2022-07-14T06:09:58Z</time>
      </trkpt>
      <trkpt lat="44.11413" lon="2.70226">
        <ele>740.83</ele>
        <time>2022-07-14T06:10:05Z</time>
      </trkpt>
      <trkpt lat="44.11421" lon="2.7024">
        <ele>740.83</ele>
        <time>2022-07-14T06:10:13Z</time>
      </trkpt>
      <trkpt lat="44.11435" lon="2.70257">
        <ele>740.35</ele>
        <time>2022-07-14T06:10:25Z</time>
      </trkpt>
      <trkpt lat="44.11447" lon="2.70258">
        <ele>739.87</ele>
        <time>2022-07-14T06:10:32Z</time>
      </trkpt>
      <trkpt lat="44.11457" lon="2.70257">
        <ele>738.91</ele>
        <time>2022-07-14T06:10:39Z</time>
      </trkpt>
      <trkpt lat="44.11475" lon="2.70259">
        <ele>738.91</ele>
        <time>2022-07-14T06:10:53Z</time>
      </trkpt>
      <trkpt lat="44.11487" lon="2.70264">
        <ele>740.35</ele>
        <time>2022-07-14T06:11:03Z</time>
      </trkpt>
      <trkpt lat="44.115" lon="2.70267">
        <ele>740.83</ele>
        <time>2022-07-14T06:11:12Z</time>
      </trkpt>
      <trkpt lat="44.11516" lon="2.70271">
        <ele>742.28</ele>
        <time>2022-07-14T06:11:21Z</time>
      </trkpt>
      <trkpt lat="44.11546" lon="2.70285">
        <ele>743.72</ele>
        <time>2022-07-14T06:11:46Z</time>
      </trkpt>
      <trkpt lat="44.11566" lon="2.70293">
        <ele>746.12</ele>
        <time>2022-07-14T06:11:55Z</time>
      </trkpt>
      <trkpt lat="44.11584" lon="2.70303">
        <ele>749.97</ele>
        <time>2022-07-14T06:12:07Z</time>
      </trkpt>
      <trkpt lat="44.11628" lon="2.7032">
        <ele>757.18</ele>
        <time>2022-07-14T06:12:41Z</time>
      </trkpt>
      <trkpt lat="44.11642" lon="2.70324">
        <ele>760.54</ele>
        <time>2022-07-14T06:12:48Z</time>
      </trkpt>
      <trkpt lat="44.11657" lon="2.70334">
        <ele>764.39</ele>
        <time>2022-07-14T06:12:56Z</time>
      </trkpt>
      <trkpt lat="44.1167" lon="2.70341">
        <ele>766.79</ele>
        <time>2022-07-14T06:13:02Z</time>
      </trkpt>
      <trkpt lat="44.11681" lon="2.70347">
        <ele>768.71</ele>
        <time>2022-07-14T06:13:09Z</time>
      </trkpt>
      <trkpt lat="44.1169" lon="2.70353">
        <ele>770.63</ele>
        <time>2022-07-14T06:13:16Z</time>
      </trkpt>
      <trkpt lat="44.11701" lon="2.70358">
        <ele>773.04</ele>
        <time>2022-07-14T06:13:24Z</time>
      </trkpt>
      <trkpt lat="44.11712" lon="2.70362">
        <ele>775.44</ele>
        <time>2022-07-14T06:13:31Z</time>
      </trkpt>
      <trkpt lat="44.11723" lon="2.70363">
        <ele>778.81</ele>
        <time>2022-07-14T06:13:39Z</time>
      </trkpt>
      <trkpt lat="44.11734" lon="2.70364">
        <ele>781.21</ele>
        <time>2022-07-14T06:13:46Z</time>
      </trkpt>
      <trkpt lat="44.11744" lon="2.70369">
        <ele>784.09</ele>
        <time>2022-07-14T06:13:54Z</time>
      </trkpt>
      <trkpt lat="44.11756" lon="2.70369">
        <ele>785.05</ele>
        <time>2022-07-14T06:14:02Z</time>
      </trkpt>
      <trkpt lat="44.11767" lon="2.70366">
        <ele>786.02</ele>
        <time>2022-07-14T06:14:09Z</time>
      </trkpt>
      <trkpt lat="44.11778" lon="2.70362">
        <ele>787.46</ele>
        <time>2022-07-14T06:14:17Z</time>
      </trkpt>
      <trkpt lat="44.11844" lon="2.70337">
        <ele>784.57</ele>
        <time>2022-07-14T06:15:08Z</time>
      </trkpt>
      <trkpt lat="44.11909" lon="2.70342">
        <ele>789.38</ele>
        <time>2022-07-14T06:15:48Z</time>
      </trkpt>
      <trkpt lat="44.11927" lon="2.70349">
        <ele>791.78</ele>
        <time>2022-07-14T06:15:57Z</time>
      </trkpt>
      <trkpt lat="44.11938" lon="2.70357">
        <ele>792.74</ele>
        <time>2022-07-14T06:16:06Z</time>
      </trkpt>
      <trkpt lat="44.11957" lon="2.70352">
        <ele>801.88</ele>
        <time>2022-07-14T06:16:40Z</time>
      </trkpt>
      <trkpt lat="44.11966" lon="2.70348">
        <ele>802.36</ele>
        <time>2022-07-14T06:16:47Z</time>
      </trkpt>
      <trkpt lat="44.11976" lon="2.70347">
        <ele>803.32</ele>
        <time>2022-07-14T06:16:55Z</time>
      </trkpt>
      <trkpt lat="44.11986" lon="2.70348">
        <ele>803.8</ele>
        <time>2022-07-14T06:17:03Z</time>
      </trkpt>
      <trkpt lat="44.11997" lon="2.70346">
        <ele>804.28</ele>
        <time>2022-07-14T06:17:11Z</time>
      </trkpt>
      <trkpt lat="44.12007" lon="2.70342">
        <ele>803.8</ele>
        <time>2022-07-14T06:17:18Z</time>
      </trkpt>
      <trkpt lat="44.12018" lon="2.7034">
        <ele>803.8</ele>
        <time>2022-07-14T06:17:25Z</time>
      </trkpt>
      <trkpt lat="44.12029" lon="2.70337">
        <ele>803.32</ele>
        <time>2022-07-14T06:17:32Z</time>
      </trkpt>
      <trkpt lat="44.12039" lon="2.70335">
        <ele>802.36</ele>
        <time>2022-07-14T06:17:39Z</time>
      </trkpt>
      <trkpt lat="44.12049" lon="2.70331">
        <ele>801.4</ele>
        <time>2022-07-14T06:17:46Z</time>
      </trkpt>
      <trkpt lat="44.12061" lon="2.70329">
        <ele>799.95</ele>
        <time>2022-07-14T06:17:54Z</time>
      </trkpt>
      <trkpt lat="44.1207" lon="2.70335">
        <ele>798.99</ele>
        <time>2022-07-14T06:18:03Z</time>
      </trkpt>
      <trkpt lat="44.12077" lon="2.70345">
        <ele>799.95</ele>
        <time>2022-07-14T06:18:11Z</time>
      </trkpt>
      <trkpt lat="44.12077" lon="2.70358">
        <ele>800.92</ele>
        <time>2022-07-14T06:18:20Z</time>
      </trkpt>
      <trkpt lat="44.12069" lon="2.70365">
        <ele>801.88</ele>
        <time>2022-07-14T06:18:26Z</time>
      </trkpt>
      <trkpt lat="44.1206" lon="2.70371">
        <ele>803.32</ele>
        <time>2022-07-14T06:18:34Z</time>
      </trkpt>
      <trkpt lat="44.12041" lon="2.7041">
        <ele>800.44</ele>
        <time>2022-07-14T06:19:03Z</time>
      </trkpt>
      <trkpt lat="44.12042" lon="2.70429">
        <ele>797.55</ele>
        <time>2022-07-14T06:19:12Z</time>
      </trkpt>
      <trkpt lat="44.12045" lon="2.70445">
        <ele>797.07</ele>
        <time>2022-07-14T06:19:20Z</time>
      </trkpt>
      <trkpt lat="44.12053" lon="2.70468">
        <ele>795.63</ele>
        <time>2022-07-14T06:19:34Z</time>
      </trkpt>
      <trkpt lat="44.12065" lon="2.70487">
        <ele>794.67</ele>
        <time>2022-07-14T06:19:48Z</time>
      </trkpt>
      <trkpt lat="44.12118" lon="2.70541">
        <ele>795.63</ele>
        <time>2022-07-14T06:20:37Z</time>
      </trkpt>
      <trkpt lat="44.12148" lon="2.70553">
        <ele>797.55</ele>
        <time>2022-07-14T06:20:50Z</time>
      </trkpt>
      <trkpt lat="44.12165" lon="2.70553">
        <ele>797.55</ele>
        <time>2022-07-14T06:20:54Z</time>
      </trkpt>
      <trkpt lat="44.1218" lon="2.70553">
        <ele>798.51</ele>
        <time>2022-07-14T06:20:58Z</time>
      </trkpt>
      <trkpt lat="44.12192" lon="2.70552">
        <ele>799.47</ele>
        <time>2022-07-14T06:21:01Z</time>
      </trkpt>
      <trkpt lat="44.12202" lon="2.70552">
        <ele>801.4</ele>
        <time>2022-07-14T06:21:04Z</time>
      </trkpt>
      <trkpt lat="44.12216" lon="2.70551">
        <ele>803.32</ele>
        <time>2022-07-14T06:21:08Z</time>
      </trkpt>
      <trkpt lat="44.12229" lon="2.7055">
        <ele>805.72</ele>
        <time>2022-07-14T06:21:12Z</time>
      </trkpt>
      <trkpt lat="44.12244" lon="2.70547">
        <ele>807.64</ele>
        <time>2022-07-14T06:21:16Z</time>
      </trkpt>
      <trkpt lat="44.12255" lon="2.70543">
        <ele>808.61</ele>
        <time>2022-07-14T06:21:19Z</time>
      </trkpt>
      <trkpt lat="44.12265" lon="2.70539">
        <ele>810.05</ele>
        <time>2022-07-14T06:21:22Z</time>
      </trkpt>
      <trkpt lat="44.12277" lon="2.70535">
        <ele>811.49</ele>
        <time>2022-07-14T06:21:26Z</time>
      </trkpt>
      <trkpt lat="44.12287" lon="2.70529">
        <ele>812.45</ele>
        <time>2022-07-14T06:21:30Z</time>
      </trkpt>
      <trkpt lat="44.12298" lon="2.70523">
        <ele>814.85</ele>
        <time>2022-07-14T06:21:37Z</time>
      </trkpt>
      <trkpt lat="44.12312" lon="2.70519">
        <ele>817.26</ele>
        <time>2022-07-14T06:21:44Z</time>
      </trkpt>
      <trkpt lat="44.12325" lon="2.70513">
        <ele>821.58</ele>
        <time>2022-07-14T06:21:52Z</time>
      </trkpt>
      <trkpt lat="44.12336" lon="2.70509">
        <ele>825.43</ele>
        <time>2022-07-14T06:22:01Z</time>
      </trkpt>
      <trkpt lat="44.12348" lon="2.70506">
        <ele>828.31</ele>
        <time>2022-07-14T06:22:10Z</time>
      </trkpt>
      <trkpt lat="44.1236" lon="2.70502">
        <ele>831.2</ele>
        <time>2022-07-14T06:22:18Z</time>
      </trkpt>
      <trkpt lat="44.12376" lon="2.70499">
        <ele>834.56</ele>
        <time>2022-07-14T06:22:27Z</time>
      </trkpt>
      <trkpt lat="44.12387" lon="2.70495">
        <ele>836.96</ele>
        <time>2022-07-14T06:22:36Z</time>
      </trkpt>
      <trkpt lat="44.124" lon="2.70493">
        <ele>837.93</ele>
        <time>2022-07-14T06:22:44Z</time>
      </trkpt>
      <trkpt lat="44.12414" lon="2.70492">
        <ele>838.41</ele>
        <time>2022-07-14T06:22:51Z</time>
      </trkpt>
      <trkpt lat="44.12426" lon="2.70492">
        <ele>837.45</ele>
        <time>2022-07-14T06:22:58Z</time>
      </trkpt>
      <trkpt lat="44.12445" lon="2.70492">
        <ele>834.56</ele>
        <time>2022-07-14T06:23:11Z</time>
      </trkpt>
      <trkpt lat="44.12465" lon="2.70493">
        <ele>832.64</ele>
        <time>2022-07-14T06:23:26Z</time>
      </trkpt>
      <trkpt lat="44.12475" lon="2.70488">
        <ele>832.16</ele>
        <time>2022-07-14T06:23:34Z</time>
      </trkpt>
      <trkpt lat="44.12488" lon="2.70495">
        <ele>836</ele>
        <time>2022-07-14T06:23:42Z</time>
      </trkpt>
      <trkpt lat="44.12502" lon="2.70501">
        <ele>840.81</ele>
        <time>2022-07-14T06:23:53Z</time>
      </trkpt>
      <trkpt lat="44.12512" lon="2.70508">
        <ele>844.66</ele>
        <time>2022-07-14T06:24:03Z</time>
      </trkpt>
      <trkpt lat="44.12523" lon="2.70512">
        <ele>846.58</ele>
        <time>2022-07-14T06:24:12Z</time>
      </trkpt>
      <trkpt lat="44.1254" lon="2.70514">
        <ele>848.98</ele>
        <time>2022-07-14T06:24:26Z</time>
      </trkpt>
      <trkpt lat="44.1256" lon="2.70516">
        <ele>849.94</ele>
        <time>2022-07-14T06:24:33Z</time>
      </trkpt>
      <trkpt lat="44.12585" lon="2.70522">
        <ele>850.9</ele>
        <time>2022-07-14T06:24:39Z</time>
      </trkpt>
      <trkpt lat="44.12602" lon="2.70527">
        <ele>848.5</ele>
        <time>2022-07-14T06:24:45Z</time>
      </trkpt>
      <trkpt lat="44.12626" lon="2.70528">
        <ele>847.06</ele>
        <time>2022-07-14T06:24:57Z</time>
      </trkpt>
      <trkpt lat="44.12645" lon="2.70524">
        <ele>844.66</ele>
        <time>2022-07-14T06:25:09Z</time>
      </trkpt>
      <trkpt lat="44.12657" lon="2.70523">
        <ele>844.66</ele>
        <time>2022-07-14T06:25:18Z</time>
      </trkpt>
      <trkpt lat="44.12677" lon="2.70499">
        <ele>842.73</ele>
        <time>2022-07-14T06:25:44Z</time>
      </trkpt>
      <trkpt lat="44.12675" lon="2.70477">
        <ele>843.21</ele>
        <time>2022-07-14T06:25:54Z</time>
      </trkpt>
      <trkpt lat="44.12675" lon="2.70446">
        <ele>842.25</ele>
        <time>2022-07-14T06:26:05Z</time>
      </trkpt>
      <trkpt lat="44.12674" lon="2.70427">
        <ele>841.29</ele>
        <time>2022-07-14T06:26:12Z</time>
      </trkpt>
      <trkpt lat="44.12674" lon="2.7041">
        <ele>841.29</ele>
        <time>2022-07-14T06:26:18Z</time>
      </trkpt>
      <trkpt lat="44.12681" lon="2.70395">
        <ele>840.33</ele>
        <time>2022-07-14T06:26:26Z</time>
      </trkpt>
      <trkpt lat="44.12692" lon="2.70386">
        <ele>841.29</ele>
        <time>2022-07-14T06:26:33Z</time>
      </trkpt>
      <trkpt lat="44.12706" lon="2.70378">
        <ele>841.29</ele>
        <time>2022-07-14T06:26:38Z</time>
      </trkpt>
      <trkpt lat="44.12721" lon="2.70367">
        <ele>843.21</ele>
        <time>2022-07-14T06:26:46Z</time>
      </trkpt>
      <trkpt lat="44.12735" lon="2.70358">
        <ele>845.62</ele>
        <time>2022-07-14T06:26:54Z</time>
      </trkpt>
      <trkpt lat="44.12749" lon="2.70356">
        <ele>847.06</ele>
        <time>2022-07-14T06:27:00Z</time>
      </trkpt>
      <trkpt lat="44.12763" lon="2.70357">
        <ele>848.98</ele>
        <time>2022-07-14T06:27:08Z</time>
      </trkpt>
      <trkpt lat="44.12812" lon="2.70351">
        <ele>851.38</ele>
        <time>2022-07-14T06:27:46Z</time>
      </trkpt>
      <trkpt lat="44.12834" lon="2.70344">
        <ele>853.79</ele>
        <time>2022-07-14T06:27:55Z</time>
      </trkpt>
      <trkpt lat="44.1301" lon="2.70299">
        <ele>869.65</ele>
        <time>2022-07-14T06:30:05Z</time>
      </trkpt>
      <trkpt lat="44.13036" lon="2.70263">
        <ele>871.09</ele>
        <time>2022-07-14T06:30:30Z</time>
      </trkpt>
      <trkpt lat="44.13045" lon="2.7025">
        <ele>870.13</ele>
        <time>2022-07-14T06:30:40Z</time>
      </trkpt>
      <trkpt lat="44.13066" lon="2.7023">
        <ele>874.94</ele>
        <time>2022-07-14T06:30:54Z</time>
      </trkpt>
      <trkpt lat="44.13082" lon="2.7023">
        <ele>879.74</ele>
        <time>2022-07-14T06:34:02Z</time>
      </trkpt>
      <trkpt lat="44.13094" lon="2.70225">
        <ele>879.26</ele>
        <time>2022-07-14T06:34:09Z</time>
      </trkpt>
      <trkpt lat="44.13104" lon="2.70222">
        <ele>878.3</ele>
        <time>2022-07-14T06:34:16Z</time>
      </trkpt>
      <trkpt lat="44.13115" lon="2.7022">
        <ele>877.82</ele>
        <time>2022-07-14T06:34:24Z</time>
      </trkpt>
      <trkpt lat="44.13126" lon="2.70216">
        <ele>876.86</ele>
        <time>2022-07-14T06:34:31Z</time>
      </trkpt>
      <trkpt lat="44.13136" lon="2.70218">
        <ele>877.34</ele>
        <time>2022-07-14T06:34:38Z</time>
      </trkpt>
      <trkpt lat="44.13148" lon="2.70221">
        <ele>876.38</ele>
        <time>2022-07-14T06:34:46Z</time>
      </trkpt>
      <trkpt lat="44.13158" lon="2.70224">
        <ele>876.86</ele>
        <time>2022-07-14T06:34:53Z</time>
      </trkpt>
      <trkpt lat="44.1317" lon="2.70229">
        <ele>877.82</ele>
        <time>2022-07-14T06:35:01Z</time>
      </trkpt>
      <trkpt lat="44.13179" lon="2.70234">
        <ele>878.78</ele>
        <time>2022-07-14T06:35:09Z</time>
      </trkpt>
      <trkpt lat="44.1319" lon="2.70242">
        <ele>878.78</ele>
        <time>2022-07-14T06:35:16Z</time>
      </trkpt>
      <trkpt lat="44.132" lon="2.70251">
        <ele>879.26</ele>
        <time>2022-07-14T06:35:23Z</time>
      </trkpt>
      <trkpt lat="44.1321" lon="2.7026">
        <ele>880.22</ele>
        <time>2022-07-14T06:35:31Z</time>
      </trkpt>
      <trkpt lat="44.1322" lon="2.70269">
        <ele>881.19</ele>
        <time>2022-07-14T06:35:39Z</time>
      </trkpt>
      <trkpt lat="44.1323" lon="2.70272">
        <ele>882.15</ele>
        <time>2022-07-14T06:35:47Z</time>
      </trkpt>
      <trkpt lat="44.13241" lon="2.70272">
        <ele>882.15</ele>
        <time>2022-07-14T06:35:55Z</time>
      </trkpt>
      <trkpt lat="44.13252" lon="2.70269">
        <ele>882.63</ele>
        <time>2022-07-14T06:36:02Z</time>
      </trkpt>
      <trkpt lat="44.13263" lon="2.70262">
        <ele>882.63</ele>
        <time>2022-07-14T06:36:09Z</time>
      </trkpt>
      <trkpt lat="44.13273" lon="2.70253">
        <ele>883.11</ele>
        <time>2022-07-14T06:36:17Z</time>
      </trkpt>
      <trkpt lat="44.13282" lon="2.70245">
        <ele>883.59</ele>
        <time>2022-07-14T06:36:26Z</time>
      </trkpt>
      <trkpt lat="44.13284" lon="2.70222">
        <ele>885.03</ele>
        <time>2022-07-14T06:36:43Z</time>
      </trkpt>
      <trkpt lat="44.13279" lon="2.70209">
        <ele>885.51</ele>
        <time>2022-07-14T06:36:49Z</time>
      </trkpt>
      <trkpt lat="44.13276" lon="2.70197">
        <ele>885.51</ele>
        <time>2022-07-14T06:36:55Z</time>
      </trkpt>
      <trkpt lat="44.13274" lon="2.70184">
        <ele>885.51</ele>
        <time>2022-07-14T06:37:02Z</time>
      </trkpt>
      <trkpt lat="44.13269" lon="2.70168">
        <ele>886.47</ele>
        <time>2022-07-14T06:37:09Z</time>
      </trkpt>
      <trkpt lat="44.13265" lon="2.70156">
        <ele>886.47</ele>
        <time>2022-07-14T06:37:15Z</time>
      </trkpt>
      <trkpt lat="44.13262" lon="2.70143">
        <ele>886.95</ele>
        <time>2022-07-14T06:37:21Z</time>
      </trkpt>
      <trkpt lat="44.13257" lon="2.70128">
        <ele>887.43</ele>
        <time>2022-07-14T06:37:29Z</time>
      </trkpt>
      <trkpt lat="44.13255" lon="2.70112">
        <ele>887.43</ele>
        <time>2022-07-14T06:37:37Z</time>
      </trkpt>
      <trkpt lat="44.13247" lon="2.70097">
        <ele>887.43</ele>
        <time>2022-07-14T06:37:44Z</time>
      </trkpt>
      <trkpt lat="44.13241" lon="2.70084">
        <ele>887.43</ele>
        <time>2022-07-14T06:37:51Z</time>
      </trkpt>
      <trkpt lat="44.13239" lon="2.70067">
        <ele>887.43</ele>
        <time>2022-07-14T06:38:00Z</time>
      </trkpt>
      <trkpt lat="44.13226" lon="2.70046">
        <ele>887.91</ele>
        <time>2022-07-14T06:38:13Z</time>
      </trkpt>
      <trkpt lat="44.13212" lon="2.70035">
        <ele>888.88</ele>
        <time>2022-07-14T06:38:22Z</time>
      </trkpt>
      <trkpt lat="44.13199" lon="2.70027">
        <ele>891.28</ele>
        <time>2022-07-14T06:38:32Z</time>
      </trkpt>
      <trkpt lat="44.13181" lon="2.70014">
        <ele>891.76</ele>
        <time>2022-07-14T06:38:45Z</time>
      </trkpt>
      <trkpt lat="44.13166" lon="2.69996">
        <ele>890.32</ele>
        <time>2022-07-14T06:38:58Z</time>
      </trkpt>
      <trkpt lat="44.13155" lon="2.69981">
        <ele>890.8</ele>
        <time>2022-07-14T06:39:07Z</time>
      </trkpt>
      <trkpt lat="44.1314" lon="2.69962">
        <ele>891.76</ele>
        <time>2022-07-14T06:39:19Z</time>
      </trkpt>
      <trkpt lat="44.13132" lon="2.6995">
        <ele>893.68</ele>
        <time>2022-07-14T06:39:28Z</time>
      </trkpt>
      <trkpt lat="44.13126" lon="2.69924">
        <ele>901.85</ele>
        <time>2022-07-14T06:41:41Z</time>
      </trkpt>
      <trkpt lat="44.13117" lon="2.69915">
        <ele>902.82</ele>
        <time>2022-07-14T06:41:52Z</time>
      </trkpt>
      <trkpt lat="44.13125" lon="2.69898">
        <ele>907.62</ele>
        <time>2022-07-14T06:42:19Z</time>
      </trkpt>
      <trkpt lat="44.13138" lon="2.69906">
        <ele>909.06</ele>
        <time>2022-07-14T06:42:34Z</time>
      </trkpt>
      <trkpt lat="44.1315" lon="2.69903">
        <ele>911.47</ele>
        <time>2022-07-14T06:42:47Z</time>
      </trkpt>
      <trkpt lat="44.13166" lon="2.69909">
        <ele>916.27</ele>
        <time>2022-07-14T06:46:24Z</time>
      </trkpt>
      <trkpt lat="44.1318" lon="2.69928">
        <ele>916.75</ele>
        <time>2022-07-14T06:47:08Z</time>
      </trkpt>
      <trkpt lat="44.13189" lon="2.69937">
        <ele>915.79</ele>
        <time>2022-07-14T06:47:18Z</time>
      </trkpt>
      <trkpt lat="44.13198" lon="2.69943">
        <ele>914.83</ele>
        <time>2022-07-14T06:47:27Z</time>
      </trkpt>
      <trkpt lat="44.13206" lon="2.6995">
        <ele>914.35</ele>
        <time>2022-07-14T06:47:36Z</time>
      </trkpt>
      <trkpt lat="44.13216" lon="2.69972">
        <ele>912.91</ele>
        <time>2022-07-14T06:52:36Z</time>
      </trkpt>
      <trkpt lat="44.13219" lon="2.69992">
        <ele>910.99</ele>
        <time>2022-07-14T06:52:51Z</time>
      </trkpt>
      <trkpt lat="44.13235" lon="2.70038">
        <ele>905.22</ele>
        <time>2022-07-14T06:53:22Z</time>
      </trkpt>
      <trkpt lat="44.13241" lon="2.70054">
        <ele>901.85</ele>
        <time>2022-07-14T06:53:32Z</time>
      </trkpt>
      <trkpt lat="44.13261" lon="2.70099">
        <ele>895.12</ele>
        <time>2022-07-14T06:53:59Z</time>
      </trkpt>
      <trkpt lat="44.13268" lon="2.70116">
        <ele>895.61</ele>
        <time>2022-07-14T06:54:09Z</time>
      </trkpt>
      <trkpt lat="44.13279" lon="2.7013">
        <ele>899.45</ele>
        <time>2022-07-14T06:54:22Z</time>
      </trkpt>
      <trkpt lat="44.13291" lon="2.70142">
        <ele>899.45</ele>
        <time>2022-07-14T06:54:36Z</time>
      </trkpt>
      <trkpt lat="44.13296" lon="2.70156">
        <ele>899.93</ele>
        <time>2022-07-14T06:54:46Z</time>
      </trkpt>
      <trkpt lat="44.13302" lon="2.70177">
        <ele>899.45</ele>
        <time>2022-07-14T06:54:58Z</time>
      </trkpt>
      <trkpt lat="44.13307" lon="2.70196">
        <ele>899.93</ele>
        <time>2022-07-14T06:55:08Z</time>
      </trkpt>
      <trkpt lat="44.13319" lon="2.70211">
        <ele>898.97</ele>
        <time>2022-07-14T06:55:20Z</time>
      </trkpt>
      <trkpt lat="44.13326" lon="2.70224">
        <ele>895.61</ele>
        <time>2022-07-14T06:55:32Z</time>
      </trkpt>
      <trkpt lat="44.13335" lon="2.70236">
        <ele>894.64</ele>
        <time>2022-07-14T06:55:42Z</time>
      </trkpt>
      <trkpt lat="44.13368" lon="2.70266">
        <ele>890.8</ele>
        <time>2022-07-14T06:56:54Z</time>
      </trkpt>
      <trkpt lat="44.1338" lon="2.70278">
        <ele>886.47</ele>
        <time>2022-07-14T06:57:06Z</time>
      </trkpt>
      <trkpt lat="44.13424" lon="2.70297">
        <ele>879.74</ele>
        <time>2022-07-14T06:57:46Z</time>
      </trkpt>
      <trkpt lat="44.13434" lon="2.70296">
        <ele>878.3</ele>
        <time>2022-07-14T06:57:54Z</time>
      </trkpt>
      <trkpt lat="44.13447" lon="2.70293">
        <ele>877.82</ele>
        <time>2022-07-14T06:58:05Z</time>
      </trkpt>
      <trkpt lat="44.13455" lon="2.70285">
        <ele>875.9</ele>
        <time>2022-07-14T06:58:15Z</time>
      </trkpt>
      <trkpt lat="44.1346" lon="2.70274">
        <ele>874.46</ele>
        <time>2022-07-14T06:58:24Z</time>
      </trkpt>
      <trkpt lat="44.13472" lon="2.7027">
        <ele>874.46</ele>
        <time>2022-07-14T06:58:33Z</time>
      </trkpt>
      <trkpt lat="44.13483" lon="2.7027">
        <ele>872.53</ele>
        <time>2022-07-14T06:58:42Z</time>
      </trkpt>
      <trkpt lat="44.13492" lon="2.70277">
        <ele>872.05</ele>
        <time>2022-07-14T06:58:50Z</time>
      </trkpt>
      <trkpt lat="44.13502" lon="2.7028">
        <ele>872.05</ele>
        <time>2022-07-14T06:58:59Z</time>
      </trkpt>
      <trkpt lat="44.13513" lon="2.70278">
        <ele>872.05</ele>
        <time>2022-07-14T06:59:07Z</time>
      </trkpt>
      <trkpt lat="44.13524" lon="2.7028">
        <ele>873.01</ele>
        <time>2022-07-14T06:59:15Z</time>
      </trkpt>
      <trkpt lat="44.13533" lon="2.7028">
        <ele>872.53</ele>
        <time>2022-07-14T06:59:22Z</time>
      </trkpt>
      <trkpt lat="44.13543" lon="2.70279">
        <ele>872.53</ele>
        <time>2022-07-14T06:59:30Z</time>
      </trkpt>
      <trkpt lat="44.13554" lon="2.70278">
        <ele>873.98</ele>
        <time>2022-07-14T06:59:38Z</time>
      </trkpt>
      <trkpt lat="44.13564" lon="2.70276">
        <ele>873.01</ele>
        <time>2022-07-14T06:59:46Z</time>
      </trkpt>
      <trkpt lat="44.13574" lon="2.70275">
        <ele>872.05</ele>
        <time>2022-07-14T06:59:54Z</time>
      </trkpt>
      <trkpt lat="44.13585" lon="2.70279">
        <ele>870.61</ele>
        <time>2022-07-14T07:00:02Z</time>
      </trkpt>
      <trkpt lat="44.13595" lon="2.70278">
        <ele>870.61</ele>
        <time>2022-07-14T07:00:09Z</time>
      </trkpt>
      <trkpt lat="44.13604" lon="2.70275">
        <ele>870.13</ele>
        <time>2022-07-14T07:00:16Z</time>
      </trkpt>
      <trkpt lat="44.13614" lon="2.70273">
        <ele>869.65</ele>
        <time>2022-07-14T07:00:24Z</time>
      </trkpt>
      <trkpt lat="44.13624" lon="2.70273">
        <ele>868.69</ele>
        <time>2022-07-14T07:00:31Z</time>
      </trkpt>
      <trkpt lat="44.13634" lon="2.70267">
        <ele>868.21</ele>
        <time>2022-07-14T07:00:39Z</time>
      </trkpt>
      <trkpt lat="44.13643" lon="2.70263">
        <ele>866.77</ele>
        <time>2022-07-14T07:00:46Z</time>
      </trkpt>
      <trkpt lat="44.13653" lon="2.70258">
        <ele>865.8</ele>
        <time>2022-07-14T07:00:54Z</time>
      </trkpt>
      <trkpt lat="44.13661" lon="2.70253">
        <ele>864.84</ele>
        <time>2022-07-14T07:01:01Z</time>
      </trkpt>
      <trkpt lat="44.13672" lon="2.70248">
        <ele>864.36</ele>
        <time>2022-07-14T07:01:09Z</time>
      </trkpt>
      <trkpt lat="44.13682" lon="2.70242">
        <ele>864.36</ele>
        <time>2022-07-14T07:01:17Z</time>
      </trkpt>
      <trkpt lat="44.13692" lon="2.70236">
        <ele>863.4</ele>
        <time>2022-07-14T07:01:25Z</time>
      </trkpt>
      <trkpt lat="44.13703" lon="2.70231">
        <ele>862.92</ele>
        <time>2022-07-14T07:01:33Z</time>
      </trkpt>
      <trkpt lat="44.13713" lon="2.70227">
        <ele>862.92</ele>
        <time>2022-07-14T07:01:41Z</time>
      </trkpt>
      <trkpt lat="44.13723" lon="2.70223">
        <ele>862.92</ele>
        <time>2022-07-14T07:01:49Z</time>
      </trkpt>
      <trkpt lat="44.13733" lon="2.70225">
        <ele>862.92</ele>
        <time>2022-07-14T07:01:57Z</time>
      </trkpt>
      <trkpt lat="44.13745" lon="2.70227">
        <ele>862.92</ele>
        <time>2022-07-14T07:02:05Z</time>
      </trkpt>
      <trkpt lat="44.13755" lon="2.70235">
        <ele>862.92</ele>
        <time>2022-07-14T07:02:13Z</time>
      </trkpt>
      <trkpt lat="44.13764" lon="2.70246">
        <ele>863.4</ele>
        <time>2022-07-14T07:02:21Z</time>
      </trkpt>
      <trkpt lat="44.13765" lon="2.70262">
        <ele>862.92</ele>
        <time>2022-07-14T07:02:30Z</time>
      </trkpt>
      <trkpt lat="44.13767" lon="2.7028">
        <ele>863.88</ele>
        <time>2022-07-14T07:02:39Z</time>
      </trkpt>
      <trkpt lat="44.13767" lon="2.70281">
        <ele>860.04</ele>
        <time>2022-07-14T07:04:10Z</time>
      </trkpt>
      <trkpt lat="44.13768" lon="2.70301">
        <ele>859.08</ele>
        <time>2022-07-14T07:04:27Z</time>
      </trkpt>
      <trkpt lat="44.13777" lon="2.70309">
        <ele>860.04</ele>
        <time>2022-07-14T07:04:36Z</time>
      </trkpt>
      <trkpt lat="44.13788" lon="2.70305">
        <ele>861</ele>
        <time>2022-07-14T07:04:43Z</time>
      </trkpt>
      <trkpt lat="44.13797" lon="2.70299">
        <ele>861.96</ele>
        <time>2022-07-14T07:04:50Z</time>
      </trkpt>
      <trkpt lat="44.13805" lon="2.70292">
        <ele>863.4</ele>
        <time>2022-07-14T07:04:57Z</time>
      </trkpt>
      <trkpt lat="44.13813" lon="2.70286">
        <ele>863.88</ele>
        <time>2022-07-14T07:05:04Z</time>
      </trkpt>
      <trkpt lat="44.13822" lon="2.7028">
        <ele>864.36</ele>
        <time>2022-07-14T07:05:11Z</time>
      </trkpt>
      <trkpt lat="44.13831" lon="2.70274">
        <ele>864.84</ele>
        <time>2022-07-14T07:05:18Z</time>
      </trkpt>
      <trkpt lat="44.1384" lon="2.70269">
        <ele>865.32</ele>
        <time>2022-07-14T07:05:25Z</time>
      </trkpt>
      <trkpt lat="44.13849" lon="2.70267">
        <ele>866.29</ele>
        <time>2022-07-14T07:05:33Z</time>
      </trkpt>
      <trkpt lat="44.1386" lon="2.70266">
        <ele>867.25</ele>
        <time>2022-07-14T07:05:40Z</time>
      </trkpt>
      <trkpt lat="44.1387" lon="2.70265">
        <ele>867.73</ele>
        <time>2022-07-14T07:05:47Z</time>
      </trkpt>
      <trkpt lat="44.13881" lon="2.70264">
        <ele>868.21</ele>
        <time>2022-07-14T07:05:55Z</time>
      </trkpt>
      <trkpt lat="44.13892" lon="2.70263">
        <ele>868.69</ele>
        <time>2022-07-14T07:06:03Z</time>
      </trkpt>
      <trkpt lat="44.13902" lon="2.70262">
        <ele>869.17</ele>
        <time>2022-07-14T07:06:10Z</time>
      </trkpt>
      <trkpt lat="44.13912" lon="2.70263">
        <ele>870.13</ele>
        <time>2022-07-14T07:06:17Z</time>
      </trkpt>
      <trkpt lat="44.13922" lon="2.70264">
        <ele>870.61</ele>
        <time>2022-07-14T07:06:24Z</time>
      </trkpt>
      <trkpt lat="44.13932" lon="2.70267">
        <ele>871.09</ele>
        <time>2022-07-14T07:06:31Z</time>
      </trkpt>
      <trkpt lat="44.13942" lon="2.7027">
        <ele>871.57</ele>
        <time>2022-07-14T07:06:38Z</time>
      </trkpt>
      <trkpt lat="44.13952" lon="2.70272">
        <ele>872.05</ele>
        <time>2022-07-14T07:06:45Z</time>
      </trkpt>
      <trkpt lat="44.13962" lon="2.70275">
        <ele>872.53</ele>
        <time>2022-07-14T07:06:52Z</time>
      </trkpt>
      <trkpt lat="44.13974" lon="2.70277">
        <ele>872.53</ele>
        <time>2022-07-14T07:06:59Z</time>
      </trkpt>
      <trkpt lat="44.13985" lon="2.7028">
        <ele>872.53</ele>
        <time>2022-07-14T07:07:07Z</time>
      </trkpt>
      <trkpt lat="44.13994" lon="2.70287">
        <ele>873.01</ele>
        <time>2022-07-14T07:07:14Z</time>
      </trkpt>
      <trkpt lat="44.14003" lon="2.70299">
        <ele>873.98</ele>
        <time>2022-07-14T07:07:21Z</time>
      </trkpt>
      <trkpt lat="44.14007" lon="2.70313">
        <ele>874.46</ele>
        <time>2022-07-14T07:07:29Z</time>
      </trkpt>
      <trkpt lat="44.14012" lon="2.70329">
        <ele>874.94</ele>
        <time>2022-07-14T07:07:37Z</time>
      </trkpt>
      <trkpt lat="44.14014" lon="2.70346">
        <ele>874.94</ele>
        <time>2022-07-14T07:07:46Z</time>
      </trkpt>
      <trkpt lat="44.14019" lon="2.70364">
        <ele>876.38</ele>
        <time>2022-07-14T07:07:55Z</time>
      </trkpt>
      <trkpt lat="44.14023" lon="2.70379">
        <ele>876.86</ele>
        <time>2022-07-14T07:08:03Z</time>
      </trkpt>
      <trkpt lat="44.14038" lon="2.70394">
        <ele>877.34</ele>
        <time>2022-07-14T07:08:20Z</time>
      </trkpt>
      <trkpt lat="44.14051" lon="2.70397">
        <ele>878.78</ele>
        <time>2022-07-14T07:08:28Z</time>
      </trkpt>
      <trkpt lat="44.14062" lon="2.70401">
        <ele>879.74</ele>
        <time>2022-07-14T07:08:36Z</time>
      </trkpt>
      <trkpt lat="44.14072" lon="2.70405">
        <ele>879.74</ele>
        <time>2022-07-14T07:08:45Z</time>
      </trkpt>
      <trkpt lat="44.14081" lon="2.70411">
        <ele>881.19</ele>
        <time>2022-07-14T07:08:54Z</time>
      </trkpt>
      <trkpt lat="44.14093" lon="2.70421">
        <ele>884.55</ele>
        <time>2022-07-14T07:09:03Z</time>
      </trkpt>
      <trkpt lat="44.14101" lon="2.70432">
        <ele>885.03</ele>
        <time>2022-07-14T07:09:11Z</time>
      </trkpt>
      <trkpt lat="44.14111" lon="2.70443">
        <ele>885.51</ele>
        <time>2022-07-14T07:09:20Z</time>
      </trkpt>
      <trkpt lat="44.14121" lon="2.70454">
        <ele>886.47</ele>
        <time>2022-07-14T07:09:28Z</time>
      </trkpt>
      <trkpt lat="44.14134" lon="2.70466">
        <ele>887.91</ele>
        <time>2022-07-14T07:09:40Z</time>
      </trkpt>
      <trkpt lat="44.14146" lon="2.70473">
        <ele>888.4</ele>
        <time>2022-07-14T07:09:47Z</time>
      </trkpt>
      <trkpt lat="44.14157" lon="2.70479">
        <ele>889.36</ele>
        <time>2022-07-14T07:09:55Z</time>
      </trkpt>
      <trkpt lat="44.14168" lon="2.70483">
        <ele>890.32</ele>
        <time>2022-07-14T07:10:03Z</time>
      </trkpt>
      <trkpt lat="44.14182" lon="2.70492">
        <ele>887.91</ele>
        <time>2022-07-14T07:10:10Z</time>
      </trkpt>
      <trkpt lat="44.14193" lon="2.70497">
        <ele>883.11</ele>
        <time>2022-07-14T07:10:17Z</time>
      </trkpt>
      <trkpt lat="44.14204" lon="2.70498">
        <ele>881.67</ele>
        <time>2022-07-14T07:10:24Z</time>
      </trkpt>
      <trkpt lat="44.14216" lon="2.70497">
        <ele>879.74</ele>
        <time>2022-07-14T07:10:32Z</time>
      </trkpt>
      <trkpt lat="44.14226" lon="2.70493">
        <ele>879.26</ele>
        <time>2022-07-14T07:10:39Z</time>
      </trkpt>
      <trkpt lat="44.14234" lon="2.70481">
        <ele>879.26</ele>
        <time>2022-07-14T07:10:47Z</time>
      </trkpt>
      <trkpt lat="44.14239" lon="2.70467">
        <ele>879.26</ele>
        <time>2022-07-14T07:10:54Z</time>
      </trkpt>
      <trkpt lat="44.14243" lon="2.70454">
        <ele>878.78</ele>
        <time>2022-07-14T07:11:01Z</time>
      </trkpt>
      <trkpt lat="44.14245" lon="2.7044">
        <ele>878.3</ele>
        <time>2022-07-14T07:11:08Z</time>
      </trkpt>
      <trkpt lat="44.14247" lon="2.70425">
        <ele>878.3</ele>
        <time>2022-07-14T07:11:16Z</time>
      </trkpt>
      <trkpt lat="44.14246" lon="2.70412">
        <ele>878.3</ele>
        <time>2022-07-14T07:11:23Z</time>
      </trkpt>
      <trkpt lat="44.14247" lon="2.70397">
        <ele>878.78</ele>
        <time>2022-07-14T07:11:30Z</time>
      </trkpt>
      <trkpt lat="44.14246" lon="2.70382">
        <ele>878.3</ele>
        <time>2022-07-14T07:11:37Z</time>
      </trkpt>
      <trkpt lat="44.14245" lon="2.70367">
        <ele>878.3</ele>
        <time>2022-07-14T07:11:45Z</time>
      </trkpt>
      <trkpt lat="44.14246" lon="2.70352">
        <ele>877.82</ele>
        <time>2022-07-14T07:11:53Z</time>
      </trkpt>
      <trkpt lat="44.14247" lon="2.70337">
        <ele>877.34</ele>
        <time>2022-07-14T07:12:00Z</time>
      </trkpt>
      <trkpt lat="44.14247" lon="2.70322">
        <ele>876.86</ele>
        <time>2022-07-14T07:12:07Z</time>
      </trkpt>
      <trkpt lat="44.14245" lon="2.70308">
        <ele>876.86</ele>
        <time>2022-07-14T07:12:14Z</time>
      </trkpt>
      <trkpt lat="44.14245" lon="2.70293">
        <ele>876.38</ele>
        <time>2022-07-14T07:12:21Z</time>
      </trkpt>
      <trkpt lat="44.14252" lon="2.70287">
        <ele>878.78</ele>
        <time>2022-07-14T07:12:29Z</time>
      </trkpt>
      <trkpt lat="44.14261" lon="2.70282">
        <ele>879.74</ele>
        <time>2022-07-14T07:12:36Z</time>
      </trkpt>
      <trkpt lat="44.1427" lon="2.70275">
        <ele>880.71</ele>
        <time>2022-07-14T07:12:44Z</time>
      </trkpt>
      <trkpt lat="44.14279" lon="2.70267">
        <ele>881.67</ele>
        <time>2022-07-14T07:12:51Z</time>
      </trkpt>
      <trkpt lat="44.14286" lon="2.70255">
        <ele>883.59</ele>
        <time>2022-07-14T07:12:59Z</time>
      </trkpt>
      <trkpt lat="44.14296" lon="2.70246">
        <ele>885.51</ele>
        <time>2022-07-14T07:13:09Z</time>
      </trkpt>
      <trkpt lat="44.14309" lon="2.70245">
        <ele>885.99</ele>
        <time>2022-07-14T07:13:18Z</time>
      </trkpt>
      <trkpt lat="44.14321" lon="2.70257">
        <ele>886.95</ele>
        <time>2022-07-14T07:13:29Z</time>
      </trkpt>
      <trkpt lat="44.14326" lon="2.70271">
        <ele>887.91</ele>
        <time>2022-07-14T07:13:37Z</time>
      </trkpt>
      <trkpt lat="44.14334" lon="2.70283">
        <ele>886.95</ele>
        <time>2022-07-14T07:13:44Z</time>
      </trkpt>
      <trkpt lat="44.14342" lon="2.70295">
        <ele>886.95</ele>
        <time>2022-07-14T07:13:51Z</time>
      </trkpt>
      <trkpt lat="44.1435" lon="2.70305">
        <ele>887.91</ele>
        <time>2022-07-14T07:13:58Z</time>
      </trkpt>
      <trkpt lat="44.14359" lon="2.70313">
        <ele>888.4</ele>
        <time>2022-07-14T07:14:05Z</time>
      </trkpt>
      <trkpt lat="44.1437" lon="2.70319">
        <ele>887.91</ele>
        <time>2022-07-14T07:14:13Z</time>
      </trkpt>
      <trkpt lat="44.14379" lon="2.70318">
        <ele>887.91</ele>
        <time>2022-07-14T07:14:20Z</time>
      </trkpt>
      <trkpt lat="44.14389" lon="2.70313">
        <ele>887.91</ele>
        <time>2022-07-14T07:14:28Z</time>
      </trkpt>
      <trkpt lat="44.14399" lon="2.7031">
        <ele>888.88</ele>
        <time>2022-07-14T07:14:35Z</time>
      </trkpt>
      <trkpt lat="44.14414" lon="2.70304">
        <ele>889.84</ele>
        <time>2022-07-14T07:14:47Z</time>
      </trkpt>
      <trkpt lat="44.14439" lon="2.70287">
        <ele>893.2</ele>
        <time>2022-07-14T07:15:04Z</time>
      </trkpt>
      <trkpt lat="44.14489" lon="2.70294">
        <ele>897.53</ele>
        <time>2022-07-14T07:15:38Z</time>
      </trkpt>
      <trkpt lat="44.14504" lon="2.7031">
        <ele>898.97</ele>
        <time>2022-07-14T07:15:52Z</time>
      </trkpt>
      <trkpt lat="44.14515" lon="2.70322">
        <ele>899.45</ele>
        <time>2022-07-14T07:16:01Z</time>
      </trkpt>
      <trkpt lat="44.1453" lon="2.70343">
        <ele>900.41</ele>
        <time>2022-07-14T07:16:15Z</time>
      </trkpt>
      <trkpt lat="44.14543" lon="2.7036">
        <ele>899.93</ele>
        <time>2022-07-14T07:16:27Z</time>
      </trkpt>
      <trkpt lat="44.14552" lon="2.70371">
        <ele>898.49</ele>
        <time>2022-07-14T07:16:36Z</time>
      </trkpt>
      <trkpt lat="44.14567" lon="2.70376">
        <ele>898.01</ele>
        <time>2022-07-14T07:16:45Z</time>
      </trkpt>
      <trkpt lat="44.14581" lon="2.70382">
        <ele>899.93</ele>
        <time>2022-07-14T07:16:54Z</time>
      </trkpt>
      <trkpt lat="44.14592" lon="2.70384">
        <ele>900.89</ele>
        <time>2022-07-14T07:17:02Z</time>
      </trkpt>
      <trkpt lat="44.14604" lon="2.70389">
        <ele>902.82</ele>
        <time>2022-07-14T07:17:10Z</time>
      </trkpt>
      <trkpt lat="44.14616" lon="2.70393">
        <ele>903.78</ele>
        <time>2022-07-14T07:17:18Z</time>
      </trkpt>
      <trkpt lat="44.14629" lon="2.70398">
        <ele>906.66</ele>
        <time>2022-07-14T07:17:27Z</time>
      </trkpt>
      <trkpt lat="44.14643" lon="2.70402">
        <ele>907.62</ele>
        <time>2022-07-14T07:17:36Z</time>
      </trkpt>
      <trkpt lat="44.14657" lon="2.70407">
        <ele>909.06</ele>
        <time>2022-07-14T07:17:44Z</time>
      </trkpt>
      <trkpt lat="44.14669" lon="2.70411">
        <ele>910.51</ele>
        <time>2022-07-14T07:17:53Z</time>
      </trkpt>
      <trkpt lat="44.14682" lon="2.70416">
        <ele>911.95</ele>
        <time>2022-07-14T07:18:01Z</time>
      </trkpt>
      <trkpt lat="44.14694" lon="2.70423">
        <ele>912.91</ele>
        <time>2022-07-14T07:18:10Z</time>
      </trkpt>
      <trkpt lat="44.14706" lon="2.70431">
        <ele>914.83</ele>
        <time>2022-07-14T07:18:19Z</time>
      </trkpt>
      <trkpt lat="44.14718" lon="2.70439">
        <ele>916.27</ele>
        <time>2022-07-14T07:18:28Z</time>
      </trkpt>
      <trkpt lat="44.14732" lon="2.70446">
        <ele>916.27</ele>
        <time>2022-07-14T07:18:37Z</time>
      </trkpt>
      <trkpt lat="44.14741" lon="2.70459">
        <ele>917.72</ele>
        <time>2022-07-14T07:18:45Z</time>
      </trkpt>
      <trkpt lat="44.14763" lon="2.7047">
        <ele>917.72</ele>
        <time>2022-07-14T07:19:00Z</time>
      </trkpt>
      <trkpt lat="44.14774" lon="2.7047">
        <ele>918.2</ele>
        <time>2022-07-14T07:19:07Z</time>
      </trkpt>
      <trkpt lat="44.14788" lon="2.70469">
        <ele>918.68</ele>
        <time>2022-07-14T07:19:12Z</time>
      </trkpt>
      <trkpt lat="44.14803" lon="2.70471">
        <ele>920.12</ele>
        <time>2022-07-14T07:19:21Z</time>
      </trkpt>
      <trkpt lat="44.14818" lon="2.70473">
        <ele>920.12</ele>
        <time>2022-07-14T07:19:30Z</time>
      </trkpt>
      <trkpt lat="44.14829" lon="2.70474">
        <ele>920.6</ele>
        <time>2022-07-14T07:19:37Z</time>
      </trkpt>
      <trkpt lat="44.1484" lon="2.70475">
        <ele>921.56</ele>
        <time>2022-07-14T07:19:44Z</time>
      </trkpt>
      <trkpt lat="44.14851" lon="2.70475">
        <ele>922.52</ele>
        <time>2022-07-14T07:19:50Z</time>
      </trkpt>
      <trkpt lat="44.14862" lon="2.70474">
        <ele>924.45</ele>
        <time>2022-07-14T07:19:57Z</time>
      </trkpt>
      <trkpt lat="44.14873" lon="2.70475">
        <ele>925.89</ele>
        <time>2022-07-14T07:20:04Z</time>
      </trkpt>
      <trkpt lat="44.14883" lon="2.70475">
        <ele>926.37</ele>
        <time>2022-07-14T07:20:11Z</time>
      </trkpt>
      <trkpt lat="44.14895" lon="2.70476">
        <ele>926.85</ele>
        <time>2022-07-14T07:20:18Z</time>
      </trkpt>
      <trkpt lat="44.14905" lon="2.70479">
        <ele>927.33</ele>
        <time>2022-07-14T07:20:25Z</time>
      </trkpt>
      <trkpt lat="44.14915" lon="2.70482">
        <ele>927.81</ele>
        <time>2022-07-14T07:20:32Z</time>
      </trkpt>
      <trkpt lat="44.14926" lon="2.70486">
        <ele>927.33</ele>
        <time>2022-07-14T07:20:39Z</time>
      </trkpt>
      <trkpt lat="44.14937" lon="2.7049">
        <ele>926.85</ele>
        <time>2022-07-14T07:20:46Z</time>
      </trkpt>
      <trkpt lat="44.14965" lon="2.705">
        <ele>925.41</ele>
        <time>2022-07-14T07:21:08Z</time>
      </trkpt>
      <trkpt lat="44.14975" lon="2.7051">
        <ele>925.41</ele>
        <time>2022-07-14T07:21:17Z</time>
      </trkpt>
      <trkpt lat="44.14978" lon="2.70531">
        <ele>927.33</ele>
        <time>2022-07-14T07:21:39Z</time>
      </trkpt>
      <trkpt lat="44.14978" lon="2.70546">
        <ele>927.81</ele>
        <time>2022-07-14T07:21:46Z</time>
      </trkpt>
      <trkpt lat="44.1498" lon="2.70559">
        <ele>927.81</ele>
        <time>2022-07-14T07:21:53Z</time>
      </trkpt>
      <trkpt lat="44.14982" lon="2.70572">
        <ele>926.85</ele>
        <time>2022-07-14T07:22:01Z</time>
      </trkpt>
      <trkpt lat="44.14982" lon="2.70585">
        <ele>926.85</ele>
        <time>2022-07-14T07:22:08Z</time>
      </trkpt>
      <trkpt lat="44.14984" lon="2.70599">
        <ele>928.29</ele>
        <time>2022-07-14T07:22:15Z</time>
      </trkpt>
      <trkpt lat="44.14983" lon="2.70612">
        <ele>930.69</ele>
        <time>2022-07-14T07:22:23Z</time>
      </trkpt>
      <trkpt lat="44.1498" lon="2.70625">
        <ele>931.17</ele>
        <time>2022-07-14T07:22:30Z</time>
      </trkpt>
      <trkpt lat="44.14976" lon="2.70639">
        <ele>931.65</ele>
        <time>2022-07-14T07:22:37Z</time>
      </trkpt>
      <trkpt lat="44.14973" lon="2.70651">
        <ele>932.62</ele>
        <time>2022-07-14T07:22:44Z</time>
      </trkpt>
      <trkpt lat="44.1497" lon="2.70665">
        <ele>932.62</ele>
        <time>2022-07-14T07:22:51Z</time>
      </trkpt>
      <trkpt lat="44.14966" lon="2.70677">
        <ele>932.62</ele>
        <time>2022-07-14T07:22:58Z</time>
      </trkpt>
      <trkpt lat="44.14962" lon="2.70691">
        <ele>933.1</ele>
        <time>2022-07-14T07:23:05Z</time>
      </trkpt>
      <trkpt lat="44.14959" lon="2.70707">
        <ele>933.58</ele>
        <time>2022-07-14T07:23:12Z</time>
      </trkpt>
      <trkpt lat="44.14955" lon="2.70721">
        <ele>933.58</ele>
        <time>2022-07-14T07:23:19Z</time>
      </trkpt>
      <trkpt lat="44.1495" lon="2.70734">
        <ele>934.54</ele>
        <time>2022-07-14T07:23:26Z</time>
      </trkpt>
      <trkpt lat="44.14945" lon="2.70746">
        <ele>936.46</ele>
        <time>2022-07-14T07:23:33Z</time>
      </trkpt>
      <trkpt lat="44.14942" lon="2.70757">
        <ele>936.94</ele>
        <time>2022-07-14T07:23:40Z</time>
      </trkpt>
      <trkpt lat="44.14937" lon="2.70769">
        <ele>938.38</ele>
        <time>2022-07-14T07:23:46Z</time>
      </trkpt>
      <trkpt lat="44.14934" lon="2.70781">
        <ele>938.86</ele>
        <time>2022-07-14T07:23:52Z</time>
      </trkpt>
      <trkpt lat="44.14929" lon="2.70793">
        <ele>940.31</ele>
        <time>2022-07-14T07:23:58Z</time>
      </trkpt>
      <trkpt lat="44.14925" lon="2.70804">
        <ele>940.31</ele>
        <time>2022-07-14T07:24:05Z</time>
      </trkpt>
      <trkpt lat="44.14923" lon="2.7082">
        <ele>940.31</ele>
        <time>2022-07-14T07:24:12Z</time>
      </trkpt>
      <trkpt lat="44.1492" lon="2.70835">
        <ele>940.31</ele>
        <time>2022-07-14T07:24:19Z</time>
      </trkpt>
      <trkpt lat="44.14918" lon="2.70848">
        <ele>940.79</ele>
        <time>2022-07-14T07:24:26Z</time>
      </trkpt>
      <trkpt lat="44.14916" lon="2.70864">
        <ele>940.79</ele>
        <time>2022-07-14T07:24:34Z</time>
      </trkpt>
      <trkpt lat="44.14914" lon="2.70878">
        <ele>941.27</ele>
        <time>2022-07-14T07:24:40Z</time>
      </trkpt>
      <trkpt lat="44.14912" lon="2.70891">
        <ele>941.75</ele>
        <time>2022-07-14T07:24:46Z</time>
      </trkpt>
      <trkpt lat="44.14909" lon="2.70906">
        <ele>941.75</ele>
        <time>2022-07-14T07:24:53Z</time>
      </trkpt>
      <trkpt lat="44.14905" lon="2.70921">
        <ele>942.23</ele>
        <time>2022-07-14T07:24:57Z</time>
      </trkpt>
      <trkpt lat="44.14901" lon="2.70934">
        <ele>943.19</ele>
        <time>2022-07-14T07:25:00Z</time>
      </trkpt>
      <trkpt lat="44.14896" lon="2.70947">
        <ele>943.67</ele>
        <time>2022-07-14T07:25:03Z</time>
      </trkpt>
      <trkpt lat="44.1489" lon="2.70961">
        <ele>944.63</ele>
        <time>2022-07-14T07:25:06Z</time>
      </trkpt>
      <trkpt lat="44.14884" lon="2.70975">
        <ele>945.11</ele>
        <time>2022-07-14T07:25:09Z</time>
      </trkpt>
      <trkpt lat="44.14877" lon="2.70991">
        <ele>946.07</ele>
        <time>2022-07-14T07:25:12Z</time>
      </trkpt>
      <trkpt lat="44.14872" lon="2.71004">
        <ele>946.56</ele>
        <time>2022-07-14T07:25:14Z</time>
      </trkpt>
      <trkpt lat="44.14866" lon="2.71018">
        <ele>947.04</ele>
        <time>2022-07-14T07:25:16Z</time>
      </trkpt>
      <trkpt lat="44.1486" lon="2.71032">
        <ele>947.52</ele>
        <time>2022-07-14T07:25:18Z</time>
      </trkpt>
      <trkpt lat="44.14854" lon="2.71046">
        <ele>948.48</ele>
        <time>2022-07-14T07:25:20Z</time>
      </trkpt>
      <trkpt lat="44.14848" lon="2.7106">
        <ele>948.48</ele>
        <time>2022-07-14T07:25:22Z</time>
      </trkpt>
      <trkpt lat="44.14841" lon="2.71076">
        <ele>948.96</ele>
        <time>2022-07-14T07:25:24Z</time>
      </trkpt>
      <trkpt lat="44.14835" lon="2.71089">
        <ele>949.44</ele>
        <time>2022-07-14T07:25:26Z</time>
      </trkpt>
      <trkpt lat="44.1483" lon="2.71101">
        <ele>949.44</ele>
        <time>2022-07-14T07:25:28Z</time>
      </trkpt>
      <trkpt lat="44.14824" lon="2.71111">
        <ele>949.44</ele>
        <time>2022-07-14T07:25:31Z</time>
      </trkpt>
      <trkpt lat="44.14819" lon="2.71121">
        <ele>949.92</ele>
        <time>2022-07-14T07:25:38Z</time>
      </trkpt>
      <trkpt lat="44.14815" lon="2.71132">
        <ele>950.4</ele>
        <time>2022-07-14T07:25:45Z</time>
      </trkpt>
      <trkpt lat="44.14809" lon="2.71144">
        <ele>950.88</ele>
        <time>2022-07-14T07:25:52Z</time>
      </trkpt>
      <trkpt lat="44.14802" lon="2.71157">
        <ele>950.88</ele>
        <time>2022-07-14T07:25:58Z</time>
      </trkpt>
      <trkpt lat="44.14793" lon="2.71172">
        <ele>951.36</ele>
        <time>2022-07-14T07:26:01Z</time>
      </trkpt>
      <trkpt lat="44.14784" lon="2.71185">
        <ele>951.36</ele>
        <time>2022-07-14T07:26:03Z</time>
      </trkpt>
      <trkpt lat="44.14775" lon="2.71198">
        <ele>951.84</ele>
        <time>2022-07-14T07:26:05Z</time>
      </trkpt>
      <trkpt lat="44.14766" lon="2.7121">
        <ele>952.32</ele>
        <time>2022-07-14T07:26:07Z</time>
      </trkpt>
      <trkpt lat="44.14756" lon="2.71223">
        <ele>952.32</ele>
        <time>2022-07-14T07:26:09Z</time>
      </trkpt>
      <trkpt lat="44.14747" lon="2.71234">
        <ele>952.8</ele>
        <time>2022-07-14T07:26:11Z</time>
      </trkpt>
      <trkpt lat="44.1474" lon="2.71244">
        <ele>953.28</ele>
        <time>2022-07-14T07:26:13Z</time>
      </trkpt>
      <trkpt lat="44.14733" lon="2.71252">
        <ele>953.77</ele>
        <time>2022-07-14T07:26:15Z</time>
      </trkpt>
      <trkpt lat="44.14726" lon="2.7126">
        <ele>953.77</ele>
        <time>2022-07-14T07:26:18Z</time>
      </trkpt>
      <trkpt lat="44.1472" lon="2.71268">
        <ele>954.25</ele>
        <time>2022-07-14T07:26:24Z</time>
      </trkpt>
      <trkpt lat="44.14716" lon="2.71275">
        <ele>953.77</ele>
        <time>2022-07-14T07:26:30Z</time>
      </trkpt>
      <trkpt lat="44.14709" lon="2.71283">
        <ele>953.28</ele>
        <time>2022-07-14T07:26:36Z</time>
      </trkpt>
      <trkpt lat="44.14703" lon="2.71291">
        <ele>953.28</ele>
        <time>2022-07-14T07:26:42Z</time>
      </trkpt>
      <trkpt lat="44.14696" lon="2.713">
        <ele>953.77</ele>
        <time>2022-07-14T07:26:48Z</time>
      </trkpt>
      <trkpt lat="44.14689" lon="2.71309">
        <ele>954.25</ele>
        <time>2022-07-14T07:26:55Z</time>
      </trkpt>
      <trkpt lat="44.1468" lon="2.71318">
        <ele>954.25</ele>
        <time>2022-07-14T07:27:02Z</time>
      </trkpt>
      <trkpt lat="44.14672" lon="2.71328">
        <ele>954.25</ele>
        <time>2022-07-14T07:27:09Z</time>
      </trkpt>
      <trkpt lat="44.14664" lon="2.71336">
        <ele>954.25</ele>
        <time>2022-07-14T07:27:15Z</time>
      </trkpt>
      <trkpt lat="44.14656" lon="2.71343">
        <ele>954.73</ele>
        <time>2022-07-14T07:27:22Z</time>
      </trkpt>
      <trkpt lat="44.14648" lon="2.71352">
        <ele>955.21</ele>
        <time>2022-07-14T07:27:29Z</time>
      </trkpt>
      <trkpt lat="44.1464" lon="2.71363">
        <ele>955.69</ele>
        <time>2022-07-14T07:27:36Z</time>
      </trkpt>
      <trkpt lat="44.14632" lon="2.71373">
        <ele>956.65</ele>
        <time>2022-07-14T07:27:43Z</time>
      </trkpt>
      <trkpt lat="44.14625" lon="2.71384">
        <ele>957.13</ele>
        <time>2022-07-14T07:27:50Z</time>
      </trkpt>
      <trkpt lat="44.14617" lon="2.71393">
        <ele>957.13</ele>
        <time>2022-07-14T07:27:57Z</time>
      </trkpt>
      <trkpt lat="44.14609" lon="2.71402">
        <ele>956.65</ele>
        <time>2022-07-14T07:28:04Z</time>
      </trkpt>
      <trkpt lat="44.14602" lon="2.7141">
        <ele>956.17</ele>
        <time>2022-07-14T07:28:10Z</time>
      </trkpt>
      <trkpt lat="44.14595" lon="2.71419">
        <ele>955.69</ele>
        <time>2022-07-14T07:28:16Z</time>
      </trkpt>
      <trkpt lat="44.14587" lon="2.71429">
        <ele>955.69</ele>
        <time>2022-07-14T07:28:23Z</time>
      </trkpt>
      <trkpt lat="44.14578" lon="2.71439">
        <ele>955.69</ele>
        <time>2022-07-14T07:28:31Z</time>
      </trkpt>
      <trkpt lat="44.14569" lon="2.71448">
        <ele>956.17</ele>
        <time>2022-07-14T07:28:38Z</time>
      </trkpt>
      <trkpt lat="44.14559" lon="2.71455">
        <ele>956.17</ele>
        <time>2022-07-14T07:28:45Z</time>
      </trkpt>
      <trkpt lat="44.14551" lon="2.71463">
        <ele>956.17</ele>
        <time>2022-07-14T07:28:52Z</time>
      </trkpt>
      <trkpt lat="44.14542" lon="2.71472">
        <ele>956.17</ele>
        <time>2022-07-14T07:28:59Z</time>
      </trkpt>
      <trkpt lat="44.14534" lon="2.7148">
        <ele>956.17</ele>
        <time>2022-07-14T07:29:05Z</time>
      </trkpt>
      <trkpt lat="44.14526" lon="2.71489">
        <ele>956.17</ele>
        <time>2022-07-14T07:29:12Z</time>
      </trkpt>
      <trkpt lat="44.14517" lon="2.71498">
        <ele>955.69</ele>
        <time>2022-07-14T07:29:19Z</time>
      </trkpt>
      <trkpt lat="44.1451" lon="2.71507">
        <ele>955.69</ele>
        <time>2022-07-14T07:29:25Z</time>
      </trkpt>
      <trkpt lat="44.14502" lon="2.71514">
        <ele>956.17</ele>
        <time>2022-07-14T07:29:31Z</time>
      </trkpt>
      <trkpt lat="44.14494" lon="2.71525">
        <ele>956.65</ele>
        <time>2022-07-14T07:29:38Z</time>
      </trkpt>
      <trkpt lat="44.14482" lon="2.71534">
        <ele>961.46</ele>
        <time>2022-07-14T07:29:44Z</time>
      </trkpt>
      <trkpt lat="44.14474" lon="2.71544">
        <ele>961.94</ele>
        <time>2022-07-14T07:29:51Z</time>
      </trkpt>
      <trkpt lat="44.14466" lon="2.71551">
        <ele>961.46</ele>
        <time>2022-07-14T07:29:57Z</time>
      </trkpt>
      <trkpt lat="44.14458" lon="2.71559">
        <ele>961.46</ele>
        <time>2022-07-14T07:30:04Z</time>
      </trkpt>
      <trkpt lat="44.1445" lon="2.71567">
        <ele>960.98</ele>
        <time>2022-07-14T07:30:11Z</time>
      </trkpt>
      <trkpt lat="44.14443" lon="2.71576">
        <ele>960.98</ele>
        <time>2022-07-14T07:30:17Z</time>
      </trkpt>
      <trkpt lat="44.14435" lon="2.71585">
        <ele>960.98</ele>
        <time>2022-07-14T07:30:23Z</time>
      </trkpt>
      <trkpt lat="44.14428" lon="2.71595">
        <ele>960.98</ele>
        <time>2022-07-14T07:30:30Z</time>
      </trkpt>
      <trkpt lat="44.14421" lon="2.71603">
        <ele>960.98</ele>
        <time>2022-07-14T07:30:36Z</time>
      </trkpt>
      <trkpt lat="44.14413" lon="2.71612">
        <ele>960.98</ele>
        <time>2022-07-14T07:30:43Z</time>
      </trkpt>
      <trkpt lat="44.14407" lon="2.71622">
        <ele>960.49</ele>
        <time>2022-07-14T07:30:49Z</time>
      </trkpt>
      <trkpt lat="44.144" lon="2.71631">
        <ele>960.49</ele>
        <time>2022-07-14T07:30:55Z</time>
      </trkpt>
      <trkpt lat="44.14394" lon="2.71642">
        <ele>960.49</ele>
        <time>2022-07-14T07:31:01Z</time>
      </trkpt>
      <trkpt lat="44.14387" lon="2.71652">
        <ele>961.46</ele>
        <time>2022-07-14T07:31:08Z</time>
      </trkpt>
      <trkpt lat="44.1438" lon="2.71662">
        <ele>961.94</ele>
        <time>2022-07-14T07:31:15Z</time>
      </trkpt>
      <trkpt lat="44.14373" lon="2.71674">
        <ele>961.94</ele>
        <time>2022-07-14T07:31:22Z</time>
      </trkpt>
      <trkpt lat="44.14367" lon="2.71684">
        <ele>961.94</ele>
        <time>2022-07-14T07:31:28Z</time>
      </trkpt>
      <trkpt lat="44.14361" lon="2.71695">
        <ele>962.42</ele>
        <time>2022-07-14T07:31:35Z</time>
      </trkpt>
      <trkpt lat="44.14355" lon="2.71706">
        <ele>962.9</ele>
        <time>2022-07-14T07:31:41Z</time>
      </trkpt>
      <trkpt lat="44.14349" lon="2.71716">
        <ele>963.38</ele>
        <time>2022-07-14T07:31:47Z</time>
      </trkpt>
      <trkpt lat="44.14344" lon="2.71727">
        <ele>963.38</ele>
        <time>2022-07-14T07:31:53Z</time>
      </trkpt>
      <trkpt lat="44.14337" lon="2.71738">
        <ele>963.86</ele>
        <time>2022-07-14T07:32:00Z</time>
      </trkpt>
      <trkpt lat="44.14331" lon="2.71749">
        <ele>964.34</ele>
        <time>2022-07-14T07:32:06Z</time>
      </trkpt>
      <trkpt lat="44.14325" lon="2.71761">
        <ele>964.82</ele>
        <time>2022-07-14T07:32:12Z</time>
      </trkpt>
      <trkpt lat="44.1432" lon="2.71773">
        <ele>965.3</ele>
        <time>2022-07-14T07:32:18Z</time>
      </trkpt>
      <trkpt lat="44.14316" lon="2.71783">
        <ele>965.78</ele>
        <time>2022-07-14T07:32:24Z</time>
      </trkpt>
      <trkpt lat="44.1431" lon="2.71794">
        <ele>966.26</ele>
        <time>2022-07-14T07:32:30Z</time>
      </trkpt>
      <trkpt lat="44.14304" lon="2.71806">
        <ele>966.74</ele>
        <time>2022-07-14T07:32:37Z</time>
      </trkpt>
      <trkpt lat="44.14299" lon="2.71817">
        <ele>966.74</ele>
        <time>2022-07-14T07:32:43Z</time>
      </trkpt>
      <trkpt lat="44.14294" lon="2.71829">
        <ele>966.74</ele>
        <time>2022-07-14T07:32:49Z</time>
      </trkpt>
      <trkpt lat="44.1429" lon="2.7184">
        <ele>967.22</ele>
        <time>2022-07-14T07:32:55Z</time>
      </trkpt>
      <trkpt lat="44.14285" lon="2.71852">
        <ele>967.7</ele>
        <time>2022-07-14T07:33:01Z</time>
      </trkpt>
      <trkpt lat="44.1428" lon="2.71864">
        <ele>968.18</ele>
        <time>2022-07-14T07:33:07Z</time>
      </trkpt>
      <trkpt lat="44.14274" lon="2.71876">
        <ele>967.7</ele>
        <time>2022-07-14T07:33:13Z</time>
      </trkpt>
      <trkpt lat="44.1427" lon="2.7189">
        <ele>968.18</ele>
        <time>2022-07-14T07:33:19Z</time>
      </trkpt>
      <trkpt lat="44.14264" lon="2.71902">
        <ele>968.67</ele>
        <time>2022-07-14T07:33:25Z</time>
      </trkpt>
      <trkpt lat="44.14259" lon="2.71915">
        <ele>969.15</ele>
        <time>2022-07-14T07:33:31Z</time>
      </trkpt>
      <trkpt lat="44.14255" lon="2.71927">
        <ele>969.15</ele>
        <time>2022-07-14T07:33:37Z</time>
      </trkpt>
      <trkpt lat="44.14251" lon="2.7194">
        <ele>968.67</ele>
        <time>2022-07-14T07:33:43Z</time>
      </trkpt>
      <trkpt lat="44.14248" lon="2.71952">
        <ele>968.67</ele>
        <time>2022-07-14T07:33:49Z</time>
      </trkpt>
      <trkpt lat="44.14244" lon="2.71965">
        <ele>967.7</ele>
        <time>2022-07-14T07:33:57Z</time>
      </trkpt>
      <trkpt lat="44.1424" lon="2.71978">
        <ele>967.22</ele>
        <time>2022-07-14T07:34:04Z</time>
      </trkpt>
      <trkpt lat="44.14236" lon="2.71994">
        <ele>965.78</ele>
        <time>2022-07-14T07:34:12Z</time>
      </trkpt>
      <trkpt lat="44.14233" lon="2.72008">
        <ele>965.3</ele>
        <time>2022-07-14T07:34:20Z</time>
      </trkpt>
      <trkpt lat="44.1423" lon="2.72021">
        <ele>965.3</ele>
        <time>2022-07-14T07:34:26Z</time>
      </trkpt>
      <trkpt lat="44.14226" lon="2.72036">
        <ele>965.3</ele>
        <time>2022-07-14T07:34:33Z</time>
      </trkpt>
      <trkpt lat="44.14222" lon="2.72052">
        <ele>964.82</ele>
        <time>2022-07-14T07:34:40Z</time>
      </trkpt>
      <trkpt lat="44.14219" lon="2.72066">
        <ele>963.86</ele>
        <time>2022-07-14T07:34:46Z</time>
      </trkpt>
      <trkpt lat="44.14216" lon="2.7208">
        <ele>963.86</ele>
        <time>2022-07-14T07:34:52Z</time>
      </trkpt>
      <trkpt lat="44.14212" lon="2.72094">
        <ele>963.86</ele>
        <time>2022-07-14T07:34:59Z</time>
      </trkpt>
      <trkpt lat="44.14208" lon="2.72107">
        <ele>962.9</ele>
        <time>2022-07-14T07:35:06Z</time>
      </trkpt>
      <trkpt lat="44.14204" lon="2.72121">
        <ele>961.94</ele>
        <time>2022-07-14T07:35:13Z</time>
      </trkpt>
      <trkpt lat="44.142" lon="2.72136">
        <ele>961.46</ele>
        <time>2022-07-14T07:35:19Z</time>
      </trkpt>
      <trkpt lat="44.14197" lon="2.7215">
        <ele>960.98</ele>
        <time>2022-07-14T07:35:25Z</time>
      </trkpt>
      <trkpt lat="44.14193" lon="2.72166">
        <ele>960.98</ele>
        <time>2022-07-14T07:35:32Z</time>
      </trkpt>
      <trkpt lat="44.14189" lon="2.72179">
        <ele>960.49</ele>
        <time>2022-07-14T07:35:39Z</time>
      </trkpt>
      <trkpt lat="44.14185" lon="2.72192">
        <ele>959.53</ele>
        <time>2022-07-14T07:35:46Z</time>
      </trkpt>
      <trkpt lat="44.14182" lon="2.72206">
        <ele>959.05</ele>
        <time>2022-07-14T07:35:53Z</time>
      </trkpt>
      <trkpt lat="44.14177" lon="2.7222">
        <ele>958.09</ele>
        <time>2022-07-14T07:36:00Z</time>
      </trkpt>
      <trkpt lat="44.14172" lon="2.72234">
        <ele>956.65</ele>
        <time>2022-07-14T07:36:07Z</time>
      </trkpt>
      <trkpt lat="44.14167" lon="2.7225">
        <ele>956.17</ele>
        <time>2022-07-14T07:36:13Z</time>
      </trkpt>
      <trkpt lat="44.14162" lon="2.72264">
        <ele>956.17</ele>
        <time>2022-07-14T07:36:19Z</time>
      </trkpt>
      <trkpt lat="44.14158" lon="2.72278">
        <ele>955.69</ele>
        <time>2022-07-14T07:36:25Z</time>
      </trkpt>
      <trkpt lat="44.14153" lon="2.7229">
        <ele>955.69</ele>
        <time>2022-07-14T07:36:31Z</time>
      </trkpt>
      <trkpt lat="44.14148" lon="2.72302">
        <ele>955.21</ele>
        <time>2022-07-14T07:36:37Z</time>
      </trkpt>
      <trkpt lat="44.14144" lon="2.72316">
        <ele>954.73</ele>
        <time>2022-07-14T07:36:44Z</time>
      </trkpt>
      <trkpt lat="44.1414" lon="2.72329">
        <ele>954.25</ele>
        <time>2022-07-14T07:36:50Z</time>
      </trkpt>
      <trkpt lat="44.14138" lon="2.72343">
        <ele>953.77</ele>
        <time>2022-07-14T07:36:56Z</time>
      </trkpt>
      <trkpt lat="44.14136" lon="2.72357">
        <ele>953.28</ele>
        <time>2022-07-14T07:37:03Z</time>
      </trkpt>
      <trkpt lat="44.14136" lon="2.72371">
        <ele>951.84</ele>
        <time>2022-07-14T07:37:09Z</time>
      </trkpt>
      <trkpt lat="44.14137" lon="2.72385">
        <ele>950.88</ele>
        <time>2022-07-14T07:37:15Z</time>
      </trkpt>
      <trkpt lat="44.14137" lon="2.72399">
        <ele>949.92</ele>
        <time>2022-07-14T07:37:21Z</time>
      </trkpt>
      <trkpt lat="44.14136" lon="2.72412">
        <ele>950.88</ele>
        <time>2022-07-14T07:37:27Z</time>
      </trkpt>
      <trkpt lat="44.14135" lon="2.72426">
        <ele>951.36</ele>
        <time>2022-07-14T07:37:33Z</time>
      </trkpt>
      <trkpt lat="44.14133" lon="2.7244">
        <ele>951.84</ele>
        <time>2022-07-14T07:37:39Z</time>
      </trkpt>
      <trkpt lat="44.14133" lon="2.72455">
        <ele>949.44</ele>
        <time>2022-07-14T07:37:46Z</time>
      </trkpt>
      <trkpt lat="44.14136" lon="2.72469">
        <ele>948.48</ele>
        <time>2022-07-14T07:37:52Z</time>
      </trkpt>
      <trkpt lat="44.14139" lon="2.72481">
        <ele>947.04</ele>
        <time>2022-07-14T07:37:58Z</time>
      </trkpt>
      <trkpt lat="44.14142" lon="2.72494">
        <ele>944.63</ele>
        <time>2022-07-14T07:38:04Z</time>
      </trkpt>
      <trkpt lat="44.14145" lon="2.72507">
        <ele>943.19</ele>
        <time>2022-07-14T07:38:10Z</time>
      </trkpt>
      <trkpt lat="44.14148" lon="2.7252">
        <ele>943.19</ele>
        <time>2022-07-14T07:38:17Z</time>
      </trkpt>
      <trkpt lat="44.14152" lon="2.72534">
        <ele>944.63</ele>
        <time>2022-07-14T07:38:24Z</time>
      </trkpt>
      <trkpt lat="44.14155" lon="2.72548">
        <ele>943.19</ele>
        <time>2022-07-14T07:38:31Z</time>
      </trkpt>
      <trkpt lat="44.14159" lon="2.72562">
        <ele>942.23</ele>
        <time>2022-07-14T07:38:37Z</time>
      </trkpt>
      <trkpt lat="44.14163" lon="2.72576">
        <ele>942.23</ele>
        <time>2022-07-14T07:38:43Z</time>
      </trkpt>
      <trkpt lat="44.14167" lon="2.72589">
        <ele>942.71</ele>
        <time>2022-07-14T07:38:49Z</time>
      </trkpt>
      <trkpt lat="44.1417" lon="2.72602">
        <ele>943.67</ele>
        <time>2022-07-14T07:38:55Z</time>
      </trkpt>
      <trkpt lat="44.14173" lon="2.72614">
        <ele>943.67</ele>
        <time>2022-07-14T07:39:01Z</time>
      </trkpt>
      <trkpt lat="44.14177" lon="2.72627">
        <ele>943.19</ele>
        <time>2022-07-14T07:39:07Z</time>
      </trkpt>
      <trkpt lat="44.1418" lon="2.72641">
        <ele>943.67</ele>
        <time>2022-07-14T07:39:13Z</time>
      </trkpt>
      <trkpt lat="44.14182" lon="2.72656">
        <ele>943.19</ele>
        <time>2022-07-14T07:39:20Z</time>
      </trkpt>
      <trkpt lat="44.14185" lon="2.7267">
        <ele>943.19</ele>
        <time>2022-07-14T07:39:26Z</time>
      </trkpt>
      <trkpt lat="44.14187" lon="2.72684">
        <ele>944.15</ele>
        <time>2022-07-14T07:39:32Z</time>
      </trkpt>
      <trkpt lat="44.14191" lon="2.72697">
        <ele>944.15</ele>
        <time>2022-07-14T07:39:38Z</time>
      </trkpt>
      <trkpt lat="44.14194" lon="2.72711">
        <ele>943.67</ele>
        <time>2022-07-14T07:39:44Z</time>
      </trkpt>
      <trkpt lat="44.14197" lon="2.72723">
        <ele>943.67</ele>
        <time>2022-07-14T07:39:48Z</time>
      </trkpt>
      <trkpt lat="44.142" lon="2.72737">
        <ele>943.67</ele>
        <time>2022-07-14T07:39:51Z</time>
      </trkpt>
      <trkpt lat="44.14204" lon="2.72753">
        <ele>942.23</ele>
        <time>2022-07-14T07:39:55Z</time>
      </trkpt>
      <trkpt lat="44.14209" lon="2.72768">
        <ele>941.75</ele>
        <time>2022-07-14T07:39:58Z</time>
      </trkpt>
      <trkpt lat="44.14213" lon="2.72783">
        <ele>940.31</ele>
        <time>2022-07-14T07:40:01Z</time>
      </trkpt>
      <trkpt lat="44.14218" lon="2.72797">
        <ele>939.35</ele>
        <time>2022-07-14T07:40:04Z</time>
      </trkpt>
      <trkpt lat="44.14222" lon="2.72812">
        <ele>939.35</ele>
        <time>2022-07-14T07:40:07Z</time>
      </trkpt>
      <trkpt lat="44.14226" lon="2.72825">
        <ele>939.83</ele>
        <time>2022-07-14T07:40:10Z</time>
      </trkpt>
      <trkpt lat="44.1423" lon="2.72837">
        <ele>940.31</ele>
        <time>2022-07-14T07:40:13Z</time>
      </trkpt>
      <trkpt lat="44.14234" lon="2.72849">
        <ele>940.79</ele>
        <time>2022-07-14T07:40:16Z</time>
      </trkpt>
      <trkpt lat="44.14238" lon="2.72862">
        <ele>940.31</ele>
        <time>2022-07-14T07:40:19Z</time>
      </trkpt>
      <trkpt lat="44.14241" lon="2.72877">
        <ele>940.31</ele>
        <time>2022-07-14T07:40:22Z</time>
      </trkpt>
      <trkpt lat="44.14244" lon="2.72892">
        <ele>940.31</ele>
        <time>2022-07-14T07:40:25Z</time>
      </trkpt>
      <trkpt lat="44.14246" lon="2.72907">
        <ele>940.79</ele>
        <time>2022-07-14T07:40:28Z</time>
      </trkpt>
      <trkpt lat="44.14247" lon="2.72921">
        <ele>940.79</ele>
        <time>2022-07-14T07:40:31Z</time>
      </trkpt>
      <trkpt lat="44.14248" lon="2.72938">
        <ele>941.27</ele>
        <time>2022-07-14T07:40:35Z</time>
      </trkpt>
      <trkpt lat="44.14247" lon="2.72951">
        <ele>942.23</ele>
        <time>2022-07-14T07:40:38Z</time>
      </trkpt>
      <trkpt lat="44.14245" lon="2.72968">
        <ele>942.23</ele>
        <time>2022-07-14T07:40:42Z</time>
      </trkpt>
      <trkpt lat="44.14242" lon="2.72981">
        <ele>942.71</ele>
        <time>2022-07-14T07:40:45Z</time>
      </trkpt>
      <trkpt lat="44.1424" lon="2.72995">
        <ele>943.19</ele>
        <time>2022-07-14T07:40:48Z</time>
      </trkpt>
      <trkpt lat="44.14237" lon="2.73008">
        <ele>943.67</ele>
        <time>2022-07-14T07:40:51Z</time>
      </trkpt>
      <trkpt lat="44.14234" lon="2.73026">
        <ele>945.11</ele>
        <time>2022-07-14T07:40:54Z</time>
      </trkpt>
      <trkpt lat="44.1423" lon="2.73039">
        <ele>946.07</ele>
        <time>2022-07-14T07:40:56Z</time>
      </trkpt>
      <trkpt lat="44.14226" lon="2.73053">
        <ele>946.56</ele>
        <time>2022-07-14T07:40:58Z</time>
      </trkpt>
      <trkpt lat="44.14223" lon="2.73066">
        <ele>947.04</ele>
        <time>2022-07-14T07:41:00Z</time>
      </trkpt>
      <trkpt lat="44.1422" lon="2.73079">
        <ele>948.48</ele>
        <time>2022-07-14T07:41:02Z</time>
      </trkpt>
      <trkpt lat="44.14216" lon="2.73092">
        <ele>948.96</ele>
        <time>2022-07-14T07:41:04Z</time>
      </trkpt>
      <trkpt lat="44.14212" lon="2.73106">
        <ele>950.4</ele>
        <time>2022-07-14T07:41:07Z</time>
      </trkpt>
      <trkpt lat="44.14208" lon="2.73119">
        <ele>952.32</ele>
        <time>2022-07-14T07:41:13Z</time>
      </trkpt>
      <trkpt lat="44.14203" lon="2.73133">
        <ele>954.73</ele>
        <time>2022-07-14T07:41:21Z</time>
      </trkpt>
      <trkpt lat="44.142" lon="2.73147">
        <ele>955.69</ele>
        <time>2022-07-14T07:41:28Z</time>
      </trkpt>
      <trkpt lat="44.14195" lon="2.73159">
        <ele>956.65</ele>
        <time>2022-07-14T07:41:35Z</time>
      </trkpt>
      <trkpt lat="44.14188" lon="2.73171">
        <ele>957.13</ele>
        <time>2022-07-14T07:41:42Z</time>
      </trkpt>
      <trkpt lat="44.14183" lon="2.73183">
        <ele>957.13</ele>
        <time>2022-07-14T07:41:48Z</time>
      </trkpt>
      <trkpt lat="44.14179" lon="2.73194">
        <ele>958.09</ele>
        <time>2022-07-14T07:41:54Z</time>
      </trkpt>
      <trkpt lat="44.14173" lon="2.73206">
        <ele>959.05</ele>
        <time>2022-07-14T07:42:00Z</time>
      </trkpt>
      <trkpt lat="44.14168" lon="2.73218">
        <ele>958.09</ele>
        <time>2022-07-14T07:42:06Z</time>
      </trkpt>
      <trkpt lat="44.14162" lon="2.73231">
        <ele>957.13</ele>
        <time>2022-07-14T07:42:12Z</time>
      </trkpt>
      <trkpt lat="44.14158" lon="2.73244">
        <ele>956.17</ele>
        <time>2022-07-14T07:42:18Z</time>
      </trkpt>
      <trkpt lat="44.14156" lon="2.73257">
        <ele>955.69</ele>
        <time>2022-07-14T07:42:24Z</time>
      </trkpt>
      <trkpt lat="44.14155" lon="2.73272">
        <ele>955.21</ele>
        <time>2022-07-14T07:42:31Z</time>
      </trkpt>
      <trkpt lat="44.14157" lon="2.73286">
        <ele>953.77</ele>
        <time>2022-07-14T07:42:38Z</time>
      </trkpt>
      <trkpt lat="44.14159" lon="2.733">
        <ele>953.28</ele>
        <time>2022-07-14T07:42:45Z</time>
      </trkpt>
      <trkpt lat="44.14163" lon="2.73313">
        <ele>952.8</ele>
        <time>2022-07-14T07:42:53Z</time>
      </trkpt>
      <trkpt lat="44.14167" lon="2.73326">
        <ele>953.28</ele>
        <time>2022-07-14T07:43:00Z</time>
      </trkpt>
      <trkpt lat="44.14172" lon="2.73339">
        <ele>954.25</ele>
        <time>2022-07-14T07:43:07Z</time>
      </trkpt>
      <trkpt lat="44.14176" lon="2.73353">
        <ele>954.73</ele>
        <time>2022-07-14T07:43:14Z</time>
      </trkpt>
      <trkpt lat="44.1418" lon="2.73367">
        <ele>955.69</ele>
        <time>2022-07-14T07:43:21Z</time>
      </trkpt>
      <trkpt lat="44.14185" lon="2.7338">
        <ele>956.17</ele>
        <time>2022-07-14T07:43:28Z</time>
      </trkpt>
      <trkpt lat="44.1419" lon="2.73393">
        <ele>955.69</ele>
        <time>2022-07-14T07:43:35Z</time>
      </trkpt>
      <trkpt lat="44.14194" lon="2.73407">
        <ele>954.73</ele>
        <time>2022-07-14T07:43:42Z</time>
      </trkpt>
      <trkpt lat="44.14198" lon="2.7342">
        <ele>955.21</ele>
        <time>2022-07-14T07:43:48Z</time>
      </trkpt>
      <trkpt lat="44.14203" lon="2.73433">
        <ele>955.69</ele>
        <time>2022-07-14T07:43:55Z</time>
      </trkpt>
      <trkpt lat="44.14208" lon="2.73446">
        <ele>956.17</ele>
        <time>2022-07-14T07:44:02Z</time>
      </trkpt>
      <trkpt lat="44.14216" lon="2.73458">
        <ele>955.69</ele>
        <time>2022-07-14T07:44:09Z</time>
      </trkpt>
      <trkpt lat="44.14224" lon="2.73468">
        <ele>955.69</ele>
        <time>2022-07-14T07:44:16Z</time>
      </trkpt>
      <trkpt lat="44.14232" lon="2.73479">
        <ele>955.69</ele>
        <time>2022-07-14T07:44:23Z</time>
      </trkpt>
      <trkpt lat="44.1424" lon="2.73486">
        <ele>956.17</ele>
        <time>2022-07-14T07:44:29Z</time>
      </trkpt>
      <trkpt lat="44.1425" lon="2.73494">
        <ele>957.13</ele>
        <time>2022-07-14T07:44:35Z</time>
      </trkpt>
      <trkpt lat="44.14258" lon="2.73498">
        <ele>957.13</ele>
        <time>2022-07-14T07:44:41Z</time>
      </trkpt>
      <trkpt lat="44.14269" lon="2.73505">
        <ele>956.65</ele>
        <time>2022-07-14T07:44:49Z</time>
      </trkpt>
      <trkpt lat="44.14278" lon="2.73512">
        <ele>955.21</ele>
        <time>2022-07-14T07:44:56Z</time>
      </trkpt>
      <trkpt lat="44.14288" lon="2.73518">
        <ele>955.21</ele>
        <time>2022-07-14T07:45:03Z</time>
      </trkpt>
      <trkpt lat="44.14298" lon="2.73523">
        <ele>956.17</ele>
        <time>2022-07-14T07:45:10Z</time>
      </trkpt>
      <trkpt lat="44.14309" lon="2.73532">
        <ele>957.13</ele>
        <time>2022-07-14T07:45:18Z</time>
      </trkpt>
      <trkpt lat="44.1432" lon="2.73542">
        <ele>958.57</ele>
        <time>2022-07-14T07:45:25Z</time>
      </trkpt>
      <trkpt lat="44.14328" lon="2.73553">
        <ele>960.49</ele>
        <time>2022-07-14T07:45:32Z</time>
      </trkpt>
      <trkpt lat="44.14336" lon="2.73562">
        <ele>961.46</ele>
        <time>2022-07-14T07:45:38Z</time>
      </trkpt>
      <trkpt lat="44.14343" lon="2.73571">
        <ele>962.9</ele>
        <time>2022-07-14T07:45:44Z</time>
      </trkpt>
      <trkpt lat="44.1435" lon="2.73581">
        <ele>963.86</ele>
        <time>2022-07-14T07:45:50Z</time>
      </trkpt>
      <trkpt lat="44.14356" lon="2.73591">
        <ele>963.86</ele>
        <time>2022-07-14T07:45:56Z</time>
      </trkpt>
      <trkpt lat="44.14364" lon="2.73603">
        <ele>964.82</ele>
        <time>2022-07-14T07:46:03Z</time>
      </trkpt>
      <trkpt lat="44.1437" lon="2.73614">
        <ele>965.3</ele>
        <time>2022-07-14T07:46:09Z</time>
      </trkpt>
      <trkpt lat="44.14378" lon="2.73623">
        <ele>965.3</ele>
        <time>2022-07-14T07:46:16Z</time>
      </trkpt>
      <trkpt lat="44.14385" lon="2.73636">
        <ele>965.3</ele>
        <time>2022-07-14T07:46:23Z</time>
      </trkpt>
      <trkpt lat="44.1439" lon="2.73649">
        <ele>965.78</ele>
        <time>2022-07-14T07:46:30Z</time>
      </trkpt>
      <trkpt lat="44.14395" lon="2.73663">
        <ele>966.74</ele>
        <time>2022-07-14T07:46:36Z</time>
      </trkpt>
      <trkpt lat="44.144" lon="2.73677">
        <ele>966.74</ele>
        <time>2022-07-14T07:46:43Z</time>
      </trkpt>
      <trkpt lat="44.14403" lon="2.7369">
        <ele>967.7</ele>
        <time>2022-07-14T07:46:49Z</time>
      </trkpt>
      <trkpt lat="44.14408" lon="2.73704">
        <ele>968.18</ele>
        <time>2022-07-14T07:46:56Z</time>
      </trkpt>
      <trkpt lat="44.14412" lon="2.73719">
        <ele>968.67</ele>
        <time>2022-07-14T07:47:03Z</time>
      </trkpt>
      <trkpt lat="44.14416" lon="2.73733">
        <ele>968.18</ele>
        <time>2022-07-14T07:47:10Z</time>
      </trkpt>
      <trkpt lat="44.14419" lon="2.73747">
        <ele>967.22</ele>
        <time>2022-07-14T07:47:16Z</time>
      </trkpt>
      <trkpt lat="44.14423" lon="2.7376">
        <ele>967.22</ele>
        <time>2022-07-14T07:47:22Z</time>
      </trkpt>
      <trkpt lat="44.14426" lon="2.73774">
        <ele>968.67</ele>
        <time>2022-07-14T07:47:28Z</time>
      </trkpt>
      <trkpt lat="44.1443" lon="2.73787">
        <ele>969.15</ele>
        <time>2022-07-14T07:47:34Z</time>
      </trkpt>
      <trkpt lat="44.14433" lon="2.73801">
        <ele>969.63</ele>
        <time>2022-07-14T07:47:40Z</time>
      </trkpt>
      <trkpt lat="44.14436" lon="2.73817">
        <ele>970.11</ele>
        <time>2022-07-14T07:47:47Z</time>
      </trkpt>
      <trkpt lat="44.14438" lon="2.7383">
        <ele>970.11</ele>
        <time>2022-07-14T07:47:53Z</time>
      </trkpt>
      <trkpt lat="44.14442" lon="2.73844">
        <ele>970.59</ele>
        <time>2022-07-14T07:48:00Z</time>
      </trkpt>
      <trkpt lat="44.14444" lon="2.73858">
        <ele>971.55</ele>
        <time>2022-07-14T07:48:06Z</time>
      </trkpt>
      <trkpt lat="44.14446" lon="2.73872">
        <ele>972.51</ele>
        <time>2022-07-14T07:48:12Z</time>
      </trkpt>
      <trkpt lat="44.14446" lon="2.73886">
        <ele>972.99</ele>
        <time>2022-07-14T07:48:18Z</time>
      </trkpt>
      <trkpt lat="44.14446" lon="2.73899">
        <ele>973.95</ele>
        <time>2022-07-14T07:48:24Z</time>
      </trkpt>
      <trkpt lat="44.14444" lon="2.73912">
        <ele>974.91</ele>
        <time>2022-07-14T07:48:30Z</time>
      </trkpt>
      <trkpt lat="44.14442" lon="2.73926">
        <ele>975.39</ele>
        <time>2022-07-14T07:48:36Z</time>
      </trkpt>
      <trkpt lat="44.14438" lon="2.73937">
        <ele>976.84</ele>
        <time>2022-07-14T07:48:42Z</time>
      </trkpt>
      <trkpt lat="44.14432" lon="2.73948">
        <ele>978.28</ele>
        <time>2022-07-14T07:48:48Z</time>
      </trkpt>
      <trkpt lat="44.14427" lon="2.73961">
        <ele>978.76</ele>
        <time>2022-07-14T07:48:55Z</time>
      </trkpt>
      <trkpt lat="44.14421" lon="2.73972">
        <ele>978.76</ele>
        <time>2022-07-14T07:49:01Z</time>
      </trkpt>
      <trkpt lat="44.14415" lon="2.73983">
        <ele>977.8</ele>
        <time>2022-07-14T07:49:07Z</time>
      </trkpt>
      <trkpt lat="44.1441" lon="2.73997">
        <ele>978.76</ele>
        <time>2022-07-14T07:49:14Z</time>
      </trkpt>
      <trkpt lat="44.14403" lon="2.74009">
        <ele>978.76</ele>
        <time>2022-07-14T07:49:20Z</time>
      </trkpt>
      <trkpt lat="44.14396" lon="2.74019">
        <ele>978.76</ele>
        <time>2022-07-14T07:49:26Z</time>
      </trkpt>
      <trkpt lat="44.14389" lon="2.74029">
        <ele>977.8</ele>
        <time>2022-07-14T07:49:32Z</time>
      </trkpt>
      <trkpt lat="44.14382" lon="2.7404">
        <ele>977.32</ele>
        <time>2022-07-14T07:49:38Z</time>
      </trkpt>
      <trkpt lat="44.14375" lon="2.74051">
        <ele>977.32</ele>
        <time>2022-07-14T07:49:44Z</time>
      </trkpt>
      <trkpt lat="44.14369" lon="2.74062">
        <ele>978.28</ele>
        <time>2022-07-14T07:49:50Z</time>
      </trkpt>
      <trkpt lat="44.14363" lon="2.74074">
        <ele>977.32</ele>
        <time>2022-07-14T07:49:56Z</time>
      </trkpt>
      <trkpt lat="44.14357" lon="2.74085">
        <ele>977.8</ele>
        <time>2022-07-14T07:50:02Z</time>
      </trkpt>
      <trkpt lat="44.14351" lon="2.74095">
        <ele>977.32</ele>
        <time>2022-07-14T07:50:08Z</time>
      </trkpt>
      <trkpt lat="44.14345" lon="2.74105">
        <ele>976.84</ele>
        <time>2022-07-14T07:50:14Z</time>
      </trkpt>
      <trkpt lat="44.1434" lon="2.74115">
        <ele>975.39</ele>
        <time>2022-07-14T07:50:21Z</time>
      </trkpt>
      <trkpt lat="44.14336" lon="2.74129">
        <ele>974.91</ele>
        <time>2022-07-14T07:50:28Z</time>
      </trkpt>
      <trkpt lat="44.14331" lon="2.7414">
        <ele>973.47</ele>
        <time>2022-07-14T07:50:34Z</time>
      </trkpt>
      <trkpt lat="44.14327" lon="2.74152">
        <ele>972.51</ele>
        <time>2022-07-14T07:50:41Z</time>
      </trkpt>
      <trkpt lat="44.14323" lon="2.74165">
        <ele>971.07</ele>
        <time>2022-07-14T07:50:48Z</time>
      </trkpt>
      <trkpt lat="44.14317" lon="2.74177">
        <ele>970.59</ele>
        <time>2022-07-14T07:50:54Z</time>
      </trkpt>
      <trkpt lat="44.14312" lon="2.74188">
        <ele>970.11</ele>
        <time>2022-07-14T07:51:00Z</time>
      </trkpt>
      <trkpt lat="44.14307" lon="2.74199">
        <ele>969.15</ele>
        <time>2022-07-14T07:51:06Z</time>
      </trkpt>
      <trkpt lat="44.14302" lon="2.74212">
        <ele>968.18</ele>
        <time>2022-07-14T07:51:12Z</time>
      </trkpt>
      <trkpt lat="44.14296" lon="2.74224">
        <ele>967.7</ele>
        <time>2022-07-14T07:51:18Z</time>
      </trkpt>
      <trkpt lat="44.14291" lon="2.74235">
        <ele>967.22</ele>
        <time>2022-07-14T07:51:24Z</time>
      </trkpt>
      <trkpt lat="44.14287" lon="2.74246">
        <ele>967.22</ele>
        <time>2022-07-14T07:51:30Z</time>
      </trkpt>
      <trkpt lat="44.14285" lon="2.74258">
        <ele>967.22</ele>
        <time>2022-07-14T07:51:36Z</time>
      </trkpt>
      <trkpt lat="44.14282" lon="2.74271">
        <ele>967.22</ele>
        <time>2022-07-14T07:51:42Z</time>
      </trkpt>
      <trkpt lat="44.14278" lon="2.74284">
        <ele>967.22</ele>
        <time>2022-07-14T07:51:48Z</time>
      </trkpt>
      <trkpt lat="44.14274" lon="2.74297">
        <ele>966.74</ele>
        <time>2022-07-14T07:51:54Z</time>
      </trkpt>
      <trkpt lat="44.14269" lon="2.7431">
        <ele>965.78</ele>
        <time>2022-07-14T07:52:01Z</time>
      </trkpt>
      <trkpt lat="44.14267" lon="2.74323">
        <ele>965.78</ele>
        <time>2022-07-14T07:52:08Z</time>
      </trkpt>
      <trkpt lat="44.14264" lon="2.74338">
        <ele>964.34</ele>
        <time>2022-07-14T07:52:15Z</time>
      </trkpt>
      <trkpt lat="44.14262" lon="2.74351">
        <ele>963.38</ele>
        <time>2022-07-14T07:52:22Z</time>
      </trkpt>
      <trkpt lat="44.14261" lon="2.74367">
        <ele>963.38</ele>
        <time>2022-07-14T07:52:29Z</time>
      </trkpt>
      <trkpt lat="44.14262" lon="2.74429">
        <ele>961.46</ele>
        <time>2022-07-14T07:53:03Z</time>
      </trkpt>
      <trkpt lat="44.1426" lon="2.74468">
        <ele>963.38</ele>
        <time>2022-07-14T07:53:23Z</time>
      </trkpt>
      <trkpt lat="44.1426" lon="2.74489">
        <ele>964.34</ele>
        <time>2022-07-14T07:53:31Z</time>
      </trkpt>
      <trkpt lat="44.14257" lon="2.74506">
        <ele>964.34</ele>
        <time>2022-07-14T07:53:39Z</time>
      </trkpt>
      <trkpt lat="44.14256" lon="2.74521">
        <ele>964.34</ele>
        <time>2022-07-14T07:53:47Z</time>
      </trkpt>
      <trkpt lat="44.14258" lon="2.74545">
        <ele>962.42</ele>
        <time>2022-07-14T07:54:00Z</time>
      </trkpt>
      <trkpt lat="44.1426" lon="2.74566">
        <ele>960.49</ele>
        <time>2022-07-14T07:54:09Z</time>
      </trkpt>
      <trkpt lat="44.14262" lon="2.74588">
        <ele>960.49</ele>
        <time>2022-07-14T07:54:20Z</time>
      </trkpt>
      <trkpt lat="44.14264" lon="2.74609">
        <ele>960.49</ele>
        <time>2022-07-14T07:54:31Z</time>
      </trkpt>
      <trkpt lat="44.14265" lon="2.74632">
        <ele>960.01</ele>
        <time>2022-07-14T07:54:39Z</time>
      </trkpt>
      <trkpt lat="44.14268" lon="2.74653">
        <ele>958.57</ele>
        <time>2022-07-14T07:54:49Z</time>
      </trkpt>
      <trkpt lat="44.1427" lon="2.74669">
        <ele>956.65</ele>
        <time>2022-07-14T07:54:57Z</time>
      </trkpt>
      <trkpt lat="44.14274" lon="2.74689">
        <ele>953.77</ele>
        <time>2022-07-14T07:55:08Z</time>
      </trkpt>
      <trkpt lat="44.14276" lon="2.74705">
        <ele>952.8</ele>
        <time>2022-07-14T07:55:15Z</time>
      </trkpt>
      <trkpt lat="44.14277" lon="2.74725">
        <ele>952.8</ele>
        <time>2022-07-14T07:55:23Z</time>
      </trkpt>
      <trkpt lat="44.14277" lon="2.7474">
        <ele>952.8</ele>
        <time>2022-07-14T07:55:30Z</time>
      </trkpt>
      <trkpt lat="44.14277" lon="2.74757">
        <ele>952.8</ele>
        <time>2022-07-14T07:55:38Z</time>
      </trkpt>
      <trkpt lat="44.14277" lon="2.74776">
        <ele>953.28</ele>
        <time>2022-07-14T07:55:46Z</time>
      </trkpt>
      <trkpt lat="44.14278" lon="2.74793">
        <ele>952.8</ele>
        <time>2022-07-14T07:55:54Z</time>
      </trkpt>
      <trkpt lat="44.14278" lon="2.74811">
        <ele>952.8</ele>
        <time>2022-07-14T07:56:02Z</time>
      </trkpt>
      <trkpt lat="44.14276" lon="2.74827">
        <ele>953.77</ele>
        <time>2022-07-14T07:56:10Z</time>
      </trkpt>
      <trkpt lat="44.14274" lon="2.74843">
        <ele>955.21</ele>
        <time>2022-07-14T07:56:18Z</time>
      </trkpt>
      <trkpt lat="44.14271" lon="2.74859">
        <ele>956.65</ele>
        <time>2022-07-14T07:56:25Z</time>
      </trkpt>
      <trkpt lat="44.14268" lon="2.74874">
        <ele>958.09</ele>
        <time>2022-07-14T07:56:32Z</time>
      </trkpt>
      <trkpt lat="44.14266" lon="2.74891">
        <ele>960.49</ele>
        <time>2022-07-14T07:56:39Z</time>
      </trkpt>
      <trkpt lat="44.14264" lon="2.74914">
        <ele>962.42</ele>
        <time>2022-07-14T07:56:51Z</time>
      </trkpt>
      <trkpt lat="44.14262" lon="2.74932">
        <ele>963.86</ele>
        <time>2022-07-14T07:56:59Z</time>
      </trkpt>
      <trkpt lat="44.14261" lon="2.74952">
        <ele>963.86</ele>
        <time>2022-07-14T07:57:07Z</time>
      </trkpt>
      <trkpt lat="44.14258" lon="2.74973">
        <ele>961.94</ele>
        <time>2022-07-14T07:57:17Z</time>
      </trkpt>
      <trkpt lat="44.14255" lon="2.74987">
        <ele>962.9</ele>
        <time>2022-07-14T07:57:25Z</time>
      </trkpt>
      <trkpt lat="44.14252" lon="2.75004">
        <ele>964.82</ele>
        <time>2022-07-14T07:57:33Z</time>
      </trkpt>
      <trkpt lat="44.14249" lon="2.7502">
        <ele>966.26</ele>
        <time>2022-07-14T07:57:40Z</time>
      </trkpt>
      <trkpt lat="44.14246" lon="2.75035">
        <ele>966.74</ele>
        <time>2022-07-14T07:57:47Z</time>
      </trkpt>
      <trkpt lat="44.14242" lon="2.7505">
        <ele>968.18</ele>
        <time>2022-07-14T07:57:54Z</time>
      </trkpt>
      <trkpt lat="44.14239" lon="2.75069">
        <ele>969.15</ele>
        <time>2022-07-14T07:58:04Z</time>
      </trkpt>
      <trkpt lat="44.14237" lon="2.75086">
        <ele>968.67</ele>
        <time>2022-07-14T07:58:11Z</time>
      </trkpt>
      <trkpt lat="44.14236" lon="2.75101">
        <ele>964.34</ele>
        <time>2022-07-14T07:58:18Z</time>
      </trkpt>
      <trkpt lat="44.14235" lon="2.75116">
        <ele>961.46</ele>
        <time>2022-07-14T07:58:25Z</time>
      </trkpt>
      <trkpt lat="44.14233" lon="2.75133">
        <ele>957.61</ele>
        <time>2022-07-14T07:58:33Z</time>
      </trkpt>
      <trkpt lat="44.1423" lon="2.75148">
        <ele>957.13</ele>
        <time>2022-07-14T07:58:41Z</time>
      </trkpt>
      <trkpt lat="44.14225" lon="2.75163">
        <ele>958.57</ele>
        <time>2022-07-14T07:58:48Z</time>
      </trkpt>
      <trkpt lat="44.14221" lon="2.75179">
        <ele>960.01</ele>
        <time>2022-07-14T07:58:55Z</time>
      </trkpt>
      <trkpt lat="44.14218" lon="2.75194">
        <ele>961.46</ele>
        <time>2022-07-14T07:59:02Z</time>
      </trkpt>
      <trkpt lat="44.14213" lon="2.75208">
        <ele>963.86</ele>
        <time>2022-07-14T07:59:09Z</time>
      </trkpt>
      <trkpt lat="44.14208" lon="2.75221">
        <ele>966.26</ele>
        <time>2022-07-14T07:59:16Z</time>
      </trkpt>
      <trkpt lat="44.14205" lon="2.75236">
        <ele>968.67</ele>
        <time>2022-07-14T07:59:23Z</time>
      </trkpt>
      <trkpt lat="44.14201" lon="2.75248">
        <ele>970.59</ele>
        <time>2022-07-14T07:59:29Z</time>
      </trkpt>
      <trkpt lat="44.14196" lon="2.75264">
        <ele>972.51</ele>
        <time>2022-07-14T07:59:38Z</time>
      </trkpt>
      <trkpt lat="44.14192" lon="2.75278">
        <ele>972.51</ele>
        <time>2022-07-14T07:59:45Z</time>
      </trkpt>
      <trkpt lat="44.14193" lon="2.75293">
        <ele>970.59</ele>
        <time>2022-07-14T07:59:52Z</time>
      </trkpt>
      <trkpt lat="44.14201" lon="2.75306">
        <ele>963.38</ele>
        <time>2022-07-14T07:59:59Z</time>
      </trkpt>
      <trkpt lat="44.14212" lon="2.75314">
        <ele>959.53</ele>
        <time>2022-07-14T08:00:05Z</time>
      </trkpt>
      <trkpt lat="44.14223" lon="2.75319">
        <ele>956.65</ele>
        <time>2022-07-14T08:00:12Z</time>
      </trkpt>
      <trkpt lat="44.14233" lon="2.75323">
        <ele>955.21</ele>
        <time>2022-07-14T08:00:19Z</time>
      </trkpt>
      <trkpt lat="44.14243" lon="2.75324">
        <ele>955.21</ele>
        <time>2022-07-14T08:00:25Z</time>
      </trkpt>
      <trkpt lat="44.14254" lon="2.75326">
        <ele>953.77</ele>
        <time>2022-07-14T08:00:33Z</time>
      </trkpt>
      <trkpt lat="44.14266" lon="2.75326">
        <ele>949.44</ele>
        <time>2022-07-14T08:00:45Z</time>
      </trkpt>
      <trkpt lat="44.14279" lon="2.75324">
        <ele>947.04</ele>
        <time>2022-07-14T08:00:53Z</time>
      </trkpt>
      <trkpt lat="44.14289" lon="2.75324">
        <ele>944.15</ele>
        <time>2022-07-14T08:01:00Z</time>
      </trkpt>
      <trkpt lat="44.143" lon="2.75325">
        <ele>940.31</ele>
        <time>2022-07-14T08:01:07Z</time>
      </trkpt>
      <trkpt lat="44.14311" lon="2.75328">
        <ele>937.42</ele>
        <time>2022-07-14T08:01:15Z</time>
      </trkpt>
      <trkpt lat="44.14416" lon="2.75317">
        <ele>941.27</ele>
        <time>2022-07-14T08:11:50Z</time>
      </trkpt>
      <trkpt lat="44.145" lon="2.75345">
        <ele>929.73</ele>
        <time>2022-07-14T08:13:00Z</time>
      </trkpt>
      <trkpt lat="44.14548" lon="2.75486">
        <ele>914.35</ele>
        <time>2022-07-14T08:14:35Z</time>
      </trkpt>
      <trkpt lat="44.14565" lon="2.75502">
        <ele>934.54</ele>
        <time>2022-07-14T08:15:01Z</time>
      </trkpt>
      <trkpt lat="44.14575" lon="2.75502">
        <ele>937.9</ele>
        <time>2022-07-14T08:15:10Z</time>
      </trkpt>
      <trkpt lat="44.14586" lon="2.75504">
        <ele>938.86</ele>
        <time>2022-07-14T08:15:20Z</time>
      </trkpt>
      <trkpt lat="44.14614" lon="2.75519">
        <ele>942.23</ele>
        <time>2022-07-14T08:15:44Z</time>
      </trkpt>
      <trkpt lat="44.1463" lon="2.75544">
        <ele>933.58</ele>
        <time>2022-07-14T08:16:16Z</time>
      </trkpt>
      <trkpt lat="44.1468" lon="2.75594">
        <ele>930.69</ele>
        <time>2022-07-14T08:17:47Z</time>
      </trkpt>
      <trkpt lat="44.14693" lon="2.75604">
        <ele>934.06</ele>
        <time>2022-07-14T08:17:58Z</time>
      </trkpt>
      <trkpt lat="44.14705" lon="2.75615">
        <ele>936.46</ele>
        <time>2022-07-14T08:18:08Z</time>
      </trkpt>
      <trkpt lat="44.14722" lon="2.75624">
        <ele>940.31</ele>
        <time>2022-07-14T08:18:22Z</time>
      </trkpt>
      <trkpt lat="44.14737" lon="2.75631">
        <ele>941.27</ele>
        <time>2022-07-14T08:18:32Z</time>
      </trkpt>
      <trkpt lat="44.14749" lon="2.75638">
        <ele>942.23</ele>
        <time>2022-07-14T08:18:40Z</time>
      </trkpt>
      <trkpt lat="44.14761" lon="2.75645">
        <ele>942.23</ele>
        <time>2022-07-14T08:18:49Z</time>
      </trkpt>
      <trkpt lat="44.14772" lon="2.75651">
        <ele>941.27</ele>
        <time>2022-07-14T08:18:57Z</time>
      </trkpt>
      <trkpt lat="44.14785" lon="2.75658">
        <ele>940.31</ele>
        <time>2022-07-14T08:19:07Z</time>
      </trkpt>
      <trkpt lat="44.14797" lon="2.75664">
        <ele>940.31</ele>
        <time>2022-07-14T08:19:15Z</time>
      </trkpt>
      <trkpt lat="44.14809" lon="2.75671">
        <ele>940.31</ele>
        <time>2022-07-14T08:19:23Z</time>
      </trkpt>
      <trkpt lat="44.14821" lon="2.75681">
        <ele>940.79</ele>
        <time>2022-07-14T08:19:32Z</time>
      </trkpt>
      <trkpt lat="44.14832" lon="2.75689">
        <ele>940.31</ele>
        <time>2022-07-14T08:19:40Z</time>
      </trkpt>
      <trkpt lat="44.14843" lon="2.75698">
        <ele>940.31</ele>
        <time>2022-07-14T08:19:48Z</time>
      </trkpt>
      <trkpt lat="44.14853" lon="2.75705">
        <ele>940.31</ele>
        <time>2022-07-14T08:19:56Z</time>
      </trkpt>
      <trkpt lat="44.14863" lon="2.75713">
        <ele>939.83</ele>
        <time>2022-07-14T08:20:02Z</time>
      </trkpt>
      <trkpt lat="44.14872" lon="2.7572">
        <ele>939.83</ele>
        <time>2022-07-14T08:20:08Z</time>
      </trkpt>
      <trkpt lat="44.1488" lon="2.75728">
        <ele>941.27</ele>
        <time>2022-07-14T08:20:14Z</time>
      </trkpt>
      <trkpt lat="44.14889" lon="2.75735">
        <ele>941.75</ele>
        <time>2022-07-14T08:20:20Z</time>
      </trkpt>
      <trkpt lat="44.14897" lon="2.75742">
        <ele>942.71</ele>
        <time>2022-07-14T08:20:26Z</time>
      </trkpt>
      <trkpt lat="44.14905" lon="2.7575">
        <ele>943.19</ele>
        <time>2022-07-14T08:20:32Z</time>
      </trkpt>
      <trkpt lat="44.14913" lon="2.75759">
        <ele>943.19</ele>
        <time>2022-07-14T08:20:38Z</time>
      </trkpt>
      <trkpt lat="44.1492" lon="2.75768">
        <ele>942.23</ele>
        <time>2022-07-14T08:20:44Z</time>
      </trkpt>
      <trkpt lat="44.14928" lon="2.75777">
        <ele>941.75</ele>
        <time>2022-07-14T08:20:50Z</time>
      </trkpt>
      <trkpt lat="44.14935" lon="2.75786">
        <ele>941.75</ele>
        <time>2022-07-14T08:20:56Z</time>
      </trkpt>
      <trkpt lat="44.14943" lon="2.75794">
        <ele>941.75</ele>
        <time>2022-07-14T08:21:03Z</time>
      </trkpt>
      <trkpt lat="44.14952" lon="2.75803">
        <ele>941.27</ele>
        <time>2022-07-14T08:21:10Z</time>
      </trkpt>
      <trkpt lat="44.1496" lon="2.75812">
        <ele>940.79</ele>
        <time>2022-07-14T08:21:16Z</time>
      </trkpt>
      <trkpt lat="44.14968" lon="2.7582">
        <ele>941.27</ele>
        <time>2022-07-14T08:21:22Z</time>
      </trkpt>
      <trkpt lat="44.14977" lon="2.7583">
        <ele>941.75</ele>
        <time>2022-07-14T08:21:29Z</time>
      </trkpt>
      <trkpt lat="44.14986" lon="2.75838">
        <ele>941.75</ele>
        <time>2022-07-14T08:21:36Z</time>
      </trkpt>
      <trkpt lat="44.14999" lon="2.75847">
        <ele>941.27</ele>
        <time>2022-07-14T08:21:46Z</time>
      </trkpt>
      <trkpt lat="44.15007" lon="2.75855">
        <ele>941.75</ele>
        <time>2022-07-14T08:21:52Z</time>
      </trkpt>
      <trkpt lat="44.15016" lon="2.75865">
        <ele>941.75</ele>
        <time>2022-07-14T08:21:59Z</time>
      </trkpt>
      <trkpt lat="44.15025" lon="2.75871">
        <ele>942.23</ele>
        <time>2022-07-14T08:22:06Z</time>
      </trkpt>
      <trkpt lat="44.15037" lon="2.75881">
        <ele>942.71</ele>
        <time>2022-07-14T08:22:17Z</time>
      </trkpt>
      <trkpt lat="44.15048" lon="2.75889">
        <ele>942.71</ele>
        <time>2022-07-14T08:22:24Z</time>
      </trkpt>
      <trkpt lat="44.15056" lon="2.75899">
        <ele>943.19</ele>
        <time>2022-07-14T08:22:34Z</time>
      </trkpt>
      <trkpt lat="44.15053" lon="2.75911">
        <ele>943.19</ele>
        <time>2022-07-14T08:22:42Z</time>
      </trkpt>
      <trkpt lat="44.15048" lon="2.75923">
        <ele>944.63</ele>
        <time>2022-07-14T08:22:49Z</time>
      </trkpt>
      <trkpt lat="44.15043" lon="2.75935">
        <ele>945.59</ele>
        <time>2022-07-14T08:22:56Z</time>
      </trkpt>
      <trkpt lat="44.15038" lon="2.75948">
        <ele>945.59</ele>
        <time>2022-07-14T08:23:04Z</time>
      </trkpt>
      <trkpt lat="44.15033" lon="2.75962">
        <ele>947.52</ele>
        <time>2022-07-14T08:23:12Z</time>
      </trkpt>
      <trkpt lat="44.15027" lon="2.75975">
        <ele>949.92</ele>
        <time>2022-07-14T08:23:19Z</time>
      </trkpt>
      <trkpt lat="44.15022" lon="2.75988">
        <ele>951.84</ele>
        <time>2022-07-14T08:23:26Z</time>
      </trkpt>
      <trkpt lat="44.15018" lon="2.75999">
        <ele>953.77</ele>
        <time>2022-07-14T08:23:33Z</time>
      </trkpt>
      <trkpt lat="44.15012" lon="2.76012">
        <ele>955.21</ele>
        <time>2022-07-14T08:23:41Z</time>
      </trkpt>
      <trkpt lat="44.15006" lon="2.76026">
        <ele>956.17</ele>
        <time>2022-07-14T08:23:48Z</time>
      </trkpt>
      <trkpt lat="44.15001" lon="2.76039">
        <ele>955.21</ele>
        <time>2022-07-14T08:23:55Z</time>
      </trkpt>
      <trkpt lat="44.14995" lon="2.7605">
        <ele>955.69</ele>
        <time>2022-07-14T08:24:02Z</time>
      </trkpt>
      <trkpt lat="44.1499" lon="2.7606">
        <ele>956.17</ele>
        <time>2022-07-14T08:24:08Z</time>
      </trkpt>
      <trkpt lat="44.14984" lon="2.7607">
        <ele>957.13</ele>
        <time>2022-07-14T08:24:15Z</time>
      </trkpt>
      <trkpt lat="44.14978" lon="2.76081">
        <ele>957.61</ele>
        <time>2022-07-14T08:24:22Z</time>
      </trkpt>
      <trkpt lat="44.14972" lon="2.76093">
        <ele>958.09</ele>
        <time>2022-07-14T08:24:30Z</time>
      </trkpt>
      <trkpt lat="44.14967" lon="2.76105">
        <ele>958.57</ele>
        <time>2022-07-14T08:24:37Z</time>
      </trkpt>
      <trkpt lat="44.14962" lon="2.76116">
        <ele>958.09</ele>
        <time>2022-07-14T08:24:44Z</time>
      </trkpt>
      <trkpt lat="44.14956" lon="2.76127">
        <ele>959.05</ele>
        <time>2022-07-14T08:24:51Z</time>
      </trkpt>
      <trkpt lat="44.14951" lon="2.76138">
        <ele>960.01</ele>
        <time>2022-07-14T08:24:58Z</time>
      </trkpt>
      <trkpt lat="44.14946" lon="2.7615">
        <ele>960.01</ele>
        <time>2022-07-14T08:25:05Z</time>
      </trkpt>
      <trkpt lat="44.14941" lon="2.76162">
        <ele>961.46</ele>
        <time>2022-07-14T08:25:12Z</time>
      </trkpt>
      <trkpt lat="44.14937" lon="2.76174">
        <ele>962.42</ele>
        <time>2022-07-14T08:25:19Z</time>
      </trkpt>
      <trkpt lat="44.14933" lon="2.76187">
        <ele>962.42</ele>
        <time>2022-07-14T08:25:26Z</time>
      </trkpt>
      <trkpt lat="44.1493" lon="2.762">
        <ele>961.94</ele>
        <time>2022-07-14T08:25:33Z</time>
      </trkpt>
      <trkpt lat="44.14926" lon="2.76213">
        <ele>961.94</ele>
        <time>2022-07-14T08:25:40Z</time>
      </trkpt>
      <trkpt lat="44.14923" lon="2.76226">
        <ele>961.94</ele>
        <time>2022-07-14T08:25:46Z</time>
      </trkpt>
      <trkpt lat="44.14919" lon="2.76238">
        <ele>961.46</ele>
        <time>2022-07-14T08:25:52Z</time>
      </trkpt>
      <trkpt lat="44.14916" lon="2.76253">
        <ele>960.98</ele>
        <time>2022-07-14T08:25:59Z</time>
      </trkpt>
      <trkpt lat="44.14912" lon="2.76265">
        <ele>960.01</ele>
        <time>2022-07-14T08:26:05Z</time>
      </trkpt>
      <trkpt lat="44.14909" lon="2.76279">
        <ele>958.09</ele>
        <time>2022-07-14T08:26:12Z</time>
      </trkpt>
      <trkpt lat="44.14906" lon="2.76292">
        <ele>956.17</ele>
        <time>2022-07-14T08:26:19Z</time>
      </trkpt>
      <trkpt lat="44.14903" lon="2.76305">
        <ele>955.69</ele>
        <time>2022-07-14T08:26:25Z</time>
      </trkpt>
      <trkpt lat="44.149" lon="2.76319">
        <ele>954.73</ele>
        <time>2022-07-14T08:26:32Z</time>
      </trkpt>
      <trkpt lat="44.14897" lon="2.76334">
        <ele>952.32</ele>
        <time>2022-07-14T08:26:40Z</time>
      </trkpt>
      <trkpt lat="44.14895" lon="2.76348">
        <ele>949.92</ele>
        <time>2022-07-14T08:26:48Z</time>
      </trkpt>
      <trkpt lat="44.1489" lon="2.76363">
        <ele>948.48</ele>
        <time>2022-07-14T08:26:57Z</time>
      </trkpt>
      <trkpt lat="44.14885" lon="2.76375">
        <ele>950.4</ele>
        <time>2022-07-14T08:27:05Z</time>
      </trkpt>
      <trkpt lat="44.1488" lon="2.76391">
        <ele>951.84</ele>
        <time>2022-07-14T08:27:12Z</time>
      </trkpt>
      <trkpt lat="44.14875" lon="2.76411">
        <ele>956.17</ele>
        <time>2022-07-14T08:27:20Z</time>
      </trkpt>
      <trkpt lat="44.14869" lon="2.76427">
        <ele>958.57</ele>
        <time>2022-07-14T08:27:28Z</time>
      </trkpt>
      <trkpt lat="44.14864" lon="2.76442">
        <ele>959.53</ele>
        <time>2022-07-14T08:27:35Z</time>
      </trkpt>
      <trkpt lat="44.14857" lon="2.76457">
        <ele>960.98</ele>
        <time>2022-07-14T08:27:43Z</time>
      </trkpt>
      <trkpt lat="44.1485" lon="2.76468">
        <ele>961.94</ele>
        <time>2022-07-14T08:27:50Z</time>
      </trkpt>
      <trkpt lat="44.14843" lon="2.76479">
        <ele>962.9</ele>
        <time>2022-07-14T08:27:57Z</time>
      </trkpt>
      <trkpt lat="44.14836" lon="2.76489">
        <ele>963.86</ele>
        <time>2022-07-14T08:28:03Z</time>
      </trkpt>
      <trkpt lat="44.14828" lon="2.76498">
        <ele>961.94</ele>
        <time>2022-07-14T08:28:10Z</time>
      </trkpt>
      <trkpt lat="44.14821" lon="2.76508">
        <ele>960.49</ele>
        <time>2022-07-14T08:28:17Z</time>
      </trkpt>
      <trkpt lat="44.14814" lon="2.76517">
        <ele>959.53</ele>
        <time>2022-07-14T08:28:23Z</time>
      </trkpt>
      <trkpt lat="44.14807" lon="2.76526">
        <ele>959.05</ele>
        <time>2022-07-14T08:28:30Z</time>
      </trkpt>
      <trkpt lat="44.14799" lon="2.76535">
        <ele>958.09</ele>
        <time>2022-07-14T08:28:38Z</time>
      </trkpt>
      <trkpt lat="44.14791" lon="2.76547">
        <ele>956.17</ele>
        <time>2022-07-14T08:28:46Z</time>
      </trkpt>
      <trkpt lat="44.14784" lon="2.76557">
        <ele>956.17</ele>
        <time>2022-07-14T08:28:53Z</time>
      </trkpt>
      <trkpt lat="44.14776" lon="2.76567">
        <ele>955.69</ele>
        <time>2022-07-14T08:29:01Z</time>
      </trkpt>
      <trkpt lat="44.14769" lon="2.76576">
        <ele>956.17</ele>
        <time>2022-07-14T08:29:08Z</time>
      </trkpt>
      <trkpt lat="44.1476" lon="2.76588">
        <ele>956.65</ele>
        <time>2022-07-14T08:29:15Z</time>
      </trkpt>
      <trkpt lat="44.14753" lon="2.76597">
        <ele>957.13</ele>
        <time>2022-07-14T08:29:22Z</time>
      </trkpt>
      <trkpt lat="44.14746" lon="2.76609">
        <ele>958.57</ele>
        <time>2022-07-14T08:29:29Z</time>
      </trkpt>
      <trkpt lat="44.1474" lon="2.7662">
        <ele>958.57</ele>
        <time>2022-07-14T08:29:36Z</time>
      </trkpt>
      <trkpt lat="44.14734" lon="2.76629">
        <ele>958.57</ele>
        <time>2022-07-14T08:29:42Z</time>
      </trkpt>
      <trkpt lat="44.14726" lon="2.76637">
        <ele>959.53</ele>
        <time>2022-07-14T08:29:52Z</time>
      </trkpt>
      <trkpt lat="44.1472" lon="2.76646">
        <ele>960.01</ele>
        <time>2022-07-14T08:29:59Z</time>
      </trkpt>
      <trkpt lat="44.14712" lon="2.76655">
        <ele>960.49</ele>
        <time>2022-07-14T08:30:06Z</time>
      </trkpt>
      <trkpt lat="44.14705" lon="2.76663">
        <ele>960.98</ele>
        <time>2022-07-14T08:30:13Z</time>
      </trkpt>
      <trkpt lat="44.14702" lon="2.76676">
        <ele>961.46</ele>
        <time>2022-07-14T08:30:21Z</time>
      </trkpt>
      <trkpt lat="44.14703" lon="2.76691">
        <ele>960.49</ele>
        <time>2022-07-14T08:30:29Z</time>
      </trkpt>
      <trkpt lat="44.1471" lon="2.76707">
        <ele>958.09</ele>
        <time>2022-07-14T08:30:37Z</time>
      </trkpt>
      <trkpt lat="44.14717" lon="2.7672">
        <ele>956.17</ele>
        <time>2022-07-14T08:30:44Z</time>
      </trkpt>
      <trkpt lat="44.14723" lon="2.76733">
        <ele>956.17</ele>
        <time>2022-07-14T08:30:51Z</time>
      </trkpt>
      <trkpt lat="44.14729" lon="2.76746">
        <ele>956.65</ele>
        <time>2022-07-14T08:30:58Z</time>
      </trkpt>
      <trkpt lat="44.14734" lon="2.76758">
        <ele>958.09</ele>
        <time>2022-07-14T08:31:04Z</time>
      </trkpt>
      <trkpt lat="44.14739" lon="2.76771">
        <ele>960.98</ele>
        <time>2022-07-14T08:31:11Z</time>
      </trkpt>
      <trkpt lat="44.14744" lon="2.76785">
        <ele>960.98</ele>
        <time>2022-07-14T08:31:18Z</time>
      </trkpt>
      <trkpt lat="44.14749" lon="2.76797">
        <ele>962.42</ele>
        <time>2022-07-14T08:31:25Z</time>
      </trkpt>
      <trkpt lat="44.14756" lon="2.76809">
        <ele>962.9</ele>
        <time>2022-07-14T08:31:32Z</time>
      </trkpt>
      <trkpt lat="44.14762" lon="2.76822">
        <ele>962.42</ele>
        <time>2022-07-14T08:31:39Z</time>
      </trkpt>
      <trkpt lat="44.14768" lon="2.76834">
        <ele>961.94</ele>
        <time>2022-07-14T08:31:45Z</time>
      </trkpt>
      <trkpt lat="44.14774" lon="2.76847">
        <ele>960.49</ele>
        <time>2022-07-14T08:31:52Z</time>
      </trkpt>
      <trkpt lat="44.14781" lon="2.76859">
        <ele>960.49</ele>
        <time>2022-07-14T08:31:59Z</time>
      </trkpt>
      <trkpt lat="44.14789" lon="2.76871">
        <ele>960.49</ele>
        <time>2022-07-14T08:32:06Z</time>
      </trkpt>
      <trkpt lat="44.14797" lon="2.76882">
        <ele>960.01</ele>
        <time>2022-07-14T08:32:13Z</time>
      </trkpt>
      <trkpt lat="44.14805" lon="2.76893">
        <ele>959.53</ele>
        <time>2022-07-14T08:32:20Z</time>
      </trkpt>
      <trkpt lat="44.14813" lon="2.76903">
        <ele>959.53</ele>
        <time>2022-07-14T08:32:27Z</time>
      </trkpt>
      <trkpt lat="44.14821" lon="2.76915">
        <ele>958.57</ele>
        <time>2022-07-14T08:32:34Z</time>
      </trkpt>
      <trkpt lat="44.14829" lon="2.76925">
        <ele>957.61</ele>
        <time>2022-07-14T08:32:41Z</time>
      </trkpt>
      <trkpt lat="44.14837" lon="2.76935">
        <ele>956.17</ele>
        <time>2022-07-14T08:32:48Z</time>
      </trkpt>
      <trkpt lat="44.14844" lon="2.76945">
        <ele>955.21</ele>
        <time>2022-07-14T08:32:55Z</time>
      </trkpt>
      <trkpt lat="44.14851" lon="2.76956">
        <ele>954.73</ele>
        <time>2022-07-14T08:33:01Z</time>
      </trkpt>
      <trkpt lat="44.1486" lon="2.76967">
        <ele>954.25</ele>
        <time>2022-07-14T08:33:08Z</time>
      </trkpt>
      <trkpt lat="44.14867" lon="2.76978">
        <ele>953.28</ele>
        <time>2022-07-14T08:33:15Z</time>
      </trkpt>
      <trkpt lat="44.14875" lon="2.7699">
        <ele>952.32</ele>
        <time>2022-07-14T08:33:22Z</time>
      </trkpt>
      <trkpt lat="44.14883" lon="2.77002">
        <ele>950.88</ele>
        <time>2022-07-14T08:33:29Z</time>
      </trkpt>
      <trkpt lat="44.14891" lon="2.77013">
        <ele>949.44</ele>
        <time>2022-07-14T08:33:36Z</time>
      </trkpt>
      <trkpt lat="44.14898" lon="2.77025">
        <ele>948.96</ele>
        <time>2022-07-14T08:33:43Z</time>
      </trkpt>
      <trkpt lat="44.14904" lon="2.77037">
        <ele>948</ele>
        <time>2022-07-14T08:33:50Z</time>
      </trkpt>
      <trkpt lat="44.14911" lon="2.77049">
        <ele>948.48</ele>
        <time>2022-07-14T08:33:57Z</time>
      </trkpt>
      <trkpt lat="44.14918" lon="2.7706">
        <ele>948.48</ele>
        <time>2022-07-14T08:34:04Z</time>
      </trkpt>
      <trkpt lat="44.14926" lon="2.7707">
        <ele>949.44</ele>
        <time>2022-07-14T08:34:10Z</time>
      </trkpt>
      <trkpt lat="44.14933" lon="2.77082">
        <ele>950.88</ele>
        <time>2022-07-14T08:34:17Z</time>
      </trkpt>
      <trkpt lat="44.1494" lon="2.77092">
        <ele>953.28</ele>
        <time>2022-07-14T08:34:24Z</time>
      </trkpt>
      <trkpt lat="44.14946" lon="2.77105">
        <ele>955.69</ele>
        <time>2022-07-14T08:34:31Z</time>
      </trkpt>
      <trkpt lat="44.14953" lon="2.77116">
        <ele>957.13</ele>
        <time>2022-07-14T08:34:38Z</time>
      </trkpt>
      <trkpt lat="44.14961" lon="2.77126">
        <ele>958.09</ele>
        <time>2022-07-14T08:34:45Z</time>
      </trkpt>
      <trkpt lat="44.14969" lon="2.77135">
        <ele>957.61</ele>
        <time>2022-07-14T08:34:52Z</time>
      </trkpt>
      <trkpt lat="44.14976" lon="2.77145">
        <ele>957.13</ele>
        <time>2022-07-14T08:34:59Z</time>
      </trkpt>
      <trkpt lat="44.14984" lon="2.77154">
        <ele>955.69</ele>
        <time>2022-07-14T08:35:06Z</time>
      </trkpt>
      <trkpt lat="44.14992" lon="2.77166">
        <ele>955.69</ele>
        <time>2022-07-14T08:35:13Z</time>
      </trkpt>
      <trkpt lat="44.14998" lon="2.77178">
        <ele>954.73</ele>
        <time>2022-07-14T08:35:20Z</time>
      </trkpt>
      <trkpt lat="44.15003" lon="2.77192">
        <ele>954.25</ele>
        <time>2022-07-14T08:35:27Z</time>
      </trkpt>
      <trkpt lat="44.15008" lon="2.77205">
        <ele>953.28</ele>
        <time>2022-07-14T08:35:34Z</time>
      </trkpt>
      <trkpt lat="44.15013" lon="2.77218">
        <ele>953.28</ele>
        <time>2022-07-14T08:35:41Z</time>
      </trkpt>
      <trkpt lat="44.15017" lon="2.77232">
        <ele>952.8</ele>
        <time>2022-07-14T08:35:48Z</time>
      </trkpt>
      <trkpt lat="44.15021" lon="2.77246">
        <ele>952.32</ele>
        <time>2022-07-14T08:35:55Z</time>
      </trkpt>
      <trkpt lat="44.15025" lon="2.77259">
        <ele>952.32</ele>
        <time>2022-07-14T08:36:02Z</time>
      </trkpt>
      <trkpt lat="44.15029" lon="2.77273">
        <ele>951.36</ele>
        <time>2022-07-14T08:36:09Z</time>
      </trkpt>
      <trkpt lat="44.15033" lon="2.77286">
        <ele>951.36</ele>
        <time>2022-07-14T08:36:16Z</time>
      </trkpt>
      <trkpt lat="44.15038" lon="2.77301">
        <ele>952.32</ele>
        <time>2022-07-14T08:36:23Z</time>
      </trkpt>
      <trkpt lat="44.15041" lon="2.77315">
        <ele>952.32</ele>
        <time>2022-07-14T08:36:30Z</time>
      </trkpt>
      <trkpt lat="44.15044" lon="2.77329">
        <ele>952.32</ele>
        <time>2022-07-14T08:36:37Z</time>
      </trkpt>
      <trkpt lat="44.15046" lon="2.77345">
        <ele>951.84</ele>
        <time>2022-07-14T08:36:44Z</time>
      </trkpt>
      <trkpt lat="44.15049" lon="2.7736">
        <ele>952.8</ele>
        <time>2022-07-14T08:36:51Z</time>
      </trkpt>
      <trkpt lat="44.15052" lon="2.77374">
        <ele>952.8</ele>
        <time>2022-07-14T08:36:58Z</time>
      </trkpt>
      <trkpt lat="44.15056" lon="2.77389">
        <ele>953.28</ele>
        <time>2022-07-14T08:37:05Z</time>
      </trkpt>
      <trkpt lat="44.15058" lon="2.77404">
        <ele>952.8</ele>
        <time>2022-07-14T08:37:12Z</time>
      </trkpt>
      <trkpt lat="44.15061" lon="2.77417">
        <ele>953.77</ele>
        <time>2022-07-14T08:37:18Z</time>
      </trkpt>
      <trkpt lat="44.15064" lon="2.77432">
        <ele>954.25</ele>
        <time>2022-07-14T08:37:25Z</time>
      </trkpt>
      <trkpt lat="44.15066" lon="2.77446">
        <ele>954.25</ele>
        <time>2022-07-14T08:37:32Z</time>
      </trkpt>
      <trkpt lat="44.15069" lon="2.7746">
        <ele>953.77</ele>
        <time>2022-07-14T08:37:39Z</time>
      </trkpt>
      <trkpt lat="44.15072" lon="2.77473">
        <ele>953.77</ele>
        <time>2022-07-14T08:37:45Z</time>
      </trkpt>
      <trkpt lat="44.15076" lon="2.77487">
        <ele>953.28</ele>
        <time>2022-07-14T08:37:49Z</time>
      </trkpt>
      <trkpt lat="44.1508" lon="2.77502">
        <ele>952.8</ele>
        <time>2022-07-14T08:37:53Z</time>
      </trkpt>
      <trkpt lat="44.15086" lon="2.77514">
        <ele>951.84</ele>
        <time>2022-07-14T08:37:58Z</time>
      </trkpt>
      <trkpt lat="44.15094" lon="2.77529">
        <ele>949.92</ele>
        <time>2022-07-14T08:38:04Z</time>
      </trkpt>
      <trkpt lat="44.15102" lon="2.77546">
        <ele>948.48</ele>
        <time>2022-07-14T08:38:09Z</time>
      </trkpt>
      <trkpt lat="44.15107" lon="2.77563">
        <ele>947.52</ele>
        <time>2022-07-14T08:38:13Z</time>
      </trkpt>
      <trkpt lat="44.15112" lon="2.77577">
        <ele>946.56</ele>
        <time>2022-07-14T08:38:16Z</time>
      </trkpt>
      <trkpt lat="44.15115" lon="2.7759">
        <ele>946.07</ele>
        <time>2022-07-14T08:38:19Z</time>
      </trkpt>
      <trkpt lat="44.1512" lon="2.77603">
        <ele>945.11</ele>
        <time>2022-07-14T08:38:22Z</time>
      </trkpt>
      <trkpt lat="44.15125" lon="2.77616">
        <ele>944.63</ele>
        <time>2022-07-14T08:38:25Z</time>
      </trkpt>
      <trkpt lat="44.1513" lon="2.77629">
        <ele>944.63</ele>
        <time>2022-07-14T08:38:28Z</time>
      </trkpt>
      <trkpt lat="44.15137" lon="2.77642">
        <ele>945.11</ele>
        <time>2022-07-14T08:38:31Z</time>
      </trkpt>
      <trkpt lat="44.15142" lon="2.77654">
        <ele>945.59</ele>
        <time>2022-07-14T08:38:34Z</time>
      </trkpt>
      <trkpt lat="44.15148" lon="2.77667">
        <ele>946.07</ele>
        <time>2022-07-14T08:38:37Z</time>
      </trkpt>
      <trkpt lat="44.15154" lon="2.7768">
        <ele>946.07</ele>
        <time>2022-07-14T08:38:40Z</time>
      </trkpt>
      <trkpt lat="44.1516" lon="2.77694">
        <ele>946.56</ele>
        <time>2022-07-14T08:38:43Z</time>
      </trkpt>
      <trkpt lat="44.15166" lon="2.77706">
        <ele>947.52</ele>
        <time>2022-07-14T08:38:46Z</time>
      </trkpt>
      <trkpt lat="44.15171" lon="2.77719">
        <ele>948</ele>
        <time>2022-07-14T08:38:49Z</time>
      </trkpt>
      <trkpt lat="44.15177" lon="2.77732">
        <ele>948</ele>
        <time>2022-07-14T08:38:52Z</time>
      </trkpt>
      <trkpt lat="44.15183" lon="2.77747">
        <ele>948.48</ele>
        <time>2022-07-14T08:38:55Z</time>
      </trkpt>
      <trkpt lat="44.15187" lon="2.77762">
        <ele>948.48</ele>
        <time>2022-07-14T08:38:58Z</time>
      </trkpt>
      <trkpt lat="44.1519" lon="2.77778">
        <ele>948.48</ele>
        <time>2022-07-14T08:39:01Z</time>
      </trkpt>
      <trkpt lat="44.15194" lon="2.77793">
        <ele>949.44</ele>
        <time>2022-07-14T08:39:04Z</time>
      </trkpt>
      <trkpt lat="44.15197" lon="2.77807">
        <ele>950.4</ele>
        <time>2022-07-14T08:39:07Z</time>
      </trkpt>
      <trkpt lat="44.152" lon="2.77822">
        <ele>951.84</ele>
        <time>2022-07-14T08:39:10Z</time>
      </trkpt>
      <trkpt lat="44.15202" lon="2.77836">
        <ele>952.32</ele>
        <time>2022-07-14T08:39:13Z</time>
      </trkpt>
      <trkpt lat="44.15203" lon="2.7785">
        <ele>952.8</ele>
        <time>2022-07-14T08:39:16Z</time>
      </trkpt>
      <trkpt lat="44.15206" lon="2.77863">
        <ele>953.28</ele>
        <time>2022-07-14T08:39:19Z</time>
      </trkpt>
      <trkpt lat="44.15208" lon="2.77876">
        <ele>953.77</ele>
        <time>2022-07-14T08:39:22Z</time>
      </trkpt>
      <trkpt lat="44.1521" lon="2.77889">
        <ele>954.73</ele>
        <time>2022-07-14T08:39:25Z</time>
      </trkpt>
      <trkpt lat="44.15212" lon="2.77906">
        <ele>955.21</ele>
        <time>2022-07-14T08:39:29Z</time>
      </trkpt>
      <trkpt lat="44.15215" lon="2.77923">
        <ele>955.69</ele>
        <time>2022-07-14T08:39:33Z</time>
      </trkpt>
      <trkpt lat="44.15217" lon="2.77939">
        <ele>957.13</ele>
        <time>2022-07-14T08:39:37Z</time>
      </trkpt>
      <trkpt lat="44.1522" lon="2.77954">
        <ele>957.61</ele>
        <time>2022-07-14T08:39:41Z</time>
      </trkpt>
      <trkpt lat="44.15222" lon="2.7797">
        <ele>958.09</ele>
        <time>2022-07-14T08:39:45Z</time>
      </trkpt>
      <trkpt lat="44.15225" lon="2.77987">
        <ele>958.57</ele>
        <time>2022-07-14T08:39:49Z</time>
      </trkpt>
      <trkpt lat="44.15227" lon="2.78003">
        <ele>959.05</ele>
        <time>2022-07-14T08:39:53Z</time>
      </trkpt>
      <trkpt lat="44.15229" lon="2.7802">
        <ele>960.01</ele>
        <time>2022-07-14T08:39:57Z</time>
      </trkpt>
      <trkpt lat="44.15231" lon="2.78035">
        <ele>960.49</ele>
        <time>2022-07-14T08:40:01Z</time>
      </trkpt>
      <trkpt lat="44.15233" lon="2.7805">
        <ele>961.46</ele>
        <time>2022-07-14T08:40:05Z</time>
      </trkpt>
      <trkpt lat="44.15235" lon="2.78065">
        <ele>961.46</ele>
        <time>2022-07-14T08:40:09Z</time>
      </trkpt>
      <trkpt lat="44.15237" lon="2.7808">
        <ele>961.46</ele>
        <time>2022-07-14T08:40:13Z</time>
      </trkpt>
      <trkpt lat="44.1524" lon="2.78096">
        <ele>960.98</ele>
        <time>2022-07-14T08:40:17Z</time>
      </trkpt>
      <trkpt lat="44.15242" lon="2.78113">
        <ele>960.98</ele>
        <time>2022-07-14T08:40:21Z</time>
      </trkpt>
      <trkpt lat="44.15245" lon="2.78131">
        <ele>960.98</ele>
        <time>2022-07-14T08:40:25Z</time>
      </trkpt>
      <trkpt lat="44.15247" lon="2.78144">
        <ele>961.46</ele>
        <time>2022-07-14T08:40:28Z</time>
      </trkpt>
      <trkpt lat="44.1525" lon="2.78158">
        <ele>961.46</ele>
        <time>2022-07-14T08:40:31Z</time>
      </trkpt>
      <trkpt lat="44.15253" lon="2.78172">
        <ele>961.46</ele>
        <time>2022-07-14T08:40:34Z</time>
      </trkpt>
      <trkpt lat="44.15256" lon="2.78186">
        <ele>961.46</ele>
        <time>2022-07-14T08:40:37Z</time>
      </trkpt>
      <trkpt lat="44.15259" lon="2.782">
        <ele>961.46</ele>
        <time>2022-07-14T08:40:40Z</time>
      </trkpt>
      <trkpt lat="44.15263" lon="2.78214">
        <ele>961.46</ele>
        <time>2022-07-14T08:40:43Z</time>
      </trkpt>
      <trkpt lat="44.15266" lon="2.78228">
        <ele>961.46</ele>
        <time>2022-07-14T08:40:46Z</time>
      </trkpt>
      <trkpt lat="44.1527" lon="2.78241">
        <ele>961.94</ele>
        <time>2022-07-14T08:40:49Z</time>
      </trkpt>
      <trkpt lat="44.15274" lon="2.78254">
        <ele>961.94</ele>
        <time>2022-07-14T08:40:52Z</time>
      </trkpt>
      <trkpt lat="44.15278" lon="2.78268">
        <ele>961.94</ele>
        <time>2022-07-14T08:40:55Z</time>
      </trkpt>
      <trkpt lat="44.1528" lon="2.78281">
        <ele>961.94</ele>
        <time>2022-07-14T08:40:58Z</time>
      </trkpt>
      <trkpt lat="44.15284" lon="2.78294">
        <ele>961.46</ele>
        <time>2022-07-14T08:41:01Z</time>
      </trkpt>
      <trkpt lat="44.15288" lon="2.78309">
        <ele>960.49</ele>
        <time>2022-07-14T08:41:05Z</time>
      </trkpt>
      <trkpt lat="44.15292" lon="2.78321">
        <ele>960.98</ele>
        <time>2022-07-14T08:41:11Z</time>
      </trkpt>
      <trkpt lat="44.15295" lon="2.78335">
        <ele>960.98</ele>
        <time>2022-07-14T08:41:18Z</time>
      </trkpt>
      <trkpt lat="44.15299" lon="2.78348">
        <ele>960.98</ele>
        <time>2022-07-14T08:41:25Z</time>
      </trkpt>
      <trkpt lat="44.15303" lon="2.78361">
        <ele>960.98</ele>
        <time>2022-07-14T08:41:32Z</time>
      </trkpt>
      <trkpt lat="44.15306" lon="2.78375">
        <ele>960.98</ele>
        <time>2022-07-14T08:41:39Z</time>
      </trkpt>
      <trkpt lat="44.1531" lon="2.78387">
        <ele>960.98</ele>
        <time>2022-07-14T08:41:45Z</time>
      </trkpt>
      <trkpt lat="44.15313" lon="2.784">
        <ele>960.98</ele>
        <time>2022-07-14T08:41:51Z</time>
      </trkpt>
      <trkpt lat="44.15317" lon="2.78413">
        <ele>960.98</ele>
        <time>2022-07-14T08:41:57Z</time>
      </trkpt>
      <trkpt lat="44.15321" lon="2.78429">
        <ele>960.49</ele>
        <time>2022-07-14T08:42:01Z</time>
      </trkpt>
      <trkpt lat="44.15325" lon="2.78442">
        <ele>960.49</ele>
        <time>2022-07-14T08:42:04Z</time>
      </trkpt>
      <trkpt lat="44.1533" lon="2.78457">
        <ele>960.49</ele>
        <time>2022-07-14T08:42:07Z</time>
      </trkpt>
      <trkpt lat="44.15334" lon="2.78472">
        <ele>960.49</ele>
        <time>2022-07-14T08:42:10Z</time>
      </trkpt>
      <trkpt lat="44.15339" lon="2.78486">
        <ele>960.98</ele>
        <time>2022-07-14T08:42:13Z</time>
      </trkpt>
      <trkpt lat="44.15345" lon="2.785">
        <ele>960.98</ele>
        <time>2022-07-14T08:42:16Z</time>
      </trkpt>
      <trkpt lat="44.1535" lon="2.78512">
        <ele>961.46</ele>
        <time>2022-07-14T08:42:19Z</time>
      </trkpt>
      <trkpt lat="44.15357" lon="2.78524">
        <ele>962.42</ele>
        <time>2022-07-14T08:42:22Z</time>
      </trkpt>
      <trkpt lat="44.15364" lon="2.78536">
        <ele>962.9</ele>
        <time>2022-07-14T08:42:25Z</time>
      </trkpt>
      <trkpt lat="44.15373" lon="2.78548">
        <ele>962.9</ele>
        <time>2022-07-14T08:42:29Z</time>
      </trkpt>
      <trkpt lat="44.15384" lon="2.78557">
        <ele>964.82</ele>
        <time>2022-07-14T08:42:35Z</time>
      </trkpt>
      <trkpt lat="44.15395" lon="2.78565">
        <ele>967.22</ele>
        <time>2022-07-14T08:42:43Z</time>
      </trkpt>
      <trkpt lat="44.15402" lon="2.78577">
        <ele>972.51</ele>
        <time>2022-07-14T08:42:50Z</time>
      </trkpt>
      <trkpt lat="44.15409" lon="2.78588">
        <ele>974.43</ele>
        <time>2022-07-14T08:42:57Z</time>
      </trkpt>
      <trkpt lat="44.15415" lon="2.78598">
        <ele>974.91</ele>
        <time>2022-07-14T08:43:03Z</time>
      </trkpt>
      <trkpt lat="44.15422" lon="2.78608">
        <ele>975.39</ele>
        <time>2022-07-14T08:43:09Z</time>
      </trkpt>
      <trkpt lat="44.15428" lon="2.7862">
        <ele>976.36</ele>
        <time>2022-07-14T08:43:16Z</time>
      </trkpt>
      <trkpt lat="44.15436" lon="2.78632">
        <ele>976.84</ele>
        <time>2022-07-14T08:43:23Z</time>
      </trkpt>
      <trkpt lat="44.15443" lon="2.78642">
        <ele>978.28</ele>
        <time>2022-07-14T08:43:30Z</time>
      </trkpt>
      <trkpt lat="44.1545" lon="2.78652">
        <ele>979.24</ele>
        <time>2022-07-14T08:43:36Z</time>
      </trkpt>
      <trkpt lat="44.15456" lon="2.78662">
        <ele>980.68</ele>
        <time>2022-07-14T08:43:43Z</time>
      </trkpt>
      <trkpt lat="44.15463" lon="2.78673">
        <ele>981.64</ele>
        <time>2022-07-14T08:43:50Z</time>
      </trkpt>
      <trkpt lat="44.1547" lon="2.78683">
        <ele>982.6</ele>
        <time>2022-07-14T08:43:57Z</time>
      </trkpt>
      <trkpt lat="44.15477" lon="2.78694">
        <ele>984.05</ele>
        <time>2022-07-14T08:44:04Z</time>
      </trkpt>
      <trkpt lat="44.15484" lon="2.78706">
        <ele>985.01</ele>
        <time>2022-07-14T08:44:11Z</time>
      </trkpt>
      <trkpt lat="44.1549" lon="2.78718">
        <ele>985.01</ele>
        <time>2022-07-14T08:44:18Z</time>
      </trkpt>
      <trkpt lat="44.15496" lon="2.78729">
        <ele>985.49</ele>
        <time>2022-07-14T08:44:25Z</time>
      </trkpt>
      <trkpt lat="44.15501" lon="2.78741">
        <ele>985.97</ele>
        <time>2022-07-14T08:44:31Z</time>
      </trkpt>
      <trkpt lat="44.15506" lon="2.78752">
        <ele>986.45</ele>
        <time>2022-07-14T08:44:37Z</time>
      </trkpt>
      <trkpt lat="44.15509" lon="2.78764">
        <ele>986.93</ele>
        <time>2022-07-14T08:44:43Z</time>
      </trkpt>
      <trkpt lat="44.15514" lon="2.78774">
        <ele>987.41</ele>
        <time>2022-07-14T08:44:49Z</time>
      </trkpt>
      <trkpt lat="44.15518" lon="2.78786">
        <ele>987.41</ele>
        <time>2022-07-14T08:44:55Z</time>
      </trkpt>
      <trkpt lat="44.15524" lon="2.78797">
        <ele>986.93</ele>
        <time>2022-07-14T08:44:59Z</time>
      </trkpt>
      <trkpt lat="44.1553" lon="2.78806">
        <ele>986.45</ele>
        <time>2022-07-14T08:45:05Z</time>
      </trkpt>
      <trkpt lat="44.15537" lon="2.78817">
        <ele>985.97</ele>
        <time>2022-07-14T08:45:12Z</time>
      </trkpt>
      <trkpt lat="44.15543" lon="2.78828">
        <ele>985.97</ele>
        <time>2022-07-14T08:45:19Z</time>
      </trkpt>
      <trkpt lat="44.1555" lon="2.78839">
        <ele>985.49</ele>
        <time>2022-07-14T08:45:26Z</time>
      </trkpt>
      <trkpt lat="44.15556" lon="2.78849">
        <ele>985.49</ele>
        <time>2022-07-14T08:45:32Z</time>
      </trkpt>
      <trkpt lat="44.15561" lon="2.7886">
        <ele>985.97</ele>
        <time>2022-07-14T08:45:38Z</time>
      </trkpt>
      <trkpt lat="44.15567" lon="2.78871">
        <ele>985.97</ele>
        <time>2022-07-14T08:45:44Z</time>
      </trkpt>
      <trkpt lat="44.15574" lon="2.78882">
        <ele>985.97</ele>
        <time>2022-07-14T08:45:51Z</time>
      </trkpt>
      <trkpt lat="44.1558" lon="2.78892">
        <ele>985.49</ele>
        <time>2022-07-14T08:45:57Z</time>
      </trkpt>
      <trkpt lat="44.15586" lon="2.78903">
        <ele>985.49</ele>
        <time>2022-07-14T08:46:03Z</time>
      </trkpt>
      <trkpt lat="44.15592" lon="2.78913">
        <ele>985.97</ele>
        <time>2022-07-14T08:46:09Z</time>
      </trkpt>
      <trkpt lat="44.15598" lon="2.78926">
        <ele>986.45</ele>
        <time>2022-07-14T08:46:16Z</time>
      </trkpt>
      <trkpt lat="44.15603" lon="2.78938">
        <ele>986.93</ele>
        <time>2022-07-14T08:46:23Z</time>
      </trkpt>
      <trkpt lat="44.15609" lon="2.78951">
        <ele>987.89</ele>
        <time>2022-07-14T08:46:30Z</time>
      </trkpt>
      <trkpt lat="44.15616" lon="2.78965">
        <ele>988.37</ele>
        <time>2022-07-14T08:46:37Z</time>
      </trkpt>
      <trkpt lat="44.15621" lon="2.78977">
        <ele>989.81</ele>
        <time>2022-07-14T08:46:44Z</time>
      </trkpt>
      <trkpt lat="44.15627" lon="2.78992">
        <ele>990.3</ele>
        <time>2022-07-14T08:46:52Z</time>
      </trkpt>
      <trkpt lat="44.15633" lon="2.79011">
        <ele>991.26</ele>
        <time>2022-07-14T08:47:02Z</time>
      </trkpt>
      <trkpt lat="44.15638" lon="2.79027">
        <ele>992.22</ele>
        <time>2022-07-14T08:47:12Z</time>
      </trkpt>
      <trkpt lat="44.1564" lon="2.79044">
        <ele>992.7</ele>
        <time>2022-07-14T08:47:20Z</time>
      </trkpt>
      <trkpt lat="44.1564" lon="2.79063">
        <ele>993.18</ele>
        <time>2022-07-14T08:47:28Z</time>
      </trkpt>
      <trkpt lat="44.15639" lon="2.79077">
        <ele>993.66</ele>
        <time>2022-07-14T08:47:35Z</time>
      </trkpt>
      <trkpt lat="44.15639" lon="2.79093">
        <ele>995.1</ele>
        <time>2022-07-14T08:47:43Z</time>
      </trkpt>
      <trkpt lat="44.15641" lon="2.79109">
        <ele>996.54</ele>
        <time>2022-07-14T08:47:52Z</time>
      </trkpt>
      <trkpt lat="44.15643" lon="2.79127">
        <ele>997.51</ele>
        <time>2022-07-14T08:48:01Z</time>
      </trkpt>
      <trkpt lat="44.15645" lon="2.79149">
        <ele>997.02</ele>
        <time>2022-07-14T08:48:10Z</time>
      </trkpt>
      <trkpt lat="44.15647" lon="2.79165">
        <ele>998.47</ele>
        <time>2022-07-14T08:48:17Z</time>
      </trkpt>
      <trkpt lat="44.1565" lon="2.79182">
        <ele>999.91</ele>
        <time>2022-07-14T08:48:24Z</time>
      </trkpt>
      <trkpt lat="44.15653" lon="2.79196">
        <ele>1000.39</ele>
        <time>2022-07-14T08:48:31Z</time>
      </trkpt>
      <trkpt lat="44.15656" lon="2.7921">
        <ele>998.95</ele>
        <time>2022-07-14T08:48:39Z</time>
      </trkpt>
      <trkpt lat="44.1566" lon="2.79224">
        <ele>997.51</ele>
        <time>2022-07-14T08:48:48Z</time>
      </trkpt>
      <trkpt lat="44.15666" lon="2.79238">
        <ele>994.14</ele>
        <time>2022-07-14T08:48:58Z</time>
      </trkpt>
      <trkpt lat="44.1567" lon="2.79253">
        <ele>993.66</ele>
        <time>2022-07-14T08:49:05Z</time>
      </trkpt>
      <trkpt lat="44.15674" lon="2.79267">
        <ele>993.66</ele>
        <time>2022-07-14T08:49:08Z</time>
      </trkpt>
      <trkpt lat="44.1568" lon="2.79281">
        <ele>993.66</ele>
        <time>2022-07-14T08:49:11Z</time>
      </trkpt>
      <trkpt lat="44.15687" lon="2.79296">
        <ele>993.66</ele>
        <time>2022-07-14T08:49:14Z</time>
      </trkpt>
      <trkpt lat="44.15694" lon="2.79308">
        <ele>994.14</ele>
        <time>2022-07-14T08:49:17Z</time>
      </trkpt>
      <trkpt lat="44.15702" lon="2.79323">
        <ele>994.14</ele>
        <time>2022-07-14T08:49:20Z</time>
      </trkpt>
      <trkpt lat="44.15709" lon="2.79336">
        <ele>994.14</ele>
        <time>2022-07-14T08:49:23Z</time>
      </trkpt>
      <trkpt lat="44.15715" lon="2.79349">
        <ele>994.14</ele>
        <time>2022-07-14T08:49:26Z</time>
      </trkpt>
      <trkpt lat="44.1572" lon="2.79363">
        <ele>993.66</ele>
        <time>2022-07-14T08:49:31Z</time>
      </trkpt>
      <trkpt lat="44.15724" lon="2.79378">
        <ele>993.18</ele>
        <time>2022-07-14T08:49:35Z</time>
      </trkpt>
      <trkpt lat="44.15727" lon="2.794">
        <ele>993.18</ele>
        <time>2022-07-14T08:49:40Z</time>
      </trkpt>
      <trkpt lat="44.15729" lon="2.79416">
        <ele>993.18</ele>
        <time>2022-07-14T08:49:44Z</time>
      </trkpt>
      <trkpt lat="44.15729" lon="2.79434">
        <ele>993.66</ele>
        <time>2022-07-14T08:49:48Z</time>
      </trkpt>
      <trkpt lat="44.15732" lon="2.79449">
        <ele>993.66</ele>
        <time>2022-07-14T08:49:53Z</time>
      </trkpt>
      <trkpt lat="44.15733" lon="2.79466">
        <ele>994.14</ele>
        <time>2022-07-14T08:49:57Z</time>
      </trkpt>
      <trkpt lat="44.15733" lon="2.79482">
        <ele>994.62</ele>
        <time>2022-07-14T08:50:01Z</time>
      </trkpt>
      <trkpt lat="44.15734" lon="2.79498">
        <ele>995.1</ele>
        <time>2022-07-14T08:50:05Z</time>
      </trkpt>
      <trkpt lat="44.15735" lon="2.79516">
        <ele>995.58</ele>
        <time>2022-07-14T08:50:10Z</time>
      </trkpt>
      <trkpt lat="44.15736" lon="2.79536">
        <ele>995.1</ele>
        <time>2022-07-14T08:50:14Z</time>
      </trkpt>
      <trkpt lat="44.15737" lon="2.79557">
        <ele>995.58</ele>
        <time>2022-07-14T08:50:18Z</time>
      </trkpt>
      <trkpt lat="44.15738" lon="2.79573">
        <ele>996.06</ele>
        <time>2022-07-14T08:50:21Z</time>
      </trkpt>
      <trkpt lat="44.1574" lon="2.79589">
        <ele>996.06</ele>
        <time>2022-07-14T08:50:24Z</time>
      </trkpt>
      <trkpt lat="44.15743" lon="2.79605">
        <ele>996.54</ele>
        <time>2022-07-14T08:50:27Z</time>
      </trkpt>
      <trkpt lat="44.15748" lon="2.7962">
        <ele>996.54</ele>
        <time>2022-07-14T08:50:30Z</time>
      </trkpt>
      <trkpt lat="44.15752" lon="2.79636">
        <ele>997.02</ele>
        <time>2022-07-14T08:50:33Z</time>
      </trkpt>
      <trkpt lat="44.15756" lon="2.79651">
        <ele>997.02</ele>
        <time>2022-07-14T08:50:36Z</time>
      </trkpt>
      <trkpt lat="44.15761" lon="2.79665">
        <ele>996.54</ele>
        <time>2022-07-14T08:50:39Z</time>
      </trkpt>
      <trkpt lat="44.15766" lon="2.79678">
        <ele>996.54</ele>
        <time>2022-07-14T08:50:42Z</time>
      </trkpt>
      <trkpt lat="44.15771" lon="2.79692">
        <ele>997.02</ele>
        <time>2022-07-14T08:50:45Z</time>
      </trkpt>
      <trkpt lat="44.15775" lon="2.79705">
        <ele>997.99</ele>
        <time>2022-07-14T08:50:48Z</time>
      </trkpt>
      <trkpt lat="44.15779" lon="2.79718">
        <ele>998.95</ele>
        <time>2022-07-14T08:50:51Z</time>
      </trkpt>
      <trkpt lat="44.15782" lon="2.79733">
        <ele>1000.39</ele>
        <time>2022-07-14T08:50:54Z</time>
      </trkpt>
      <trkpt lat="44.15786" lon="2.79749">
        <ele>1001.83</ele>
        <time>2022-07-14T08:50:58Z</time>
      </trkpt>
      <trkpt lat="44.1579" lon="2.79765">
        <ele>1003.75</ele>
        <time>2022-07-14T08:51:02Z</time>
      </trkpt>
      <trkpt lat="44.15795" lon="2.79783">
        <ele>1004.72</ele>
        <time>2022-07-14T08:51:06Z</time>
      </trkpt>
      <trkpt lat="44.15798" lon="2.79797">
        <ele>1006.16</ele>
        <time>2022-07-14T08:51:09Z</time>
      </trkpt>
      <trkpt lat="44.15802" lon="2.7981">
        <ele>1006.16</ele>
        <time>2022-07-14T08:51:12Z</time>
      </trkpt>
      <trkpt lat="44.15805" lon="2.79826">
        <ele>1006.16</ele>
        <time>2022-07-14T08:51:16Z</time>
      </trkpt>
      <trkpt lat="44.15813" lon="2.79838">
        <ele>1002.31</ele>
        <time>2022-07-14T08:51:27Z</time>
      </trkpt>
      <trkpt lat="44.15826" lon="2.79828">
        <ele>999.43</ele>
        <time>2022-07-14T08:51:32Z</time>
      </trkpt>
      <trkpt lat="44.15839" lon="2.79819">
        <ele>997.99</ele>
        <time>2022-07-14T08:51:35Z</time>
      </trkpt>
      <trkpt lat="44.1585" lon="2.79811">
        <ele>996.54</ele>
        <time>2022-07-14T08:51:38Z</time>
      </trkpt>
      <trkpt lat="44.1586" lon="2.79802">
        <ele>996.06</ele>
        <time>2022-07-14T08:51:41Z</time>
      </trkpt>
      <trkpt lat="44.15873" lon="2.79793">
        <ele>996.06</ele>
        <time>2022-07-14T08:51:44Z</time>
      </trkpt>
      <trkpt lat="44.15884" lon="2.79783">
        <ele>996.06</ele>
        <time>2022-07-14T08:51:47Z</time>
      </trkpt>
      <trkpt lat="44.15894" lon="2.79774">
        <ele>996.06</ele>
        <time>2022-07-14T08:51:50Z</time>
      </trkpt>
      <trkpt lat="44.15902" lon="2.79766">
        <ele>996.06</ele>
        <time>2022-07-14T08:51:53Z</time>
      </trkpt>
      <trkpt lat="44.15911" lon="2.79758">
        <ele>996.54</ele>
        <time>2022-07-14T08:51:56Z</time>
      </trkpt>
      <trkpt lat="44.15921" lon="2.79749">
        <ele>997.02</ele>
        <time>2022-07-14T08:52:00Z</time>
      </trkpt>
      <trkpt lat="44.15931" lon="2.79743">
        <ele>997.02</ele>
        <time>2022-07-14T08:52:04Z</time>
      </trkpt>
      <trkpt lat="44.15943" lon="2.79736">
        <ele>996.54</ele>
        <time>2022-07-14T08:52:09Z</time>
      </trkpt>
      <trkpt lat="44.15982" lon="2.79716">
        <ele>995.58</ele>
        <time>2022-07-14T08:52:37Z</time>
      </trkpt>
      <trkpt lat="44.16038" lon="2.79682">
        <ele>993.18</ele>
        <time>2022-07-14T08:53:14Z</time>
      </trkpt>
      <trkpt lat="44.1606" lon="2.79671">
        <ele>987.41</ele>
        <time>2022-07-14T08:53:30Z</time>
      </trkpt>
      <trkpt lat="44.16073" lon="2.79667">
        <ele>987.89</ele>
        <time>2022-07-14T08:53:39Z</time>
      </trkpt>
      <trkpt lat="44.16083" lon="2.79663">
        <ele>988.37</ele>
        <time>2022-07-14T08:53:46Z</time>
      </trkpt>
      <trkpt lat="44.16093" lon="2.79658">
        <ele>988.37</ele>
        <time>2022-07-14T08:53:53Z</time>
      </trkpt>
      <trkpt lat="44.16104" lon="2.79652">
        <ele>987.89</ele>
        <time>2022-07-14T08:54:02Z</time>
      </trkpt>
      <trkpt lat="44.16119" lon="2.79639">
        <ele>985.49</ele>
        <time>2022-07-14T08:54:19Z</time>
      </trkpt>
      <trkpt lat="44.16166" lon="2.79608">
        <ele>981.16</ele>
        <time>2022-07-14T08:55:00Z</time>
      </trkpt>
      <trkpt lat="44.16182" lon="2.79599">
        <ele>977.8</ele>
        <time>2022-07-14T08:55:08Z</time>
      </trkpt>
      <trkpt lat="44.16198" lon="2.79593">
        <ele>976.36</ele>
        <time>2022-07-14T08:55:16Z</time>
      </trkpt>
      <trkpt lat="44.16215" lon="2.79589">
        <ele>975.39</ele>
        <time>2022-07-14T08:55:23Z</time>
      </trkpt>
      <trkpt lat="44.16225" lon="2.79585">
        <ele>973.95</ele>
        <time>2022-07-14T08:55:29Z</time>
      </trkpt>
      <trkpt lat="44.16234" lon="2.79578">
        <ele>972.03</ele>
        <time>2022-07-14T08:55:36Z</time>
      </trkpt>
      <trkpt lat="44.16245" lon="2.79573">
        <ele>971.07</ele>
        <time>2022-07-14T08:55:43Z</time>
      </trkpt>
      <trkpt lat="44.16255" lon="2.79569">
        <ele>971.07</ele>
        <time>2022-07-14T08:55:49Z</time>
      </trkpt>
      <trkpt lat="44.16265" lon="2.79565">
        <ele>970.11</ele>
        <time>2022-07-14T08:55:56Z</time>
      </trkpt>
      <trkpt lat="44.16274" lon="2.7956">
        <ele>970.11</ele>
        <time>2022-07-14T08:56:02Z</time>
      </trkpt>
      <trkpt lat="44.16285" lon="2.79557">
        <ele>969.63</ele>
        <time>2022-07-14T08:56:09Z</time>
      </trkpt>
      <trkpt lat="44.16294" lon="2.79554">
        <ele>970.11</ele>
        <time>2022-07-14T08:56:15Z</time>
      </trkpt>
      <trkpt lat="44.16304" lon="2.79551">
        <ele>970.59</ele>
        <time>2022-07-14T08:56:22Z</time>
      </trkpt>
      <trkpt lat="44.16314" lon="2.79547">
        <ele>970.59</ele>
        <time>2022-07-14T08:56:29Z</time>
      </trkpt>
      <trkpt lat="44.16323" lon="2.79542">
        <ele>970.11</ele>
        <time>2022-07-14T08:56:36Z</time>
      </trkpt>
      <trkpt lat="44.16333" lon="2.79536">
        <ele>970.11</ele>
        <time>2022-07-14T08:56:43Z</time>
      </trkpt>
      <trkpt lat="44.16344" lon="2.79532">
        <ele>969.63</ele>
        <time>2022-07-14T08:56:50Z</time>
      </trkpt>
      <trkpt lat="44.16353" lon="2.79528">
        <ele>969.63</ele>
        <time>2022-07-14T08:56:57Z</time>
      </trkpt>
      <trkpt lat="44.16363" lon="2.79524">
        <ele>969.15</ele>
        <time>2022-07-14T08:57:04Z</time>
      </trkpt>
      <trkpt lat="44.16372" lon="2.7952">
        <ele>969.15</ele>
        <time>2022-07-14T08:57:10Z</time>
      </trkpt>
      <trkpt lat="44.16382" lon="2.79516">
        <ele>968.67</ele>
        <time>2022-07-14T08:57:17Z</time>
      </trkpt>
      <trkpt lat="44.16392" lon="2.79511">
        <ele>967.22</ele>
        <time>2022-07-14T08:57:25Z</time>
      </trkpt>
      <trkpt lat="44.16403" lon="2.79508">
        <ele>965.78</ele>
        <time>2022-07-14T08:57:32Z</time>
      </trkpt>
      <trkpt lat="44.16413" lon="2.79504">
        <ele>965.78</ele>
        <time>2022-07-14T08:57:39Z</time>
      </trkpt>
      <trkpt lat="44.16424" lon="2.795">
        <ele>965.78</ele>
        <time>2022-07-14T08:57:47Z</time>
      </trkpt>
      <trkpt lat="44.16449" lon="2.79488">
        <ele>968.67</ele>
        <time>2022-07-14T08:58:14Z</time>
      </trkpt>
      <trkpt lat="44.16462" lon="2.79482">
        <ele>968.67</ele>
        <time>2022-07-14T08:58:22Z</time>
      </trkpt>
      <trkpt lat="44.16474" lon="2.79477">
        <ele>968.67</ele>
        <time>2022-07-14T08:58:30Z</time>
      </trkpt>
      <trkpt lat="44.16485" lon="2.79471">
        <ele>968.18</ele>
        <time>2022-07-14T08:58:38Z</time>
      </trkpt>
      <trkpt lat="44.16497" lon="2.79468">
        <ele>966.26</ele>
        <time>2022-07-14T08:58:47Z</time>
      </trkpt>
      <trkpt lat="44.16583" lon="2.79432">
        <ele>953.28</ele>
        <time>2022-07-14T09:00:17Z</time>
      </trkpt>
      <trkpt lat="44.16602" lon="2.79411">
        <ele>946.56</ele>
        <time>2022-07-14T09:00:35Z</time>
      </trkpt>
      <trkpt lat="44.16617" lon="2.79397">
        <ele>944.15</ele>
        <time>2022-07-14T09:00:48Z</time>
      </trkpt>
      <trkpt lat="44.16633" lon="2.7938">
        <ele>943.67</ele>
        <time>2022-07-14T09:01:03Z</time>
      </trkpt>
      <trkpt lat="44.16659" lon="2.79357">
        <ele>941.27</ele>
        <time>2022-07-14T09:01:26Z</time>
      </trkpt>
      <trkpt lat="44.16678" lon="2.79336">
        <ele>941.75</ele>
        <time>2022-07-14T09:01:43Z</time>
      </trkpt>
      <trkpt lat="44.16701" lon="2.79319">
        <ele>934.06</ele>
        <time>2022-07-14T09:02:04Z</time>
      </trkpt>
      <trkpt lat="44.16711" lon="2.79311">
        <ele>935.02</ele>
        <time>2022-07-14T09:02:12Z</time>
      </trkpt>
      <trkpt lat="44.16723" lon="2.79304">
        <ele>935.5</ele>
        <time>2022-07-14T09:02:20Z</time>
      </trkpt>
      <trkpt lat="44.16735" lon="2.79298">
        <ele>934.06</ele>
        <time>2022-07-14T09:02:30Z</time>
      </trkpt>
      <trkpt lat="44.16748" lon="2.79288">
        <ele>937.42</ele>
        <time>2022-07-14T09:02:38Z</time>
      </trkpt>
      <trkpt lat="44.1676" lon="2.79279">
        <ele>938.38</ele>
        <time>2022-07-14T09:02:47Z</time>
      </trkpt>
      <trkpt lat="44.16769" lon="2.79271">
        <ele>938.38</ele>
        <time>2022-07-14T09:02:55Z</time>
      </trkpt>
      <trkpt lat="44.16781" lon="2.7926">
        <ele>937.9</ele>
        <time>2022-07-14T09:03:05Z</time>
      </trkpt>
      <trkpt lat="44.16791" lon="2.7925">
        <ele>937.42</ele>
        <time>2022-07-14T09:03:14Z</time>
      </trkpt>
      <trkpt lat="44.16801" lon="2.79241">
        <ele>935.98</ele>
        <time>2022-07-14T09:03:23Z</time>
      </trkpt>
      <trkpt lat="44.16812" lon="2.79232">
        <ele>934.54</ele>
        <time>2022-07-14T09:03:32Z</time>
      </trkpt>
      <trkpt lat="44.16824" lon="2.79222">
        <ele>931.65</ele>
        <time>2022-07-14T09:03:43Z</time>
      </trkpt>
      <trkpt lat="44.16833" lon="2.79215">
        <ele>931.65</ele>
        <time>2022-07-14T09:03:51Z</time>
      </trkpt>
      <trkpt lat="44.16843" lon="2.79207">
        <ele>931.65</ele>
        <time>2022-07-14T09:03:59Z</time>
      </trkpt>
      <trkpt lat="44.16853" lon="2.79202">
        <ele>933.1</ele>
        <time>2022-07-14T09:04:06Z</time>
      </trkpt>
      <trkpt lat="44.16863" lon="2.79195">
        <ele>933.1</ele>
        <time>2022-07-14T09:04:14Z</time>
      </trkpt>
      <trkpt lat="44.16872" lon="2.79189">
        <ele>933.1</ele>
        <time>2022-07-14T09:04:21Z</time>
      </trkpt>
      <trkpt lat="44.16882" lon="2.79186">
        <ele>932.14</ele>
        <time>2022-07-14T09:04:28Z</time>
      </trkpt>
      <trkpt lat="44.16893" lon="2.79183">
        <ele>932.14</ele>
        <time>2022-07-14T09:04:36Z</time>
      </trkpt>
      <trkpt lat="44.16903" lon="2.79181">
        <ele>931.65</ele>
        <time>2022-07-14T09:04:43Z</time>
      </trkpt>
      <trkpt lat="44.16914" lon="2.79176">
        <ele>930.21</ele>
        <time>2022-07-14T09:04:52Z</time>
      </trkpt>
      <trkpt lat="44.16925" lon="2.79172">
        <ele>928.77</ele>
        <time>2022-07-14T09:05:00Z</time>
      </trkpt>
      <trkpt lat="44.16938" lon="2.79168">
        <ele>927.81</ele>
        <time>2022-07-14T09:05:10Z</time>
      </trkpt>
      <trkpt lat="44.16952" lon="2.79166">
        <ele>926.85</ele>
        <time>2022-07-14T09:05:19Z</time>
      </trkpt>
      <trkpt lat="44.16963" lon="2.79164">
        <ele>926.85</ele>
        <time>2022-07-14T09:05:27Z</time>
      </trkpt>
      <trkpt lat="44.16975" lon="2.79159">
        <ele>926.37</ele>
        <time>2022-07-14T09:05:37Z</time>
      </trkpt>
      <trkpt lat="44.16986" lon="2.79157">
        <ele>924.93</ele>
        <time>2022-07-14T09:05:45Z</time>
      </trkpt>
      <trkpt lat="44.16997" lon="2.79152">
        <ele>922.52</ele>
        <time>2022-07-14T09:05:54Z</time>
      </trkpt>
      <trkpt lat="44.17009" lon="2.7915">
        <ele>922.04</ele>
        <time>2022-07-14T09:06:02Z</time>
      </trkpt>
      <trkpt lat="44.17019" lon="2.79149">
        <ele>921.56</ele>
        <time>2022-07-14T09:06:09Z</time>
      </trkpt>
      <trkpt lat="44.1703" lon="2.79149">
        <ele>920.6</ele>
        <time>2022-07-14T09:06:16Z</time>
      </trkpt>
      <trkpt lat="44.17039" lon="2.79148">
        <ele>919.64</ele>
        <time>2022-07-14T09:06:23Z</time>
      </trkpt>
      <trkpt lat="44.1705" lon="2.79146">
        <ele>917.24</ele>
        <time>2022-07-14T09:06:31Z</time>
      </trkpt>
      <trkpt lat="44.1706" lon="2.79146">
        <ele>914.35</ele>
        <time>2022-07-14T09:06:39Z</time>
      </trkpt>
      <trkpt lat="44.17074" lon="2.79146">
        <ele>914.35</ele>
        <time>2022-07-14T09:06:49Z</time>
      </trkpt>
      <trkpt lat="44.17085" lon="2.79144">
        <ele>913.39</ele>
        <time>2022-07-14T09:07:00Z</time>
      </trkpt>
      <trkpt lat="44.17098" lon="2.79148">
        <ele>912.43</ele>
        <time>2022-07-14T09:07:19Z</time>
      </trkpt>
      <trkpt lat="44.17108" lon="2.79146">
        <ele>910.51</ele>
        <time>2022-07-14T09:07:26Z</time>
      </trkpt>
      <trkpt lat="44.17117" lon="2.79139">
        <ele>909.54</ele>
        <time>2022-07-14T09:07:34Z</time>
      </trkpt>
      <trkpt lat="44.17127" lon="2.79135">
        <ele>908.58</ele>
        <time>2022-07-14T09:07:42Z</time>
      </trkpt>
      <trkpt lat="44.17139" lon="2.79131">
        <ele>905.22</ele>
        <time>2022-07-14T09:07:52Z</time>
      </trkpt>
      <trkpt lat="44.17152" lon="2.79127">
        <ele>902.33</ele>
        <time>2022-07-14T09:08:02Z</time>
      </trkpt>
      <trkpt lat="44.17164" lon="2.79123">
        <ele>900.89</ele>
        <time>2022-07-14T09:08:11Z</time>
      </trkpt>
      <trkpt lat="44.17175" lon="2.7912">
        <ele>898.97</ele>
        <time>2022-07-14T09:08:21Z</time>
      </trkpt>
      <trkpt lat="44.1719" lon="2.7912">
        <ele>897.53</ele>
        <time>2022-07-14T09:08:30Z</time>
      </trkpt>
      <trkpt lat="44.17201" lon="2.79122">
        <ele>897.05</ele>
        <time>2022-07-14T09:08:38Z</time>
      </trkpt>
      <trkpt lat="44.17211" lon="2.79128">
        <ele>896.57</ele>
        <time>2022-07-14T09:08:46Z</time>
      </trkpt>
      <trkpt lat="44.1722" lon="2.79142">
        <ele>892.72</ele>
        <time>2022-07-14T09:08:58Z</time>
      </trkpt>
      <trkpt lat="44.17215" lon="2.79178">
        <ele>899.93</ele>
        <time>2022-07-14T09:11:30Z</time>
      </trkpt>
      <trkpt lat="44.17212" lon="2.79209">
        <ele>901.37</ele>
        <time>2022-07-14T09:11:46Z</time>
      </trkpt>
      <trkpt lat="44.17213" lon="2.79234">
        <ele>896.09</ele>
        <time>2022-07-14T09:12:01Z</time>
      </trkpt>
      <trkpt lat="44.1722" lon="2.7925">
        <ele>895.12</ele>
        <time>2022-07-14T09:12:13Z</time>
      </trkpt>
      <trkpt lat="44.17268" lon="2.79276">
        <ele>900.41</ele>
        <time>2022-07-14T09:13:10Z</time>
      </trkpt>
      <trkpt lat="44.17281" lon="2.79283">
        <ele>902.33</ele>
        <time>2022-07-14T09:13:21Z</time>
      </trkpt>
      <trkpt lat="44.1729" lon="2.79284">
        <ele>903.3</ele>
        <time>2022-07-14T09:13:29Z</time>
      </trkpt>
      <trkpt lat="44.17302" lon="2.79287">
        <ele>903.3</ele>
        <time>2022-07-14T09:13:37Z</time>
      </trkpt>
      <trkpt lat="44.17318" lon="2.7929">
        <ele>898.97</ele>
        <time>2022-07-14T09:13:49Z</time>
      </trkpt>
      <trkpt lat="44.17332" lon="2.79292">
        <ele>896.57</ele>
        <time>2022-07-14T09:13:59Z</time>
      </trkpt>
      <trkpt lat="44.17348" lon="2.79294">
        <ele>893.2</ele>
        <time>2022-07-14T09:14:11Z</time>
      </trkpt>
      <trkpt lat="44.17362" lon="2.79293">
        <ele>892.24</ele>
        <time>2022-07-14T09:14:20Z</time>
      </trkpt>
      <trkpt lat="44.17375" lon="2.79292">
        <ele>893.68</ele>
        <time>2022-07-14T09:14:28Z</time>
      </trkpt>
      <trkpt lat="44.17386" lon="2.79289">
        <ele>895.61</ele>
        <time>2022-07-14T09:14:35Z</time>
      </trkpt>
      <trkpt lat="44.17397" lon="2.79287">
        <ele>896.09</ele>
        <time>2022-07-14T09:14:42Z</time>
      </trkpt>
      <trkpt lat="44.1741" lon="2.79285">
        <ele>896.09</ele>
        <time>2022-07-14T09:14:50Z</time>
      </trkpt>
      <trkpt lat="44.17424" lon="2.79284">
        <ele>896.09</ele>
        <time>2022-07-14T09:15:00Z</time>
      </trkpt>
      <trkpt lat="44.17436" lon="2.79286">
        <ele>897.53</ele>
        <time>2022-07-14T09:15:08Z</time>
      </trkpt>
      <trkpt lat="44.17447" lon="2.79289">
        <ele>897.53</ele>
        <time>2022-07-14T09:15:15Z</time>
      </trkpt>
      <trkpt lat="44.17459" lon="2.79292">
        <ele>897.53</ele>
        <time>2022-07-14T09:15:23Z</time>
      </trkpt>
      <trkpt lat="44.17472" lon="2.79297">
        <ele>898.01</ele>
        <time>2022-07-14T09:15:31Z</time>
      </trkpt>
      <trkpt lat="44.17486" lon="2.79302">
        <ele>895.61</ele>
        <time>2022-07-14T09:15:42Z</time>
      </trkpt>
      <trkpt lat="44.17498" lon="2.79307">
        <ele>893.68</ele>
        <time>2022-07-14T09:15:51Z</time>
      </trkpt>
      <trkpt lat="44.17509" lon="2.79313">
        <ele>893.68</ele>
        <time>2022-07-14T09:15:59Z</time>
      </trkpt>
      <trkpt lat="44.17522" lon="2.79318">
        <ele>892.24</ele>
        <time>2022-07-14T09:16:07Z</time>
      </trkpt>
      <trkpt lat="44.17534" lon="2.79325">
        <ele>888.4</ele>
        <time>2022-07-14T09:16:19Z</time>
      </trkpt>
      <trkpt lat="44.17551" lon="2.79331">
        <ele>887.43</ele>
        <time>2022-07-14T09:16:28Z</time>
      </trkpt>
      <trkpt lat="44.17564" lon="2.79335">
        <ele>885.51</ele>
        <time>2022-07-14T09:16:38Z</time>
      </trkpt>
      <trkpt lat="44.17575" lon="2.79342">
        <ele>885.51</ele>
        <time>2022-07-14T09:16:48Z</time>
      </trkpt>
      <trkpt lat="44.17597" lon="2.7935">
        <ele>882.15</ele>
        <time>2022-07-14T09:17:01Z</time>
      </trkpt>
      <trkpt lat="44.17609" lon="2.79357">
        <ele>882.63</ele>
        <time>2022-07-14T09:17:09Z</time>
      </trkpt>
      <trkpt lat="44.17622" lon="2.79365">
        <ele>883.11</ele>
        <time>2022-07-14T09:17:17Z</time>
      </trkpt>
      <trkpt lat="44.17634" lon="2.79371">
        <ele>884.07</ele>
        <time>2022-07-14T09:17:24Z</time>
      </trkpt>
      <trkpt lat="44.17646" lon="2.79377">
        <ele>884.55</ele>
        <time>2022-07-14T09:17:32Z</time>
      </trkpt>
      <trkpt lat="44.17658" lon="2.79383">
        <ele>885.51</ele>
        <time>2022-07-14T09:17:39Z</time>
      </trkpt>
      <trkpt lat="44.17669" lon="2.7939">
        <ele>885.51</ele>
        <time>2022-07-14T09:17:46Z</time>
      </trkpt>
      <trkpt lat="44.1768" lon="2.79397">
        <ele>884.55</ele>
        <time>2022-07-14T09:17:55Z</time>
      </trkpt>
      <trkpt lat="44.17691" lon="2.79406">
        <ele>882.63</ele>
        <time>2022-07-14T09:18:04Z</time>
      </trkpt>
      <trkpt lat="44.17702" lon="2.79411">
        <ele>883.11</ele>
        <time>2022-07-14T09:18:12Z</time>
      </trkpt>
      <trkpt lat="44.17713" lon="2.79415">
        <ele>883.59</ele>
        <time>2022-07-14T09:18:19Z</time>
      </trkpt>
      <trkpt lat="44.17722" lon="2.79419">
        <ele>883.59</ele>
        <time>2022-07-14T09:18:26Z</time>
      </trkpt>
      <trkpt lat="44.17733" lon="2.79423">
        <ele>883.59</ele>
        <time>2022-07-14T09:18:33Z</time>
      </trkpt>
      <trkpt lat="44.17743" lon="2.79427">
        <ele>882.15</ele>
        <time>2022-07-14T09:18:40Z</time>
      </trkpt>
      <trkpt lat="44.17754" lon="2.79434">
        <ele>879.74</ele>
        <time>2022-07-14T09:18:49Z</time>
      </trkpt>
      <trkpt lat="44.17765" lon="2.79438">
        <ele>877.34</ele>
        <time>2022-07-14T09:18:57Z</time>
      </trkpt>
      <trkpt lat="44.17778" lon="2.79443">
        <ele>877.34</ele>
        <time>2022-07-14T09:19:05Z</time>
      </trkpt>
      <trkpt lat="44.17787" lon="2.79447">
        <ele>876.38</ele>
        <time>2022-07-14T09:19:12Z</time>
      </trkpt>
      <trkpt lat="44.17799" lon="2.79453">
        <ele>874.46</ele>
        <time>2022-07-14T09:19:21Z</time>
      </trkpt>
      <trkpt lat="44.17811" lon="2.79459">
        <ele>871.09</ele>
        <time>2022-07-14T09:19:30Z</time>
      </trkpt>
      <trkpt lat="44.17823" lon="2.79467">
        <ele>869.65</ele>
        <time>2022-07-14T09:19:38Z</time>
      </trkpt>
      <trkpt lat="44.17835" lon="2.79474">
        <ele>867.73</ele>
        <time>2022-07-14T09:19:48Z</time>
      </trkpt>
      <trkpt lat="44.17849" lon="2.79479">
        <ele>864.84</ele>
        <time>2022-07-14T09:19:58Z</time>
      </trkpt>
      <trkpt lat="44.1786" lon="2.79481">
        <ele>862.44</ele>
        <time>2022-07-14T09:20:07Z</time>
      </trkpt>
      <trkpt lat="44.17872" lon="2.79481">
        <ele>862.44</ele>
        <time>2022-07-14T09:20:15Z</time>
      </trkpt>
      <trkpt lat="44.17883" lon="2.79487">
        <ele>861</ele>
        <time>2022-07-14T09:20:23Z</time>
      </trkpt>
      <trkpt lat="44.17896" lon="2.79495">
        <ele>857.63</ele>
        <time>2022-07-14T09:20:33Z</time>
      </trkpt>
      <trkpt lat="44.17906" lon="2.79504">
        <ele>853.79</ele>
        <time>2022-07-14T09:20:41Z</time>
      </trkpt>
      <trkpt lat="44.1792" lon="2.79514">
        <ele>849.94</ele>
        <time>2022-07-14T09:20:53Z</time>
      </trkpt>
      <trkpt lat="44.17932" lon="2.79523">
        <ele>850.9</ele>
        <time>2022-07-14T09:21:01Z</time>
      </trkpt>
      <trkpt lat="44.17955" lon="2.79536">
        <ele>851.38</ele>
        <time>2022-07-14T09:21:17Z</time>
      </trkpt>
      <trkpt lat="44.17967" lon="2.79545">
        <ele>851.38</ele>
        <time>2022-07-14T09:21:25Z</time>
      </trkpt>
      <trkpt lat="44.1798" lon="2.79556">
        <ele>852.83</ele>
        <time>2022-07-14T09:21:33Z</time>
      </trkpt>
      <trkpt lat="44.17988" lon="2.79569">
        <ele>853.79</ele>
        <time>2022-07-14T09:21:41Z</time>
      </trkpt>
      <trkpt lat="44.17996" lon="2.79581">
        <ele>853.79</ele>
        <time>2022-07-14T09:21:49Z</time>
      </trkpt>
      <trkpt lat="44.18013" lon="2.79591">
        <ele>852.83</ele>
        <time>2022-07-14T09:22:04Z</time>
      </trkpt>
      <trkpt lat="44.18031" lon="2.79594">
        <ele>855.23</ele>
        <time>2022-07-14T09:22:13Z</time>
      </trkpt>
      <trkpt lat="44.18043" lon="2.79591">
        <ele>855.23</ele>
        <time>2022-07-14T09:22:21Z</time>
      </trkpt>
      <trkpt lat="44.1805" lon="2.79583">
        <ele>854.27</ele>
        <time>2022-07-14T09:22:28Z</time>
      </trkpt>
      <trkpt lat="44.18054" lon="2.7957">
        <ele>852.83</ele>
        <time>2022-07-14T09:22:35Z</time>
      </trkpt>
      <trkpt lat="44.18059" lon="2.79556">
        <ele>851.38</ele>
        <time>2022-07-14T09:22:43Z</time>
      </trkpt>
      <trkpt lat="44.18064" lon="2.7953">
        <ele>848.5</ele>
        <time>2022-07-14T09:22:57Z</time>
      </trkpt>
      <trkpt lat="44.1807" lon="2.79514">
        <ele>847.06</ele>
        <time>2022-07-14T09:23:07Z</time>
      </trkpt>
      <trkpt lat="44.18082" lon="2.79508">
        <ele>845.62</ele>
        <time>2022-07-14T09:23:16Z</time>
      </trkpt>
      <trkpt lat="44.18094" lon="2.79502">
        <ele>844.66</ele>
        <time>2022-07-14T09:23:24Z</time>
      </trkpt>
      <trkpt lat="44.18106" lon="2.79496">
        <ele>842.25</ele>
        <time>2022-07-14T09:23:33Z</time>
      </trkpt>
      <trkpt lat="44.18118" lon="2.79491">
        <ele>839.37</ele>
        <time>2022-07-14T09:23:41Z</time>
      </trkpt>
      <trkpt lat="44.18129" lon="2.79485">
        <ele>838.89</ele>
        <time>2022-07-14T09:23:49Z</time>
      </trkpt>
      <trkpt lat="44.18139" lon="2.79482">
        <ele>836.96</ele>
        <time>2022-07-14T09:23:56Z</time>
      </trkpt>
      <trkpt lat="44.1815" lon="2.79478">
        <ele>834.56</ele>
        <time>2022-07-14T09:24:04Z</time>
      </trkpt>
      <trkpt lat="44.1816" lon="2.79473">
        <ele>832.64</ele>
        <time>2022-07-14T09:24:14Z</time>
      </trkpt>
      <trkpt lat="44.18171" lon="2.79467">
        <ele>829.76</ele>
        <time>2022-07-14T09:24:23Z</time>
      </trkpt>
      <trkpt lat="44.18182" lon="2.79464">
        <ele>827.35</ele>
        <time>2022-07-14T09:24:33Z</time>
      </trkpt>
      <trkpt lat="44.18193" lon="2.79459">
        <ele>824.47</ele>
        <time>2022-07-14T09:24:42Z</time>
      </trkpt>
      <trkpt lat="44.18206" lon="2.79454">
        <ele>821.1</ele>
        <time>2022-07-14T09:24:52Z</time>
      </trkpt>
      <trkpt lat="44.18243" lon="2.79423">
        <ele>816.78</ele>
        <time>2022-07-14T09:25:39Z</time>
      </trkpt>
      <trkpt lat="44.18252" lon="2.79409">
        <ele>815.34</ele>
        <time>2022-07-14T09:25:48Z</time>
      </trkpt>
      <trkpt lat="44.18259" lon="2.79392">
        <ele>815.34</ele>
        <time>2022-07-14T09:25:55Z</time>
      </trkpt>
      <trkpt lat="44.18264" lon="2.79378">
        <ele>815.34</ele>
        <time>2022-07-14T09:26:03Z</time>
      </trkpt>
      <trkpt lat="44.18269" lon="2.79367">
        <ele>816.78</ele>
        <time>2022-07-14T09:26:16Z</time>
      </trkpt>
      <trkpt lat="44.18279" lon="2.79366">
        <ele>816.3</ele>
        <time>2022-07-14T09:26:24Z</time>
      </trkpt>
      <trkpt lat="44.1829" lon="2.79369">
        <ele>816.3</ele>
        <time>2022-07-14T09:26:31Z</time>
      </trkpt>
      <trkpt lat="44.18299" lon="2.79374">
        <ele>815.34</ele>
        <time>2022-07-14T09:26:38Z</time>
      </trkpt>
      <trkpt lat="44.18309" lon="2.79381">
        <ele>813.89</ele>
        <time>2022-07-14T09:26:47Z</time>
      </trkpt>
      <trkpt lat="44.18319" lon="2.7939">
        <ele>812.45</ele>
        <time>2022-07-14T09:26:56Z</time>
      </trkpt>
      <trkpt lat="44.18328" lon="2.79402">
        <ele>811.49</ele>
        <time>2022-07-14T09:27:04Z</time>
      </trkpt>
      <trkpt lat="44.18351" lon="2.79423">
        <ele>818.22</ele>
        <time>2022-07-14T09:32:17Z</time>
      </trkpt>
      <trkpt lat="44.18361" lon="2.7943">
        <ele>817.74</ele>
        <time>2022-07-14T09:32:27Z</time>
      </trkpt>
      <trkpt lat="44.18369" lon="2.79451">
        <ele>815.34</ele>
        <time>2022-07-14T09:32:42Z</time>
      </trkpt>
      <trkpt lat="44.18372" lon="2.79466">
        <ele>815.82</ele>
        <time>2022-07-14T09:32:50Z</time>
      </trkpt>
      <trkpt lat="44.18376" lon="2.79479">
        <ele>815.82</ele>
        <time>2022-07-14T09:32:58Z</time>
      </trkpt>
      <trkpt lat="44.18381" lon="2.79494">
        <ele>814.85</ele>
        <time>2022-07-14T09:33:07Z</time>
      </trkpt>
      <trkpt lat="44.18388" lon="2.79508">
        <ele>815.82</ele>
        <time>2022-07-14T09:33:15Z</time>
      </trkpt>
      <trkpt lat="44.18394" lon="2.79519">
        <ele>817.26</ele>
        <time>2022-07-14T09:33:22Z</time>
      </trkpt>
      <trkpt lat="44.18404" lon="2.79517">
        <ele>818.22</ele>
        <time>2022-07-14T09:33:30Z</time>
      </trkpt>
      <trkpt lat="44.1841" lon="2.79506">
        <ele>817.74</ele>
        <time>2022-07-14T09:33:37Z</time>
      </trkpt>
      <trkpt lat="44.18415" lon="2.79494">
        <ele>816.78</ele>
        <time>2022-07-14T09:33:44Z</time>
      </trkpt>
      <trkpt lat="44.18419" lon="2.7948">
        <ele>815.34</ele>
        <time>2022-07-14T09:33:51Z</time>
      </trkpt>
      <trkpt lat="44.18423" lon="2.79467">
        <ele>814.37</ele>
        <time>2022-07-14T09:33:58Z</time>
      </trkpt>
      <trkpt lat="44.18427" lon="2.79453">
        <ele>813.41</ele>
        <time>2022-07-14T09:34:05Z</time>
      </trkpt>
      <trkpt lat="44.18433" lon="2.7944">
        <ele>813.41</ele>
        <time>2022-07-14T09:34:12Z</time>
      </trkpt>
      <trkpt lat="44.18439" lon="2.79426">
        <ele>812.45</ele>
        <time>2022-07-14T09:34:20Z</time>
      </trkpt>
      <trkpt lat="44.18445" lon="2.79412">
        <ele>812.45</ele>
        <time>2022-07-14T09:34:28Z</time>
      </trkpt>
      <trkpt lat="44.1845" lon="2.79397">
        <ele>811.97</ele>
        <time>2022-07-14T09:34:35Z</time>
      </trkpt>
      <trkpt lat="44.18453" lon="2.79381">
        <ele>812.93</ele>
        <time>2022-07-14T09:34:42Z</time>
      </trkpt>
      <trkpt lat="44.18454" lon="2.79367">
        <ele>813.41</ele>
        <time>2022-07-14T09:34:48Z</time>
      </trkpt>
      <trkpt lat="44.18456" lon="2.79351">
        <ele>813.89</ele>
        <time>2022-07-14T09:34:55Z</time>
      </trkpt>
      <trkpt lat="44.18457" lon="2.79336">
        <ele>813.89</ele>
        <time>2022-07-14T09:35:02Z</time>
      </trkpt>
      <trkpt lat="44.18457" lon="2.79322">
        <ele>813.89</ele>
        <time>2022-07-14T09:35:08Z</time>
      </trkpt>
      <trkpt lat="44.18455" lon="2.79307">
        <ele>813.89</ele>
        <time>2022-07-14T09:35:15Z</time>
      </trkpt>
      <trkpt lat="44.18453" lon="2.79292">
        <ele>812.93</ele>
        <time>2022-07-14T09:35:22Z</time>
      </trkpt>
      <trkpt lat="44.18451" lon="2.7928">
        <ele>811.97</ele>
        <time>2022-07-14T09:35:28Z</time>
      </trkpt>
      <trkpt lat="44.18447" lon="2.79267">
        <ele>811.49</ele>
        <time>2022-07-14T09:35:34Z</time>
      </trkpt>
      <trkpt lat="44.18443" lon="2.79253">
        <ele>811.01</ele>
        <time>2022-07-14T09:35:41Z</time>
      </trkpt>
      <trkpt lat="44.18438" lon="2.79241">
        <ele>810.53</ele>
        <time>2022-07-14T09:35:48Z</time>
      </trkpt>
      <trkpt lat="44.18432" lon="2.7923">
        <ele>811.01</ele>
        <time>2022-07-14T09:35:54Z</time>
      </trkpt>
      <trkpt lat="44.18428" lon="2.79216">
        <ele>811.97</ele>
        <time>2022-07-14T09:36:01Z</time>
      </trkpt>
      <trkpt lat="44.18425" lon="2.79202">
        <ele>811.97</ele>
        <time>2022-07-14T09:36:09Z</time>
      </trkpt>
      <trkpt lat="44.18426" lon="2.79186">
        <ele>811.97</ele>
        <time>2022-07-14T09:36:17Z</time>
      </trkpt>
      <trkpt lat="44.18425" lon="2.79172">
        <ele>812.93</ele>
        <time>2022-07-14T09:36:24Z</time>
      </trkpt>
      <trkpt lat="44.18427" lon="2.79157">
        <ele>814.85</ele>
        <time>2022-07-14T09:36:31Z</time>
      </trkpt>
      <trkpt lat="44.18432" lon="2.79145">
        <ele>814.85</ele>
        <time>2022-07-14T09:36:38Z</time>
      </trkpt>
      <trkpt lat="44.18441" lon="2.79133">
        <ele>814.85</ele>
        <time>2022-07-14T09:36:46Z</time>
      </trkpt>
      <trkpt lat="44.18446" lon="2.79119">
        <ele>814.37</ele>
        <time>2022-07-14T09:36:54Z</time>
      </trkpt>
      <trkpt lat="44.18451" lon="2.79105">
        <ele>813.89</ele>
        <time>2022-07-14T09:37:01Z</time>
      </trkpt>
      <trkpt lat="44.18454" lon="2.7909">
        <ele>813.89</ele>
        <time>2022-07-14T09:37:09Z</time>
      </trkpt>
      <trkpt lat="44.18464" lon="2.79097">
        <ele>814.37</ele>
        <time>2022-07-14T09:37:17Z</time>
      </trkpt>
      <trkpt lat="44.18475" lon="2.79104">
        <ele>813.89</ele>
        <time>2022-07-14T09:37:25Z</time>
      </trkpt>
      <trkpt lat="44.18485" lon="2.79112">
        <ele>814.37</ele>
        <time>2022-07-14T09:37:33Z</time>
      </trkpt>
      <trkpt lat="44.18496" lon="2.79116">
        <ele>814.37</ele>
        <time>2022-07-14T09:37:41Z</time>
      </trkpt>
      <trkpt lat="44.18508" lon="2.79119">
        <ele>813.41</ele>
        <time>2022-07-14T09:37:51Z</time>
      </trkpt>
      <trkpt lat="44.1852" lon="2.79125">
        <ele>815.82</ele>
        <time>2022-07-14T09:38:01Z</time>
      </trkpt>
      <trkpt lat="44.18526" lon="2.79154">
        <ele>820.14</ele>
        <time>2022-07-14T09:38:28Z</time>
      </trkpt>
      <trkpt lat="44.18512" lon="2.79164">
        <ele>822.55</ele>
        <time>2022-07-14T09:38:36Z</time>
      </trkpt>
      <trkpt lat="44.18506" lon="2.7918">
        <ele>824.95</ele>
        <time>2022-07-14T09:38:44Z</time>
      </trkpt>
      <trkpt lat="44.18514" lon="2.79192">
        <ele>827.83</ele>
        <time>2022-07-14T09:38:50Z</time>
      </trkpt>
      <trkpt lat="44.18521" lon="2.79203">
        <ele>829.76</ele>
        <time>2022-07-14T09:38:57Z</time>
      </trkpt>
      <trkpt lat="44.18528" lon="2.79211">
        <ele>833.12</ele>
        <time>2022-07-14T09:39:05Z</time>
      </trkpt>
      <trkpt lat="44.18539" lon="2.79218">
        <ele>836.96</ele>
        <time>2022-07-14T09:39:15Z</time>
      </trkpt>
      <trkpt lat="44.18556" lon="2.7923">
        <ele>842.25</ele>
        <time>2022-07-14T09:39:29Z</time>
      </trkpt>
      <trkpt lat="44.18568" lon="2.79239">
        <ele>845.14</ele>
        <time>2022-07-14T09:39:37Z</time>
      </trkpt>
      <trkpt lat="44.18578" lon="2.79242">
        <ele>846.58</ele>
        <time>2022-07-14T09:39:45Z</time>
      </trkpt>
      <trkpt lat="44.18589" lon="2.79238">
        <ele>847.06</ele>
        <time>2022-07-14T09:39:53Z</time>
      </trkpt>
      <trkpt lat="44.18598" lon="2.7923">
        <ele>847.06</ele>
        <time>2022-07-14T09:40:01Z</time>
      </trkpt>
      <trkpt lat="44.18607" lon="2.79222">
        <ele>846.58</ele>
        <time>2022-07-14T09:40:08Z</time>
      </trkpt>
      <trkpt lat="44.18618" lon="2.79213">
        <ele>846.58</ele>
        <time>2022-07-14T09:40:16Z</time>
      </trkpt>
      <trkpt lat="44.18627" lon="2.79207">
        <ele>846.58</ele>
        <time>2022-07-14T09:40:23Z</time>
      </trkpt>
      <trkpt lat="44.18637" lon="2.79204">
        <ele>851.38</ele>
        <time>2022-07-14T09:40:33Z</time>
      </trkpt>
      <trkpt lat="44.18632" lon="2.79213">
        <ele>851.38</ele>
        <time>2022-07-14T09:40:46Z</time>
      </trkpt>
      <trkpt lat="44.18621" lon="2.79231">
        <ele>849.46</ele>
        <time>2022-07-14T09:42:19Z</time>
      </trkpt>
      <trkpt lat="44.18616" lon="2.79243">
        <ele>848.98</ele>
        <time>2022-07-14T09:42:27Z</time>
      </trkpt>
      <trkpt lat="44.18615" lon="2.79261">
        <ele>850.42</ele>
        <time>2022-07-14T09:42:35Z</time>
      </trkpt>
      <trkpt lat="44.18625" lon="2.79277">
        <ele>853.31</ele>
        <time>2022-07-14T09:42:48Z</time>
      </trkpt>
      <trkpt lat="44.18638" lon="2.79288">
        <ele>854.27</ele>
        <time>2022-07-14T09:42:58Z</time>
      </trkpt>
      <trkpt lat="44.18654" lon="2.79298">
        <ele>857.15</ele>
        <time>2022-07-14T09:43:10Z</time>
      </trkpt>
      <trkpt lat="44.18666" lon="2.7931">
        <ele>859.08</ele>
        <time>2022-07-14T09:43:21Z</time>
      </trkpt>
      <trkpt lat="44.18682" lon="2.79322">
        <ele>861.96</ele>
        <time>2022-07-14T09:43:35Z</time>
      </trkpt>
      <trkpt lat="44.18696" lon="2.79328">
        <ele>864.84</ele>
        <time>2022-07-14T09:43:43Z</time>
      </trkpt>
      <trkpt lat="44.18706" lon="2.79335">
        <ele>865.8</ele>
        <time>2022-07-14T09:43:51Z</time>
      </trkpt>
      <trkpt lat="44.18718" lon="2.79344">
        <ele>867.73</ele>
        <time>2022-07-14T09:44:01Z</time>
      </trkpt>
      <trkpt lat="44.18728" lon="2.79353">
        <ele>868.69</ele>
        <time>2022-07-14T09:44:09Z</time>
      </trkpt>
      <trkpt lat="44.18736" lon="2.79363">
        <ele>869.65</ele>
        <time>2022-07-14T09:44:17Z</time>
      </trkpt>
      <trkpt lat="44.18742" lon="2.79375">
        <ele>870.13</ele>
        <time>2022-07-14T09:44:24Z</time>
      </trkpt>
      <trkpt lat="44.18744" lon="2.79388">
        <ele>870.61</ele>
        <time>2022-07-14T09:44:31Z</time>
      </trkpt>
      <trkpt lat="44.18745" lon="2.79403">
        <ele>870.61</ele>
        <time>2022-07-14T09:44:39Z</time>
      </trkpt>
      <trkpt lat="44.18743" lon="2.79417">
        <ele>871.09</ele>
        <time>2022-07-14T09:44:46Z</time>
      </trkpt>
      <trkpt lat="44.18743" lon="2.79432">
        <ele>871.57</ele>
        <time>2022-07-14T09:44:55Z</time>
      </trkpt>
      <trkpt lat="44.18743" lon="2.79445">
        <ele>873.5</ele>
        <time>2022-07-14T09:45:01Z</time>
      </trkpt>
      <trkpt lat="44.18746" lon="2.79458">
        <ele>874.94</ele>
        <time>2022-07-14T09:45:07Z</time>
      </trkpt>
      <trkpt lat="44.1875" lon="2.79469">
        <ele>876.38</ele>
        <time>2022-07-14T09:45:13Z</time>
      </trkpt>
      <trkpt lat="44.18755" lon="2.79481">
        <ele>876.86</ele>
        <time>2022-07-14T09:45:20Z</time>
      </trkpt>
      <trkpt lat="44.1876" lon="2.79493">
        <ele>877.82</ele>
        <time>2022-07-14T09:45:27Z</time>
      </trkpt>
      <trkpt lat="44.18765" lon="2.79505">
        <ele>879.26</ele>
        <time>2022-07-14T09:45:35Z</time>
      </trkpt>
      <trkpt lat="44.18769" lon="2.79518">
        <ele>880.71</ele>
        <time>2022-07-14T09:45:42Z</time>
      </trkpt>
      <trkpt lat="44.18772" lon="2.79532">
        <ele>882.63</ele>
        <time>2022-07-14T09:45:49Z</time>
      </trkpt>
      <trkpt lat="44.18772" lon="2.79548">
        <ele>884.55</ele>
        <time>2022-07-14T09:45:56Z</time>
      </trkpt>
      <trkpt lat="44.18772" lon="2.79562">
        <ele>887.43</ele>
        <time>2022-07-14T09:46:04Z</time>
      </trkpt>
      <trkpt lat="44.1877" lon="2.79576">
        <ele>888.4</ele>
        <time>2022-07-14T09:46:12Z</time>
      </trkpt>
      <trkpt lat="44.18766" lon="2.7959">
        <ele>889.84</ele>
        <time>2022-07-14T09:46:20Z</time>
      </trkpt>
      <trkpt lat="44.18762" lon="2.79604">
        <ele>890.8</ele>
        <time>2022-07-14T09:46:28Z</time>
      </trkpt>
      <trkpt lat="44.18758" lon="2.79618">
        <ele>892.24</ele>
        <time>2022-07-14T09:46:36Z</time>
      </trkpt>
      <trkpt lat="44.18755" lon="2.79632">
        <ele>893.68</ele>
        <time>2022-07-14T09:46:44Z</time>
      </trkpt>
      <trkpt lat="44.18753" lon="2.79647">
        <ele>895.12</ele>
        <time>2022-07-14T09:46:52Z</time>
      </trkpt>
      <trkpt lat="44.18749" lon="2.79661">
        <ele>896.57</ele>
        <time>2022-07-14T09:47:00Z</time>
      </trkpt>
      <trkpt lat="44.18747" lon="2.79675">
        <ele>897.05</ele>
        <time>2022-07-14T09:47:07Z</time>
      </trkpt>
      <trkpt lat="44.18746" lon="2.7969">
        <ele>898.01</ele>
        <time>2022-07-14T09:47:14Z</time>
      </trkpt>
      <trkpt lat="44.18744" lon="2.79705">
        <ele>898.01</ele>
        <time>2022-07-14T09:47:22Z</time>
      </trkpt>
      <trkpt lat="44.18743" lon="2.79718">
        <ele>898.01</ele>
        <time>2022-07-14T09:47:29Z</time>
      </trkpt>
      <trkpt lat="44.18742" lon="2.79731">
        <ele>897.53</ele>
        <time>2022-07-14T09:47:35Z</time>
      </trkpt>
      <trkpt lat="44.18741" lon="2.79744">
        <ele>897.53</ele>
        <time>2022-07-14T09:47:41Z</time>
      </trkpt>
      <trkpt lat="44.18741" lon="2.79757">
        <ele>897.53</ele>
        <time>2022-07-14T09:47:47Z</time>
      </trkpt>
      <trkpt lat="44.18742" lon="2.79771">
        <ele>898.01</ele>
        <time>2022-07-14T09:47:54Z</time>
      </trkpt>
      <trkpt lat="44.18734" lon="2.79817">
        <ele>900.41</ele>
        <time>2022-07-14T09:55:10Z</time>
      </trkpt>
      <trkpt lat="44.18729" lon="2.79831">
        <ele>900.41</ele>
        <time>2022-07-14T09:55:13Z</time>
      </trkpt>
      <trkpt lat="44.18724" lon="2.79843">
        <ele>900.89</ele>
        <time>2022-07-14T09:55:16Z</time>
      </trkpt>
      <trkpt lat="44.18718" lon="2.79853">
        <ele>901.37</ele>
        <time>2022-07-14T09:55:21Z</time>
      </trkpt>
      <trkpt lat="44.18707" lon="2.79861">
        <ele>901.85</ele>
        <time>2022-07-14T09:55:25Z</time>
      </trkpt>
      <trkpt lat="44.18699" lon="2.79867">
        <ele>901.85</ele>
        <time>2022-07-14T09:55:28Z</time>
      </trkpt>
      <trkpt lat="44.18688" lon="2.79875">
        <ele>902.33</ele>
        <time>2022-07-14T09:55:32Z</time>
      </trkpt>
      <trkpt lat="44.18678" lon="2.79881">
        <ele>902.82</ele>
        <time>2022-07-14T09:55:36Z</time>
      </trkpt>
      <trkpt lat="44.18668" lon="2.79885">
        <ele>902.82</ele>
        <time>2022-07-14T09:55:40Z</time>
      </trkpt>
      <trkpt lat="44.18658" lon="2.79889">
        <ele>903.78</ele>
        <time>2022-07-14T09:55:43Z</time>
      </trkpt>
      <trkpt lat="44.18648" lon="2.79893">
        <ele>905.22</ele>
        <time>2022-07-14T09:55:46Z</time>
      </trkpt>
      <trkpt lat="44.1864" lon="2.79899">
        <ele>906.66</ele>
        <time>2022-07-14T09:55:49Z</time>
      </trkpt>
      <trkpt lat="44.18629" lon="2.79906">
        <ele>908.58</ele>
        <time>2022-07-14T09:55:53Z</time>
      </trkpt>
      <trkpt lat="44.18619" lon="2.79913">
        <ele>910.51</ele>
        <time>2022-07-14T09:55:58Z</time>
      </trkpt>
      <trkpt lat="44.18609" lon="2.7992">
        <ele>911.47</ele>
        <time>2022-07-14T09:56:01Z</time>
      </trkpt>
      <trkpt lat="44.18601" lon="2.79928">
        <ele>911.47</ele>
        <time>2022-07-14T09:56:04Z</time>
      </trkpt>
      <trkpt lat="44.18594" lon="2.79937">
        <ele>911.95</ele>
        <time>2022-07-14T09:56:07Z</time>
      </trkpt>
      <trkpt lat="44.18587" lon="2.79947">
        <ele>911.95</ele>
        <time>2022-07-14T09:56:10Z</time>
      </trkpt>
      <trkpt lat="44.18581" lon="2.79959">
        <ele>911.95</ele>
        <time>2022-07-14T09:56:13Z</time>
      </trkpt>
      <trkpt lat="44.18575" lon="2.79974">
        <ele>911.95</ele>
        <time>2022-07-14T09:56:16Z</time>
      </trkpt>
      <trkpt lat="44.1857" lon="2.7999">
        <ele>911.47</ele>
        <time>2022-07-14T09:56:19Z</time>
      </trkpt>
      <trkpt lat="44.18566" lon="2.80006">
        <ele>911.95</ele>
        <time>2022-07-14T09:56:22Z</time>
      </trkpt>
      <trkpt lat="44.18562" lon="2.80021">
        <ele>912.43</ele>
        <time>2022-07-14T09:56:25Z</time>
      </trkpt>
      <trkpt lat="44.18559" lon="2.80033">
        <ele>912.91</ele>
        <time>2022-07-14T09:56:28Z</time>
      </trkpt>
      <trkpt lat="44.18557" lon="2.80047">
        <ele>913.39</ele>
        <time>2022-07-14T09:56:31Z</time>
      </trkpt>
      <trkpt lat="44.18556" lon="2.80061">
        <ele>913.39</ele>
        <time>2022-07-14T09:56:35Z</time>
      </trkpt>
      <trkpt lat="44.18557" lon="2.80073">
        <ele>912.43</ele>
        <time>2022-07-14T09:56:42Z</time>
      </trkpt>
      <trkpt lat="44.18558" lon="2.80086">
        <ele>911.47</ele>
        <time>2022-07-14T09:56:49Z</time>
      </trkpt>
      <trkpt lat="44.18561" lon="2.80099">
        <ele>910.99</ele>
        <time>2022-07-14T09:56:56Z</time>
      </trkpt>
      <trkpt lat="44.18564" lon="2.80112">
        <ele>909.54</ele>
        <time>2022-07-14T09:57:04Z</time>
      </trkpt>
      <trkpt lat="44.18565" lon="2.80125">
        <ele>908.1</ele>
        <time>2022-07-14T09:57:10Z</time>
      </trkpt>
      <trkpt lat="44.18565" lon="2.80138">
        <ele>907.62</ele>
        <time>2022-07-14T09:57:16Z</time>
      </trkpt>
      <trkpt lat="44.18563" lon="2.80151">
        <ele>906.66</ele>
        <time>2022-07-14T09:57:22Z</time>
      </trkpt>
      <trkpt lat="44.18561" lon="2.80165">
        <ele>906.18</ele>
        <time>2022-07-14T09:57:28Z</time>
      </trkpt>
      <trkpt lat="44.18558" lon="2.80179">
        <ele>905.22</ele>
        <time>2022-07-14T09:57:35Z</time>
      </trkpt>
      <trkpt lat="44.18555" lon="2.80193">
        <ele>905.22</ele>
        <time>2022-07-14T09:57:42Z</time>
      </trkpt>
      <trkpt lat="44.18552" lon="2.80207">
        <ele>903.78</ele>
        <time>2022-07-14T09:57:49Z</time>
      </trkpt>
      <trkpt lat="44.18548" lon="2.80221">
        <ele>903.78</ele>
        <time>2022-07-14T09:57:57Z</time>
      </trkpt>
      <trkpt lat="44.18545" lon="2.80235">
        <ele>903.78</ele>
        <time>2022-07-14T09:58:06Z</time>
      </trkpt>
      <trkpt lat="44.18543" lon="2.80264">
        <ele>904.74</ele>
        <time>2022-07-14T09:58:35Z</time>
      </trkpt>
      <trkpt lat="44.18545" lon="2.80284">
        <ele>906.18</ele>
        <time>2022-07-14T09:58:45Z</time>
      </trkpt>
      <trkpt lat="44.18548" lon="2.80301">
        <ele>907.14</ele>
        <time>2022-07-14T09:58:55Z</time>
      </trkpt>
      <trkpt lat="44.18548" lon="2.80316">
        <ele>906.66</ele>
        <time>2022-07-14T09:59:04Z</time>
      </trkpt>
      <trkpt lat="44.18552" lon="2.80336">
        <ele>909.06</ele>
        <time>2022-07-14T09:59:13Z</time>
      </trkpt>
      <trkpt lat="44.18553" lon="2.80353">
        <ele>911.95</ele>
        <time>2022-07-14T09:59:21Z</time>
      </trkpt>
      <trkpt lat="44.18554" lon="2.80368">
        <ele>915.31</ele>
        <time>2022-07-14T09:59:28Z</time>
      </trkpt>
      <trkpt lat="44.18555" lon="2.80383">
        <ele>916.27</ele>
        <time>2022-07-14T09:59:36Z</time>
      </trkpt>
      <trkpt lat="44.18554" lon="2.80397">
        <ele>916.75</ele>
        <time>2022-07-14T09:59:43Z</time>
      </trkpt>
      <trkpt lat="44.18554" lon="2.80413">
        <ele>917.72</ele>
        <time>2022-07-14T09:59:50Z</time>
      </trkpt>
      <trkpt lat="44.18555" lon="2.80429">
        <ele>918.68</ele>
        <time>2022-07-14T09:59:58Z</time>
      </trkpt>
      <trkpt lat="44.18553" lon="2.80443">
        <ele>919.16</ele>
        <time>2022-07-14T10:00:05Z</time>
      </trkpt>
      <trkpt lat="44.18551" lon="2.80458">
        <ele>920.12</ele>
        <time>2022-07-14T10:00:12Z</time>
      </trkpt>
      <trkpt lat="44.18549" lon="2.80476">
        <ele>922.04</ele>
        <time>2022-07-14T10:00:24Z</time>
      </trkpt>
      <trkpt lat="44.18546" lon="2.80489">
        <ele>922.52</ele>
        <time>2022-07-14T10:00:30Z</time>
      </trkpt>
      <trkpt lat="44.18543" lon="2.80502">
        <ele>922.04</ele>
        <time>2022-07-14T10:00:38Z</time>
      </trkpt>
      <trkpt lat="44.18537" lon="2.80527">
        <ele>923.48</ele>
        <time>2022-07-14T10:00:52Z</time>
      </trkpt>
      <trkpt lat="44.18533" lon="2.80544">
        <ele>923.48</ele>
        <time>2022-07-14T10:01:01Z</time>
      </trkpt>
      <trkpt lat="44.1853" lon="2.80556">
        <ele>923.96</ele>
        <time>2022-07-14T10:01:08Z</time>
      </trkpt>
      <trkpt lat="44.18525" lon="2.80576">
        <ele>925.89</ele>
        <time>2022-07-14T10:01:17Z</time>
      </trkpt>
      <trkpt lat="44.18513" lon="2.80644">
        <ele>928.77</ele>
        <time>2022-07-14T10:03:03Z</time>
      </trkpt>
      <trkpt lat="44.18511" lon="2.80661">
        <ele>928.77</ele>
        <time>2022-07-14T10:03:13Z</time>
      </trkpt>
      <trkpt lat="44.18509" lon="2.80682">
        <ele>929.25</ele>
        <time>2022-07-14T10:03:27Z</time>
      </trkpt>
      <trkpt lat="44.18498" lon="2.80759">
        <ele>931.65</ele>
        <time>2022-07-14T10:04:08Z</time>
      </trkpt>
      <trkpt lat="44.18494" lon="2.80793">
        <ele>933.58</ele>
        <time>2022-07-14T10:04:29Z</time>
      </trkpt>
      <trkpt lat="44.18491" lon="2.80814">
        <ele>933.1</ele>
        <time>2022-07-14T10:04:44Z</time>
      </trkpt>
      <trkpt lat="44.1849" lon="2.80829">
        <ele>932.14</ele>
        <time>2022-07-14T10:04:53Z</time>
      </trkpt>
      <trkpt lat="44.18489" lon="2.80856">
        <ele>932.62</ele>
        <time>2022-07-14T10:05:07Z</time>
      </trkpt>
      <trkpt lat="44.18488" lon="2.80876">
        <ele>933.58</ele>
        <time>2022-07-14T10:05:15Z</time>
      </trkpt>
      <trkpt lat="44.18487" lon="2.80893">
        <ele>936.46</ele>
        <time>2022-07-14T10:05:25Z</time>
      </trkpt>
      <trkpt lat="44.18487" lon="2.80911">
        <ele>937.9</ele>
        <time>2022-07-14T10:05:33Z</time>
      </trkpt>
      <trkpt lat="44.18487" lon="2.80929">
        <ele>938.86</ele>
        <time>2022-07-14T10:05:44Z</time>
      </trkpt>
      <trkpt lat="44.18486" lon="2.80946">
        <ele>937.42</ele>
        <time>2022-07-14T10:05:53Z</time>
      </trkpt>
      <trkpt lat="44.18483" lon="2.80972">
        <ele>935.98</ele>
        <time>2022-07-14T10:06:08Z</time>
      </trkpt>
      <trkpt lat="44.18479" lon="2.80991">
        <ele>935.98</ele>
        <time>2022-07-14T10:06:19Z</time>
      </trkpt>
      <trkpt lat="44.18477" lon="2.81013">
        <ele>936.46</ele>
        <time>2022-07-14T10:06:28Z</time>
      </trkpt>
      <trkpt lat="44.18475" lon="2.81032">
        <ele>937.42</ele>
        <time>2022-07-14T10:06:36Z</time>
      </trkpt>
      <trkpt lat="44.18473" lon="2.8105">
        <ele>938.38</ele>
        <time>2022-07-14T10:06:45Z</time>
      </trkpt>
      <trkpt lat="44.1847" lon="2.81067">
        <ele>937.9</ele>
        <time>2022-07-14T10:06:53Z</time>
      </trkpt>
      <trkpt lat="44.1847" lon="2.81083">
        <ele>937.42</ele>
        <time>2022-07-14T10:07:01Z</time>
      </trkpt>
      <trkpt lat="44.18469" lon="2.81098">
        <ele>938.38</ele>
        <time>2022-07-14T10:07:07Z</time>
      </trkpt>
      <trkpt lat="44.18467" lon="2.81113">
        <ele>938.86</ele>
        <time>2022-07-14T10:07:13Z</time>
      </trkpt>
      <trkpt lat="44.18465" lon="2.81127">
        <ele>939.35</ele>
        <time>2022-07-14T10:07:20Z</time>
      </trkpt>
      <trkpt lat="44.18462" lon="2.81141">
        <ele>940.31</ele>
        <time>2022-07-14T10:07:27Z</time>
      </trkpt>
      <trkpt lat="44.1846" lon="2.81154">
        <ele>941.75</ele>
        <time>2022-07-14T10:07:33Z</time>
      </trkpt>
      <trkpt lat="44.18458" lon="2.81168">
        <ele>941.75</ele>
        <time>2022-07-14T10:07:40Z</time>
      </trkpt>
      <trkpt lat="44.18456" lon="2.81181">
        <ele>941.75</ele>
        <time>2022-07-14T10:07:46Z</time>
      </trkpt>
      <trkpt lat="44.18452" lon="2.81196">
        <ele>941.27</ele>
        <time>2022-07-14T10:07:53Z</time>
      </trkpt>
      <trkpt lat="44.18449" lon="2.81209">
        <ele>940.79</ele>
        <time>2022-07-14T10:07:59Z</time>
      </trkpt>
      <trkpt lat="44.18447" lon="2.81224">
        <ele>940.31</ele>
        <time>2022-07-14T10:08:06Z</time>
      </trkpt>
      <trkpt lat="44.18443" lon="2.81237">
        <ele>940.79</ele>
        <time>2022-07-14T10:08:12Z</time>
      </trkpt>
      <trkpt lat="44.18441" lon="2.81251">
        <ele>940.79</ele>
        <time>2022-07-14T10:08:19Z</time>
      </trkpt>
      <trkpt lat="44.18439" lon="2.81264">
        <ele>941.27</ele>
        <time>2022-07-14T10:08:25Z</time>
      </trkpt>
      <trkpt lat="44.18437" lon="2.81276">
        <ele>941.75</ele>
        <time>2022-07-14T10:08:31Z</time>
      </trkpt>
      <trkpt lat="44.18435" lon="2.81289">
        <ele>942.23</ele>
        <time>2022-07-14T10:08:37Z</time>
      </trkpt>
      <trkpt lat="44.18433" lon="2.81301">
        <ele>941.75</ele>
        <time>2022-07-14T10:08:43Z</time>
      </trkpt>
      <trkpt lat="44.18431" lon="2.81315">
        <ele>941.75</ele>
        <time>2022-07-14T10:08:50Z</time>
      </trkpt>
      <trkpt lat="44.18429" lon="2.81329">
        <ele>942.23</ele>
        <time>2022-07-14T10:08:57Z</time>
      </trkpt>
      <trkpt lat="44.18426" lon="2.81343">
        <ele>943.19</ele>
        <time>2022-07-14T10:09:04Z</time>
      </trkpt>
      <trkpt lat="44.18425" lon="2.81357">
        <ele>944.15</ele>
        <time>2022-07-14T10:09:10Z</time>
      </trkpt>
      <trkpt lat="44.18425" lon="2.8137">
        <ele>944.15</ele>
        <time>2022-07-14T10:09:16Z</time>
      </trkpt>
      <trkpt lat="44.18423" lon="2.81385">
        <ele>945.11</ele>
        <time>2022-07-14T10:09:23Z</time>
      </trkpt>
      <trkpt lat="44.18421" lon="2.81399">
        <ele>946.56</ele>
        <time>2022-07-14T10:09:29Z</time>
      </trkpt>
      <trkpt lat="44.1842" lon="2.81412">
        <ele>945.59</ele>
        <time>2022-07-14T10:09:35Z</time>
      </trkpt>
      <trkpt lat="44.18418" lon="2.81426">
        <ele>946.56</ele>
        <time>2022-07-14T10:09:42Z</time>
      </trkpt>
      <trkpt lat="44.18417" lon="2.81439">
        <ele>947.04</ele>
        <time>2022-07-14T10:09:48Z</time>
      </trkpt>
      <trkpt lat="44.18416" lon="2.81452">
        <ele>947.04</ele>
        <time>2022-07-14T10:09:54Z</time>
      </trkpt>
      <trkpt lat="44.18415" lon="2.81467">
        <ele>947.52</ele>
        <time>2022-07-14T10:10:01Z</time>
      </trkpt>
      <trkpt lat="44.18414" lon="2.81481">
        <ele>947.52</ele>
        <time>2022-07-14T10:10:08Z</time>
      </trkpt>
      <trkpt lat="44.18413" lon="2.81495">
        <ele>948</ele>
        <time>2022-07-14T10:10:14Z</time>
      </trkpt>
      <trkpt lat="44.18413" lon="2.81508">
        <ele>948.96</ele>
        <time>2022-07-14T10:10:20Z</time>
      </trkpt>
      <trkpt lat="44.18412" lon="2.8152">
        <ele>949.44</ele>
        <time>2022-07-14T10:10:26Z</time>
      </trkpt>
      <trkpt lat="44.18411" lon="2.81533">
        <ele>948.96</ele>
        <time>2022-07-14T10:10:32Z</time>
      </trkpt>
      <trkpt lat="44.18408" lon="2.81547">
        <ele>949.44</ele>
        <time>2022-07-14T10:10:39Z</time>
      </trkpt>
      <trkpt lat="44.18405" lon="2.8156">
        <ele>948.96</ele>
        <time>2022-07-14T10:10:46Z</time>
      </trkpt>
      <trkpt lat="44.18402" lon="2.81574">
        <ele>949.44</ele>
        <time>2022-07-14T10:10:53Z</time>
      </trkpt>
      <trkpt lat="44.184" lon="2.81587">
        <ele>948.48</ele>
        <time>2022-07-14T10:11:00Z</time>
      </trkpt>
      <trkpt lat="44.18401" lon="2.816">
        <ele>949.44</ele>
        <time>2022-07-14T10:11:06Z</time>
      </trkpt>
      <trkpt lat="44.18403" lon="2.81613">
        <ele>948.96</ele>
        <time>2022-07-14T10:11:13Z</time>
      </trkpt>
      <trkpt lat="44.18406" lon="2.81625">
        <ele>948.96</ele>
        <time>2022-07-14T10:11:21Z</time>
      </trkpt>
      <trkpt lat="44.18415" lon="2.81627">
        <ele>948.96</ele>
        <time>2022-07-14T10:11:28Z</time>
      </trkpt>
      <trkpt lat="44.18424" lon="2.81623">
        <ele>948</ele>
        <time>2022-07-14T10:11:34Z</time>
      </trkpt>
      <trkpt lat="44.18433" lon="2.8162">
        <ele>947.04</ele>
        <time>2022-07-14T10:11:40Z</time>
      </trkpt>
      <trkpt lat="44.18443" lon="2.81619">
        <ele>946.56</ele>
        <time>2022-07-14T10:11:46Z</time>
      </trkpt>
      <trkpt lat="44.18452" lon="2.81618">
        <ele>946.56</ele>
        <time>2022-07-14T10:11:52Z</time>
      </trkpt>
      <trkpt lat="44.18462" lon="2.81621">
        <ele>946.07</ele>
        <time>2022-07-14T10:12:00Z</time>
      </trkpt>
      <trkpt lat="44.18471" lon="2.81624">
        <ele>945.11</ele>
        <time>2022-07-14T10:12:08Z</time>
      </trkpt>
      <trkpt lat="44.18479" lon="2.81634">
        <ele>944.15</ele>
        <time>2022-07-14T10:12:16Z</time>
      </trkpt>
      <trkpt lat="44.18485" lon="2.81646">
        <ele>943.67</ele>
        <time>2022-07-14T10:12:23Z</time>
      </trkpt>
      <trkpt lat="44.18489" lon="2.81658">
        <ele>943.19</ele>
        <time>2022-07-14T10:12:30Z</time>
      </trkpt>
      <trkpt lat="44.18494" lon="2.8167">
        <ele>942.71</ele>
        <time>2022-07-14T10:12:37Z</time>
      </trkpt>
      <trkpt lat="44.18498" lon="2.81682">
        <ele>942.23</ele>
        <time>2022-07-14T10:12:43Z</time>
      </trkpt>
      <trkpt lat="44.18501" lon="2.81695">
        <ele>942.23</ele>
        <time>2022-07-14T10:12:49Z</time>
      </trkpt>
      <trkpt lat="44.18504" lon="2.81709">
        <ele>941.27</ele>
        <time>2022-07-14T10:12:56Z</time>
      </trkpt>
      <trkpt lat="44.18508" lon="2.81722">
        <ele>940.79</ele>
        <time>2022-07-14T10:13:03Z</time>
      </trkpt>
      <trkpt lat="44.1851" lon="2.81735">
        <ele>940.79</ele>
        <time>2022-07-14T10:13:09Z</time>
      </trkpt>
      <trkpt lat="44.18513" lon="2.81749">
        <ele>939.35</ele>
        <time>2022-07-14T10:13:16Z</time>
      </trkpt>
      <trkpt lat="44.18517" lon="2.81762">
        <ele>937.42</ele>
        <time>2022-07-14T10:13:23Z</time>
      </trkpt>
      <trkpt lat="44.18521" lon="2.81774">
        <ele>936.94</ele>
        <time>2022-07-14T10:13:29Z</time>
      </trkpt>
      <trkpt lat="44.18526" lon="2.81786">
        <ele>935.5</ele>
        <time>2022-07-14T10:13:36Z</time>
      </trkpt>
      <trkpt lat="44.18533" lon="2.81795">
        <ele>935.02</ele>
        <time>2022-07-14T10:13:42Z</time>
      </trkpt>
      <trkpt lat="44.18541" lon="2.81803">
        <ele>934.54</ele>
        <time>2022-07-14T10:13:49Z</time>
      </trkpt>
      <trkpt lat="44.18549" lon="2.81808">
        <ele>934.06</ele>
        <time>2022-07-14T10:13:55Z</time>
      </trkpt>
      <trkpt lat="44.18559" lon="2.81815">
        <ele>933.58</ele>
        <time>2022-07-14T10:14:02Z</time>
      </trkpt>
      <trkpt lat="44.18568" lon="2.81821">
        <ele>933.1</ele>
        <time>2022-07-14T10:14:09Z</time>
      </trkpt>
      <trkpt lat="44.18576" lon="2.81827">
        <ele>932.14</ele>
        <time>2022-07-14T10:14:15Z</time>
      </trkpt>
      <trkpt lat="44.18585" lon="2.81835">
        <ele>931.65</ele>
        <time>2022-07-14T10:14:22Z</time>
      </trkpt>
      <trkpt lat="44.18594" lon="2.81844">
        <ele>931.17</ele>
        <time>2022-07-14T10:14:29Z</time>
      </trkpt>
      <trkpt lat="44.18602" lon="2.81851">
        <ele>930.69</ele>
        <time>2022-07-14T10:14:35Z</time>
      </trkpt>
      <trkpt lat="44.18611" lon="2.81859">
        <ele>930.21</ele>
        <time>2022-07-14T10:14:42Z</time>
      </trkpt>
      <trkpt lat="44.18622" lon="2.81868">
        <ele>930.69</ele>
        <time>2022-07-14T10:14:49Z</time>
      </trkpt>
      <trkpt lat="44.18631" lon="2.81878">
        <ele>931.65</ele>
        <time>2022-07-14T10:14:56Z</time>
      </trkpt>
      <trkpt lat="44.18638" lon="2.81886">
        <ele>930.69</ele>
        <time>2022-07-14T10:15:03Z</time>
      </trkpt>
      <trkpt lat="44.18647" lon="2.81897">
        <ele>929.25</ele>
        <time>2022-07-14T10:15:10Z</time>
      </trkpt>
      <trkpt lat="44.18655" lon="2.81909">
        <ele>927.81</ele>
        <time>2022-07-14T10:15:18Z</time>
      </trkpt>
      <trkpt lat="44.18663" lon="2.81919">
        <ele>926.37</ele>
        <time>2022-07-14T10:15:26Z</time>
      </trkpt>
      <trkpt lat="44.18672" lon="2.81929">
        <ele>923.48</ele>
        <time>2022-07-14T10:15:34Z</time>
      </trkpt>
      <trkpt lat="44.18678" lon="2.81942">
        <ele>921.56</ele>
        <time>2022-07-14T10:15:41Z</time>
      </trkpt>
      <trkpt lat="44.18684" lon="2.81954">
        <ele>919.64</ele>
        <time>2022-07-14T10:15:48Z</time>
      </trkpt>
      <trkpt lat="44.18691" lon="2.81965">
        <ele>918.2</ele>
        <time>2022-07-14T10:15:55Z</time>
      </trkpt>
      <trkpt lat="44.18701" lon="2.81974">
        <ele>918.68</ele>
        <time>2022-07-14T10:16:02Z</time>
      </trkpt>
      <trkpt lat="44.1871" lon="2.81981">
        <ele>920.12</ele>
        <time>2022-07-14T10:16:08Z</time>
      </trkpt>
      <trkpt lat="44.18719" lon="2.81988">
        <ele>920.6</ele>
        <time>2022-07-14T10:16:14Z</time>
      </trkpt>
      <trkpt lat="44.18727" lon="2.81996">
        <ele>920.12</ele>
        <time>2022-07-14T10:16:20Z</time>
      </trkpt>
      <trkpt lat="44.18736" lon="2.82004">
        <ele>920.12</ele>
        <time>2022-07-14T10:16:26Z</time>
      </trkpt>
      <trkpt lat="44.18744" lon="2.82011">
        <ele>918.68</ele>
        <time>2022-07-14T10:16:32Z</time>
      </trkpt>
      <trkpt lat="44.18753" lon="2.8202">
        <ele>918.2</ele>
        <time>2022-07-14T10:16:39Z</time>
      </trkpt>
      <trkpt lat="44.18762" lon="2.82029">
        <ele>916.75</ele>
        <time>2022-07-14T10:16:46Z</time>
      </trkpt>
      <trkpt lat="44.18772" lon="2.82035">
        <ele>915.79</ele>
        <time>2022-07-14T10:16:53Z</time>
      </trkpt>
      <trkpt lat="44.18782" lon="2.82039">
        <ele>916.27</ele>
        <time>2022-07-14T10:17:00Z</time>
      </trkpt>
      <trkpt lat="44.18793" lon="2.82041">
        <ele>917.24</ele>
        <time>2022-07-14T10:17:07Z</time>
      </trkpt>
      <trkpt lat="44.18804" lon="2.8204">
        <ele>917.24</ele>
        <time>2022-07-14T10:17:14Z</time>
      </trkpt>
      <trkpt lat="44.18814" lon="2.82037">
        <ele>916.75</ele>
        <time>2022-07-14T10:17:21Z</time>
      </trkpt>
      <trkpt lat="44.18823" lon="2.82031">
        <ele>916.27</ele>
        <time>2022-07-14T10:17:28Z</time>
      </trkpt>
      <trkpt lat="44.18833" lon="2.8202">
        <ele>916.75</ele>
        <time>2022-07-14T10:17:36Z</time>
      </trkpt>
      <trkpt lat="44.18841" lon="2.82009">
        <ele>917.24</ele>
        <time>2022-07-14T10:17:43Z</time>
      </trkpt>
      <trkpt lat="44.18849" lon="2.82">
        <ele>918.68</ele>
        <time>2022-07-14T10:17:50Z</time>
      </trkpt>
      <trkpt lat="44.18857" lon="2.81989">
        <ele>919.64</ele>
        <time>2022-07-14T10:17:59Z</time>
      </trkpt>
      <trkpt lat="44.18868" lon="2.81978">
        <ele>919.16</ele>
        <time>2022-07-14T10:18:09Z</time>
      </trkpt>
      <trkpt lat="44.18879" lon="2.81966">
        <ele>918.2</ele>
        <time>2022-07-14T10:18:17Z</time>
      </trkpt>
      <trkpt lat="44.18893" lon="2.81955">
        <ele>918.2</ele>
        <time>2022-07-14T10:18:25Z</time>
      </trkpt>
      <trkpt lat="44.18904" lon="2.81945">
        <ele>919.16</ele>
        <time>2022-07-14T10:18:33Z</time>
      </trkpt>
      <trkpt lat="44.18915" lon="2.81936">
        <ele>919.16</ele>
        <time>2022-07-14T10:18:41Z</time>
      </trkpt>
      <trkpt lat="44.18927" lon="2.81926">
        <ele>919.16</ele>
        <time>2022-07-14T10:18:51Z</time>
      </trkpt>
      <trkpt lat="44.18937" lon="2.81915">
        <ele>919.16</ele>
        <time>2022-07-14T10:18:59Z</time>
      </trkpt>
      <trkpt lat="44.18947" lon="2.81906">
        <ele>920.12</ele>
        <time>2022-07-14T10:19:07Z</time>
      </trkpt>
      <trkpt lat="44.18956" lon="2.81898">
        <ele>919.64</ele>
        <time>2022-07-14T10:19:14Z</time>
      </trkpt>
      <trkpt lat="44.18965" lon="2.81891">
        <ele>920.12</ele>
        <time>2022-07-14T10:19:21Z</time>
      </trkpt>
      <trkpt lat="44.18974" lon="2.81884">
        <ele>921.08</ele>
        <time>2022-07-14T10:19:28Z</time>
      </trkpt>
      <trkpt lat="44.18986" lon="2.81875">
        <ele>922.52</ele>
        <time>2022-07-14T10:19:35Z</time>
      </trkpt>
      <trkpt lat="44.18994" lon="2.81866">
        <ele>922.04</ele>
        <time>2022-07-14T10:19:42Z</time>
      </trkpt>
      <trkpt lat="44.18999" lon="2.81857">
        <ele>923</ele>
        <time>2022-07-14T10:19:48Z</time>
      </trkpt>
      <trkpt lat="44.19006" lon="2.81844">
        <ele>923.48</ele>
        <time>2022-07-14T10:19:55Z</time>
      </trkpt>
      <trkpt lat="44.19011" lon="2.81832">
        <ele>923.96</ele>
        <time>2022-07-14T10:20:01Z</time>
      </trkpt>
      <trkpt lat="44.19016" lon="2.8182">
        <ele>923.96</ele>
        <time>2022-07-14T10:20:07Z</time>
      </trkpt>
      <trkpt lat="44.19021" lon="2.81809">
        <ele>924.45</ele>
        <time>2022-07-14T10:20:13Z</time>
      </trkpt>
      <trkpt lat="44.19025" lon="2.81796">
        <ele>924.45</ele>
        <time>2022-07-14T10:20:19Z</time>
      </trkpt>
      <trkpt lat="44.19031" lon="2.81784">
        <ele>924.93</ele>
        <time>2022-07-14T10:20:26Z</time>
      </trkpt>
      <trkpt lat="44.19037" lon="2.81771">
        <ele>923.96</ele>
        <time>2022-07-14T10:20:33Z</time>
      </trkpt>
      <trkpt lat="44.19043" lon="2.8176">
        <ele>923.48</ele>
        <time>2022-07-14T10:20:40Z</time>
      </trkpt>
      <trkpt lat="44.1905" lon="2.81749">
        <ele>923</ele>
        <time>2022-07-14T10:20:48Z</time>
      </trkpt>
      <trkpt lat="44.19057" lon="2.81735">
        <ele>921.56</ele>
        <time>2022-07-14T10:20:56Z</time>
      </trkpt>
      <trkpt lat="44.19065" lon="2.81713">
        <ele>922.04</ele>
        <time>2022-07-14T10:21:55Z</time>
      </trkpt>
      <trkpt lat="44.19071" lon="2.81699">
        <ele>920.12</ele>
        <time>2022-07-14T10:22:06Z</time>
      </trkpt>
      <trkpt lat="44.19076" lon="2.81685">
        <ele>917.72</ele>
        <time>2022-07-14T10:22:16Z</time>
      </trkpt>
      <trkpt lat="44.1908" lon="2.81669">
        <ele>914.83</ele>
        <time>2022-07-14T10:22:27Z</time>
      </trkpt>
      <trkpt lat="44.19087" lon="2.81649">
        <ele>913.39</ele>
        <time>2022-07-14T10:22:40Z</time>
      </trkpt>
      <trkpt lat="44.19093" lon="2.81633">
        <ele>911.95</ele>
        <time>2022-07-14T10:22:51Z</time>
      </trkpt>
      <trkpt lat="44.191" lon="2.81618">
        <ele>909.54</ele>
        <time>2022-07-14T10:23:00Z</time>
      </trkpt>
      <trkpt lat="44.19115" lon="2.81587">
        <ele>911.47</ele>
        <time>2022-07-14T10:24:02Z</time>
      </trkpt>
      <trkpt lat="44.19127" lon="2.81571">
        <ele>917.24</ele>
        <time>2022-07-14T10:24:16Z</time>
      </trkpt>
      <trkpt lat="44.19137" lon="2.81564">
        <ele>918.68</ele>
        <time>2022-07-14T10:24:25Z</time>
      </trkpt>
      <trkpt lat="44.19148" lon="2.81563">
        <ele>920.12</ele>
        <time>2022-07-14T10:24:34Z</time>
      </trkpt>
      <trkpt lat="44.19159" lon="2.81559">
        <ele>921.08</ele>
        <time>2022-07-14T10:24:44Z</time>
      </trkpt>
      <trkpt lat="44.19167" lon="2.81548">
        <ele>923</ele>
        <time>2022-07-14T10:24:54Z</time>
      </trkpt>
      <trkpt lat="44.19178" lon="2.81525">
        <ele>922.04</ele>
        <time>2022-07-14T10:25:16Z</time>
      </trkpt>
      <trkpt lat="44.19186" lon="2.81504">
        <ele>920.12</ele>
        <time>2022-07-14T10:25:29Z</time>
      </trkpt>
      <trkpt lat="44.19194" lon="2.81491">
        <ele>920.12</ele>
        <time>2022-07-14T10:25:38Z</time>
      </trkpt>
      <trkpt lat="44.192" lon="2.81471">
        <ele>920.12</ele>
        <time>2022-07-14T10:25:50Z</time>
      </trkpt>
      <trkpt lat="44.1921" lon="2.81456">
        <ele>917.72</ele>
        <time>2022-07-14T10:26:00Z</time>
      </trkpt>
      <trkpt lat="44.19218" lon="2.81441">
        <ele>917.72</ele>
        <time>2022-07-14T10:26:18Z</time>
      </trkpt>
    </trkseg>
  </trk>
</gpx>